GFSGL_con_mlcape_000.txt.gz
CAPE
285 0 2 92 61 8 0 0 0 0 0 13 35 11 0 0 0 31 30 77 46 30 88 56 68 39 7 0 0 0 0 0 0 0 0 0 0 0 0 0 0 4 16
362 12 53 305 277 101 27 10 0 0 0 0 0 0 0 0 0 0 22 58 92 56 74 49 33 40 32 19 0 0 0 0 0 0 0 0 0 0 0 0 0 0 12
557 211 172 326 324 47 29 21 6 0 0 0 0 0 0 0 0 0 4 43 108 90 84 71 42 75 45 41 8 0 0 0 0 0 0 0 0 0 0 1 0 0 1
612 271 256 162 3 17 24 24 2 0 0 0 0 0 1 0 0 20 67 163 144 60 28 40 69 126 85 39 31 16 11 0 0 0 0 0 0 0 0 3 0 0 0
639 381 351 78 56 15 10 1 0 4 11 6 0 0 0 0 7 147 123 48 38 22 25 60 69 69 100 72 65 26 0 0 0 0 0 0 0 1 0 4 10 1 0
578 417 311 212 165 47 50 16 12 6 59 10 13 51 57 1 79 56 38 26 22 3 0 0 16 64 100 109 98 76 56 8 0 14 1 0 0 3 12 5 9 7 3
538 364 284 318 140 151 151 124 51 21 68 103 76 111 21 65 57 77 55 30 21 5 1 0 1 17 55 66 50 19 23 23 34 7 0 6 10 12 23 10 11 8 6
431 368 323 373 202 264 239 155 130 169 211 311 293 128 175 98 112 198 104 35 22 2 1 0 0 0 9 9 0 0 0 0 0 0 0 1 1 8 12 7 3 6 4
358 306 384 427 480 338 319 187 246 283 343 346 307 21 93 189 54 143 63 9 2 0 0 3 0 0 0 0 0 0 0 0 0 0 0 0 3 0 8 6 17 10 4
313 342 336 334 371 336 298 297 375 460 512 471 332 170 86 71 90 22 32 0 1 0 0 0 0 0 0 0 0 0 0 0 0 0 0 0 1 1 0 9 4 4 3
347 251 239 431 426 382 356 537 591 605 362 200 125 31 56 70 32 15 0 0 1 0 0 0 0 0 0 0 0 0 0 1 1 0 0 0 3 0 2 12 5 4 2
255 260 180 20 175 675 699 880 689 484 333 86 22 14 57 22 0 0 0 1 0 0 0 0 0 0 0 0 0 0 0 0 0 2 0 0 1 1 1 4 8 2 1
184 207 0 0 0 0 391 820 651 223 37 26 22 89 52 1 0 0 0 0 0 0 0 0 0 0 0 0 0 0 0 0 2 2 0 1 2 1 2 3 8 2 2
0 0 0 0 0 13 439 396 259 231 154 27 15 12 0 0 0 0 0 0 0 0 0 0 0 0 0 0 0 0 0 0 0 2 3 3 3 0 1 2 7 3 3
0 0 0 2 22 171 62 69 126 0 0 0 0 0 0 0 0 0 0 0 0 0 0 0 0 0 0 0 0 0 0 0 0 0 1 1 0 0 1 1 3 4 3
0 0 0 46 100 100 117 0 0 0 0 0 0 0 0 0 0 0 0 0 0 0 0 0 0 0 0 0 0 0 0 0 0 0 0 0 0 3 1 1 2 2 3
0 0 27 167 225 46 11 35 0 0 0 0 0 0 0 0 0 0 0 0 0 0 0 0 0 0 0 0 0 0 0 0 0 0 0 0 0 0 0 2 2 1 0
42 105 59 38 40 4 0 0 0 0 0 0 0 0 0 0 0 0 0 0 0 0 0 0 0 0 0 0 0 0 0 0 0 0 0 0 0 0 0 1 1 0 0
100 63 99 133 101 78 47 4 0 0 0 0 0 0 0 0 0 0 0 0 0 0 0 0 0 0 0 0 0 0 0 0 0 0 0 0 0 0 0 0 0 0 0
6 22 81 128 116 11 0 1 10 0 0 0 0 0 0 0 0 0 0 0 0 0 0 0 0 0 0 0 0 0 0 0 0 0 0 0 0 0 0 0 0 0 0
27 16 7 9 16 1 0 2 5 0 0 0 0 0 0 0 0 0 0 0 0 0 0 0 0 0 0 0 0 0 0 0 0 0 0 0 0 0 0 0 0 0 0
4 2 19 25 21 2 0 0 0 0 0 0 0 0 0 0 0 0 0 0 0 0 0 0 0 0 0 0 0 0 0 0 0 0 0 0 0 0 0 0 0 0 0
0 10 21 10 0 0 0 0 2 6 0 0 0 0 0 0 0 0 0 0 0 0 0 0 0 0 0 0 0 0 0 0 0 0 0 0 0 0 0 0 0 0 0
0 0 0 0 0 0 0 0 0 2 4 0 0 0 0 0 0 0 0 0 0 0 0 0 0 0 0 0 0 0 0 0 0 0 0 0 0 0 0 0 0 0 0
0 0 0 0 0 0 0 0 0 0 0 0 0 0 0 0 0 0 0 0 0 0 0 0 0 0 0 0 0 0 0 0 0 0 0 0 0 0 0 0 0 0 0
0 0 0 0 0 0 0 0 0 0 0 0 0 0 0 0 0 0 0 0 0 0 0 0 0 0 0 0 0 0 0 0 0 0 0 0 0 0 0 0 0 0 0

GFSGL_con_mlcape_003.txt.gz
CAPE
711 397 52 0 0 0 6 7 3 0 0 0 0 0 0 0 0 0 0 0 0 28 35 43 22 31 34 8 0 0 0 0 0 0 0 0 0 0 0 0 0 0 0
804 523 173 0 0 0 0 0 0 0 0 0 0 0 0 0 0 0 0 0 0 0 32 28 17 42 1 26 22 2 0 0 0 0 0 0 0 0 0 0 0 0 0
804 654 266 1 43 44 18 1 0 0 0 0 0 0 0 0 0 0 0 0 2 35 39 45 29 35 0 28 41 24 18 0 0 0 0 0 0 0 0 0 0 0 0
951 816 498 36 37 233 189 48 5 4 0 0 0 0 0 0 0 0 0 1 38 60 45 48 18 29 23 9 18 15 13 7 0 0 0 0 0 0 0 0 0 0 0
1151 988 769 154 28 345 319 64 4 0 6 0 0 0 0 0 0 0 8 58 54 26 19 10 0 2 3 15 8 0 12 14 7 0 0 0 0 0 0 0 0 5 1
1194 1210 665 250 20 326 152 0 0 0 2 5 6 0 0 0 2 6 33 38 36 5 0 0 0 0 0 5 57 97 72 30 4 0 0 0 0 0 0 3 1 5 5
1335 906 834 516 67 163 35 15 4 1 5 3 22 28 0 0 0 3 22 9 23 8 0 0 0 0 0 0 16 42 53 49 43 6 0 0 0 0 2 1 4 7 5
1161 847 590 463 241 208 56 113 76 90 45 48 28 51 53 26 8 22 31 32 20 2 0 0 0 0 0 0 18 1 0 0 0 0 0 0 0 0 0 1 4 5 4
868 554 550 368 357 193 221 140 185 187 177 207 150 139 163 35 30 69 26 29 0 0 0 0 0 0 0 1 0 0 0 0 0 0 0 0 0 0 0 2 8 5 6
918 718 634 266 307 197 302 194 309 276 236 300 298 191 84 108 131 9 0 0 0 0 0 0 0 0 0 0 0 0 0 0 0 0 0 0 0 0 0 3 3 6 7
744 694 682 352 283 240 188 57 4 87 254 428 422 367 244 117 14 29 0 0 0 0 0 0 0 0 0 0 0 0 0 0 0 0 0 0 0 0 0 0 1 2 2
569 545 342 158 128 49 48 29 1 0 21 83 229 183 98 7 17 4 0 0 0 0 0 0 0 0 0 0 0 0 0 0 0 0 0 0 1 0 0 0 1 5 7
471 302 27 1 0 0 0 9 21 0 0 103 67 55 31 3 0 0 0 0 0 0 0 0 0 0 0 0 0 0 0 0 0 0 0 0 2 2 0 1 0 4 3
184 111 20 10 11 0 0 2 98 129 155 44 42 76 3 0 0 0 0 0 0 0 0 0 0 0 0 0 0 0 0 0 0 0 0 0 0 1 0 1 1 2 3
55 4 0 0 0 27 11 45 118 16 12 59 49 0 0 0 0 0 0 0 0 0 0 0 0 0 0 0 0 0 0 0 0 0 0 0 0 0 1 0 2 1 4
0 0 0 0 1 1 0 0 0 0 0 0 0 0 0 0 0 0 0 0 0 0 0 0 0 0 0 0 0 0 0 0 0 0 0 0 0 0 0 0 1 0 2
0 15 0 0 0 0 25 14 0 0 0 0 0 0 0 0 0 0 0 0 0 0 0 0 0 0 0 0 0 0 0 0 0 0 0 0 0 0 0 0 1 0 0
0 0 0 6 4 0 1 7 0 0 0 0 0 0 0 0 0 0 0 0 0 0 0 0 0 0 0 0 0 0 0 0 0 0 0 0 0 0 0 0 1 0 0
57 72 70 63 83 32 0 0 0 0 0 0 0 0 0 0 0 0 0 0 0 0 0 0 0 0 0 0 0 0 0 0 0 0 0 0 0 0 0 0 0 0 0
79 66 44 64 58 45 1 0 0 0 0 0 0 0 0 0 0 0 0 0 0 0 0 0 0 0 0 0 0 0 0 0 0 0 0 0 0 0 0 0 0 0 0
0 0 19 69 33 7 11 12 5 0 0 0 0 0 0 0 0 0 0 0 0 0 0 0 0 0 0 0 0 0 0 0 0 0 0 0 0 0 0 0 0 0 0
0 0 1 0 0 7 5 4 1 0 0 0 0 0 0 0 0 0 0 0 0 0 0 0 0 0 0 0 0 0 0 0 0 0 0 0 0 0 0 0 0 0 0
0 0 0 0 0 0 0 0 0 0 0 0 0 0 0 0 0 0 0 0 0 0 0 0 0 0 0 0 0 0 0 0 0 0 0 0 0 0 0 0 0 0 0
0 0 0 0 0 0 0 0 0 0 3 0 0 0 0 0 0 0 0 0 0 0 0 0 0 0 0 0 0 0 0 0 0 0 0 0 0 0 0 0 0 0 0
0 0 0 0 0 0 0 0 0 0 0 0 0 0 0 0 0 0 0 0 0 0 0 0 0 0 0 0 0 0 0 0 0 0 0 0 0 0 0 0 0 0 0
0 0 0 0 0 0 0 0 0 0 0 0 0 0 0 0 0 0 0 0 0 0 0 0 0 0 0 0 0 0 0 0 0 0 0 0 0 0 0 0 0 0 0

GFSGL_con_mlcape_006.txt.gz
CAPE
951 823 636 726 312 0 0 0 0 0 0 0 0 0 0 0 0 0 0 0 0 0 0 18 19 33 37 22 0 0 0 0 0 0 0 0 0 0 0 0 0 0 0
1094 779 494 423 87 0 0 0 0 0 0 0 0 0 0 0 0 0 0 0 0 0 0 30 42 45 27 33 25 14 0 0 0 0 0 0 0 0 0 0 0 0 0
1235 673 444 352 120 11 0 0 0 0 0 0 0 0 0 0 0 0 0 0 0 0 7 29 24 37 0 0 0 0 13 22 2 0 0 0 0 0 0 0 0 0 0
1035 705 596 508 282 45 0 0 0 0 0 0 0 0 0 0 0 0 0 0 0 0 15 25 5 0 0 0 0 0 0 6 21 6 0 0 0 0 0 0 0 0 0
980 725 771 626 285 24 0 11 0 0 0 0 0 0 0 0 0 0 0 0 0 10 17 6 0 0 0 0 0 0 0 0 17 0 0 0 0 0 0 0 0 0 0
1088 855 723 470 353 233 26 1 7 21 7 2 0 0 0 0 0 0 0 0 2 12 0 0 0 0 0 0 3 9 10 0 14 2 0 0 0 0 0 0 0 0 2
1173 992 800 447 215 19 0 11 196 177 61 1 0 0 0 1 0 3 5 4 2 5 0 0 0 0 0 0 0 1 21 35 40 3 0 0 0 0 0 2 1 1 3
1191 1177 775 419 215 65 0 0 123 109 2 5 12 27 2 33 46 19 42 27 8 0 0 0 0 0 0 0 0 1 0 0 0 0 0 0 0 1 4 3 2 3 3
1156 1165 906 583 332 152 32 1 3 23 28 48 59 70 64 93 113 90 18 40 7 0 0 0 0 0 0 0 0 0 0 0 0 0 0 0 0 0 0 3 0 3 9
1070 1085 932 802 428 86 2 0 0 8 23 68 91 25 55 66 108 8 19 11 6 0 0 0 0 0 0 0 0 0 0 0 0 0 0 0 1 0 0 0 2 5 6
849 865 813 767 622 87 1 1 0 26 36 45 0 1 12 4 27 23 0 5 1 0 0 0 0 0 0 0 0 0 0 0 0 0 0 0 0 1 0 0 0 2 2
675 521 442 428 309 54 26 0 0 37 36 24 15 3 0 0 0 0 2 0 0 0 0 0 0 0 0 0 0 0 0 0 0 0 0 0 0 0 0 0 0 2 2
334 252 150 40 48 5 0 0 0 0 0 1 15 0 11 2 0 0 0 0 0 0 0 0 0 0 0 0 0 0 0 0 0 0 0 0 0 0 0 0 0 2 1
147 25 0 0 0 0 0 0 0 0 0 0 32 69 47 0 2 0 0 0 0 0 0 0 0 0 0 0 0 0 0 0 0 0 0 0 0 0 0 0 3 2 2
94 38 28 0 0 0 0 0 0 0 14 22 20 30 33 8 0 0 0 0 0 0 0 0 0 0 0 0 0 0 0 0 0 0 0 0 0 0 0 0 0 3 1
62 5 0 0 0 0 0 0 0 0 0 0 0 0 0 0 0 0 0 0 0 0 0 0 0 0 0 0 0 0 0 0 0 0 0 0 0 0 0 0 0 1 0
6 0 0 0 0 0 0 0 0 0 0 0 0 0 0 0 0 0 0 0 0 0 0 0 0 0 0 0 0 0 0 0 0 0 0 0 0 0 0 0 0 0 0
0 0 0 2 0 0 0 0 0 0 0 0 0 0 0 0 0 0 0 0 0 0 0 0 0 0 0 0 0 0 0 0 0 0 0 0 0 0 0 0 0 0 0
0 0 0 0 0 0 0 0 0 0 0 0 0 0 0 0 0 0 0 0 0 0 0 0 0 0 0 0 0 0 0 0 0 0 0 0 0 0 0 0 0 0 0
51 47 39 21 0 0 0 0 0 0 0 0 0 0 0 0 0 0 0 0 0 0 0 0 0 0 0 0 0 0 0 0 0 0 0 0 0 0 0 0 0 0 0
37 19 1 0 0 0 0 0 0 0 0 0 0 0 0 0 0 0 0 0 0 0 0 0 0 0 0 0 0 0 0 0 0 0 0 0 0 0 0 0 0 0 0
0 0 0 38 13 7 6 0 0 0 0 0 0 0 0 0 0 0 0 0 0 0 0 0 0 0 0 0 0 0 0 0 0 0 0 0 0 0 0 0 0 0 0
0 0 0 0 0 0 0 0 0 0 0 0 0 0 0 0 0 0 0 0 0 0 0 0 0 0 0 0 0 0 0 0 0 0 0 0 0 0 0 0 0 0 0
0 0 0 0 0 0 1 2 0 0 0 0 0 0 0 0 0 0 0 0 0 0 0 0 0 0 0 0 0 0 0 0 0 0 0 0 0 0 0 0 0 0 0
0 0 0 0 0 0 0 0 0 0 1 2 0 0 0 0 0 0 0 0 0 0 0 0 0 0 0 0 0 0 0 0 0 0 0 0 0 0 0 0 0 0 0
0 0 0 0 0 0 0 0 0 0 0 0 0 0 0 0 0 0 0 0 0 0 0 0 0 0 0 0 0 0 0 0 0 0 0 0 0 0 0 0 0 0 0

GFSGL_con_mlcape_009.txt.gz
CAPE
1102 1312 1436 1642 1443 1416 1214 683 2 59 39 7 0 0 0 0 0 0 0 0 0 0 110 34 96 87 70 96 98 81 77 56 55 0 0 4 0 0 0 0 0 0 0
1160 1324 1352 1269 1037 713 732 318 4 0 12 1 0 0 0 0 0 0 0 0 0 1 36 107 105 161 185 136 89 87 62 69 62 36 0 0 6 0 2 5 0 0 0
1526 1447 1281 865 735 914 579 182 0 0 8 9 25 1 0 1 22 83 7 0 5 22 31 51 98 225 94 58 88 61 42 51 56 79 24 0 0 5 2 8 2 0 0
1621 1656 1156 806 787 577 481 135 6 11 52 60 18 6 13 25 21 0 0 0 0 7 31 98 155 17 26 37 48 69 63 49 40 52 25 7 6 6 11 14 7 6 2
1756 1812 1337 884 766 804 254 18 0 0 20 8 0 0 0 2 0 0 0 3 39 49 33 146 153 55 13 3 2 5 50 59 28 27 28 14 10 14 14 15 10 6 0
1841 1726 1454 1177 748 475 106 10 0 0 0 0 0 6 11 9 0 0 0 60 171 194 70 143 98 4 0 0 0 0 0 9 50 38 46 24 9 11 13 10 0 0 0
1662 1657 1472 1239 809 432 116 15 0 0 0 0 0 2 19 46 0 0 0 30 134 134 142 129 60 32 0 0 0 0 5 0 11 60 47 11 7 1 2 2 0 3 3
1519 1587 1468 1204 811 468 216 68 0 0 0 0 6 4 72 110 21 8 0 73 148 197 167 123 78 79 71 0 0 0 20 15 6 3 0 0 0 0 0 5 2 2 2
1313 1537 1581 1271 861 603 390 84 42 0 0 3 69 34 67 87 12 6 33 77 87 91 198 79 19 4 0 0 0 0 0 0 0 0 0 0 0 0 0 4 2 5 3
1333 1598 1696 1222 1037 697 421 122 72 2 0 28 11 97 158 215 43 59 21 55 60 60 76 9 0 0 0 0 0 0 0 8 0 0 0 0 0 0 0 2 2 4 4
1602 1667 1479 1173 1066 877 352 109 41 1 0 5 71 199 134 99 134 32 14 49 38 27 39 8 0 0 0 0 0 0 0 0 0 0 0 0 0 0 0 0 0 3 4
1302 1382 1231 1094 639 389 263 25 21 0 0 0 7 28 8 2 0 0 1 19 15 27 87 21 0 0 0 0 0 0 0 0 0 0 0 0 0 0 0 0 0 0 0
1128 1064 950 819 552 296 210 74 4 0 0 0 0 0 5 9 2 0 0 0 0 0 1 0 0 0 0 0 0 0 0 0 0 0 0 0 0 0 0 0 0 0 0
859 784 713 669 446 246 127 46 49 2 0 0 1 10 80 141 90 2 0 0 0 0 0 0 0 0 0 0 0 0 0 0 0 0 0 0 0 0 0 0 0 0 2
655 480 345 262 262 63 7 0 0 0 0 0 0 52 114 112 54 4 0 1 0 0 0 0 0 0 0 0 0 0 0 0 0 0 0 0 0 0 0 0 0 0 3
393 210 72 0 0 0 0 0 0 0 0 0 0 61 0 6 0 0 0 0 0 0 0 0 0 0 0 0 0 0 0 0 0 0 0 0 0 0 0 0 0 0 2
357 137 1 2 4 2 0 0 0 0 0 0 0 0 0 0 0 0 0 0 0 0 0 0 0 0 0 0 0 0 0 0 0 0 0 0 0 0 0 0 0 0 0
213 0 0 0 0 0 0 0 0 0 2 0 0 0 0 0 0 0 0 0 0 0 0 0 0 0 0 0 0 0 0 0 0 0 0 0 0 0 0 0 0 0 0
0 0 0 2 8 21 15 0 3 49 33 0 0 0 0 0 0 0 0 0 0 0 0 0 0 0 0 0 0 0 0 0 0 0 0 0 0 0 0 0 0 0 0
0 0 14 34 21 41 41 50 51 50 1 0 0 0 0 0 0 0 0 0 0 0 0 0 0 0 0 0 0 0 0 0 0 0 0 0 0 0 0 0 0 0 0
98 92 62 98 121 102 91 86 59 4 0 0 0 0 0 0 0 0 0 0 0 0 0 0 0 0 0 0 0 0 0 0 0 0 0 0 0 0 0 0 0 0 0
12 32 114 145 115 83 90 29 17 18 1 0 0 0 0 0 0 0 0 0 0 0 0 0 0 0 0 0 0 0 0 0 0 0 0 0 0 0 0 0 0 0 0
21 51 78 80 118 34 54 112 96 44 7 5 1 0 0 0 0 0 0 0 0 0 0 0 0 0 0 0 0 0 0 0 0 0 0 0 0 0 0 0 0 0 0
44 27 12 9 16 45 89 98 57 5 1 0 0 0 0 0 0 0 0 0 0 0 0 0 0 0 0 0 0 0 0 0 0 0 0 0 0 0 0 0 0 0 0
0 3 5 6 0 15 4 13 20 6 0 0 0 0 0 0 0 0 0 0 0 0 0 0 0 0 0 0 0 0 0 0 0 0 0 0 0 0 0 0 0 0 0
0 0 0 0 0 0 0 0 0 0 0 0 0 0 2 6 2 0 0 0 0 0 0 0 0 0 0 0 0 0 0 0 0 0 0 0 0 0 0 0 0 0 0

GFSGL_con_mlcape_012.txt.gz
CAPE
1742 1838 1871 1929 2082 2399 2299 2082 1596 994 576 457 432 92 174 24 22 56 20 0 1 0 0 5 69 116 44 23 35 36 36 20 11 0 0 0 2 42 52 66 32 18 6
1715 1981 1892 1949 1992 2089 2539 2178 1835 1049 380 571 428 216 160 66 21 66 6 0 0 0 0 26 92 73 96 101 85 54 34 8 36 20 0 0 11 8 27 44 40 38 29
1653 1688 1667 1813 2016 2024 2244 2077 1300 750 314 176 114 85 177 134 61 47 62 30 8 0 3 62 89 152 103 49 74 46 34 31 44 39 42 32 6 10 32 57 42 23 18
1519 1818 1892 1921 1919 1978 2160 1873 805 381 24 0 27 33 67 142 97 74 107 86 5 0 42 143 172 216 62 84 43 66 91 65 76 42 63 34 32 28 34 30 30 24 10
1874 1926 2190 2347 2232 1932 1945 1430 639 269 1 0 1 0 1 67 25 136 110 10 6 42 119 192 229 376 231 66 17 27 61 26 82 45 38 22 26 30 43 32 27 19 16
2134 2204 2302 2621 2545 2017 1924 1195 412 129 0 0 0 0 0 0 0 3 3 27 36 129 237 291 309 239 172 21 0 0 0 0 21 31 16 14 19 30 28 39 29 17 5
2299 2349 2453 2666 2560 2030 1934 1178 551 255 6 0 0 0 0 0 0 0 0 6 35 146 310 530 396 216 138 145 95 3 0 0 0 21 31 55 29 13 14 14 9 1 0
2404 2471 2536 2583 2364 1920 1583 1200 860 427 5 0 0 0 0 0 0 0 0 0 68 280 523 593 320 249 308 206 159 71 33 62 63 37 39 35 33 0 0 0 0 3 1
2139 2356 2396 2407 2262 1980 1393 862 704 461 23 0 0 21 7 8 20 32 43 77 134 455 633 303 279 207 154 2 0 17 13 2 1 0 0 0 0 0 0 1 0 6 4
1959 2307 2438 2463 2296 1937 1608 1069 621 269 95 5 44 43 189 126 28 65 44 136 271 205 139 309 72 50 3 0 0 0 0 1 13 0 0 1 0 0 1 3 4 16 32
1941 2318 2591 2620 2315 1807 1509 1101 596 268 160 213 250 311 53 18 45 16 10 95 200 112 245 141 92 0 0 0 0 0 0 0 0 0 0 0 0 4 18 21 7 1 1
2389 2451 2655 2217 1912 1592 1101 708 412 407 596 498 366 467 334 17 22 0 0 10 60 154 169 168 9 0 0 0 0 0 0 0 0 0 2 0 0 1 0 0 0 0 0
2113 2399 1746 1660 1313 1035 682 483 341 340 370 411 396 91 0 15 49 0 0 0 0 110 326 60 2 0 0 0 0 0 0 0 0 0 0 0 0 0 0 0 0 0 0
1651 1288 1156 1001 765 585 398 331 408 381 354 592 232 64 8 16 68 80 0 0 0 12 0 0 0 0 0 0 0 0 0 0 0 0 0 0 0 0 0 0 0 0 7
1423 1364 1144 797 866 720 60 257 419 314 122 334 85 1 0 6 102 200 124 118 137 54 33 6 0 6 13 14 10 2 0 0 0 0 0 0 0 0 0 0 0 3 4
1220 1124 1008 824 812 585 186 5 0 0 0 0 0 7 6 18 13 0 0 0 0 0 0 0 2 10 4 5 9 6 0 0 0 0 0 0 0 0 0 0 0 1 1
820 750 337 366 419 230 65 1 0 0 0 0 0 0 0 0 0 0 0 0 0 0 0 0 1 1 3 2 0 0 0 0 0 0 0 0 0 0 0 0 0 0 1
731 342 355 277 214 159 137 196 43 26 3 0 0 0 0 0 0 0 0 0 0 0 0 0 0 1 0 0 0 0 0 0 0 0 0 0 0 0 0 0 0 0 0
435 140 33 4 0 8 36 55 77 55 194 0 0 0 0 0 0 0 0 0 0 0 0 0 0 0 0 0 0 0 0 0 0 0 0 0 0 0 0 0 0 0 0
5 0 1 13 26 182 283 210 171 221 281 80 0 0 0 0 0 0 0 0 0 0 0 0 0 0 0 0 0 0 0 0 0 0 0 0 0 0 0 0 0 0 0
1 4 13 126 90 88 87 95 110 159 149 126 104 6 0 0 0 0 0 0 0 0 0 0 0 0 0 0 0 0 0 0 0 0 0 0 0 0 0 0 0 0 0
100 56 51 49 63 68 96 124 147 143 131 113 87 0 0 0 8 5 0 0 0 0 0 0 0 0 0 0 0 0 0 0 0 0 0 0 0 0 0 0 0 0 0
60 76 98 143 144 76 83 122 144 157 128 86 57 15 0 0 3 5 2 0 0 0 0 0 0 0 0 0 0 0 0 0 0 0 0 0 0 0 0 0 0 0 0
85 114 154 143 79 60 79 111 119 41 98 27 16 17 18 8 10 4 0 1 0 0 0 0 0 0 0 0 0 0 0 0 0 0 0 0 0 0 0 0 0 0 0
99 84 71 73 52 30 84 50 45 18 15 28 25 27 25 19 11 0 9 4 0 0 0 0 0 0 0 0 0 0 0 0 0 0 0 0 0 0 0 0 0 0 0
10 4 2 0 0 0 2 8 11 18 17 21 23 13 12 22 23 20 18 12 2 2 0 0 0 0 0 0 0 0 0 0 0 0 0 0 0 0 0 0 0 0 0

GFSGL_con_mlcape_015.txt.gz
CAPE
2207 2301 2339 2489 2673 3036 2776 2438 2252 1291 1043 544 870 432 120 301 153 170 136 102 155 95 27 0 0 2 3 9 17 20 10 10 14 5 6 21 40 33 41 65 74 61 44
1857 2324 2425 2487 2525 2477 2893 2813 2685 1899 1351 944 838 520 228 231 102 121 193 89 4 4 1 0 16 11 154 210 21 39 17 10 4 1 0 0 6 9 40 55 30 31 35
1736 1977 2390 2324 2664 2441 2857 2854 2823 2485 1812 922 811 456 295 79 49 64 71 221 92 12 10 26 57 73 142 100 159 56 16 40 57 25 24 14 4 20 23 21 72 57 62
1213 1344 1850 2395 2441 2596 2772 2837 2978 2765 1879 771 841 543 244 50 15 11 4 108 176 115 78 112 110 139 245 243 218 200 160 73 54 40 44 36 25 55 83 38 23 23 26
1310 1446 1717 2295 2554 2596 2549 2874 3013 2613 1891 968 626 448 129 0 0 0 0 73 273 207 40 135 226 228 176 281 242 163 138 64 35 27 26 23 38 61 55 52 27 16 19
2036 1964 2165 2689 2602 2593 2719 2904 2917 2622 1840 1079 629 200 0 0 0 0 0 11 61 117 131 229 373 329 190 134 118 64 7 3 52 64 0 0 23 15 38 16 26 6 3
2429 3054 2730 3306 3302 3338 3148 2999 2818 2581 1614 944 520 267 7 0 0 0 0 15 117 92 153 423 483 325 228 299 243 60 19 9 0 0 13 67 64 76 56 12 2 0 0
3089 2943 3250 3314 3815 3718 3331 3058 2840 2072 1312 1023 546 170 3 14 1 0 0 0 16 12 136 356 418 610 444 188 152 80 164 242 102 34 55 146 64 14 22 4 0 0 0
3146 3236 3346 3503 3504 3660 3321 2851 2461 1651 1306 920 531 103 24 225 0 0 0 0 6 33 112 374 717 481 165 48 35 28 128 136 122 0 7 0 0 0 0 0 0 8 10
2887 3047 3150 3258 3399 3214 2930 2496 2212 1737 1128 634 366 125 40 112 109 0 0 11 16 38 89 134 210 87 54 40 16 34 74 96 37 56 54 4 2 2 1 1 20 30 28
2228 2443 2775 2975 3081 3017 2710 2171 1775 1562 1098 676 376 263 334 442 478 17 0 0 20 66 39 304 194 74 11 0 0 0 0 18 76 0 0 1 45 34 10 43 62 28 12
2295 2540 2884 3111 2900 2671 2320 1986 1551 998 679 511 357 362 608 724 465 11 0 2 68 45 68 272 151 45 0 0 0 0 0 0 0 0 3 15 15 1 0 1 0 0 0
2679 2882 3131 2931 2356 2093 1927 1475 1184 743 577 438 463 642 759 539 538 0 1 0 2 33 137 41 50 0 0 0 0 0 0 0 0 7 20 1 0 0 0 0 1 2 1
3019 2701 2290 1777 1458 1366 1335 1027 786 703 623 659 835 727 505 369 0 75 1 0 0 0 1 7 0 0 0 0 0 0 0 0 5 1 0 0 0 0 0 0 0 0 0
1871 1420 1272 1048 1082 675 265 416 579 223 301 492 540 659 518 351 118 87 16 44 112 95 158 162 15 23 38 18 9 10 2 13 10 1 0 0 0 0 0 0 0 0 0
1683 1472 1287 1132 603 360 185 43 0 0 0 0 0 65 0 0 0 0 0 0 0 0 42 137 91 57 39 29 53 49 21 11 3 0 0 0 0 0 0 0 0 0 0
1711 1571 1221 1130 826 808 661 504 222 0 0 0 0 0 0 0 0 0 0 0 0 0 0 0 0 19 20 22 19 7 7 1 0 0 0 0 0 0 0 0 0 0 0
1184 625 640 702 517 344 252 106 51 2 0 0 0 0 0 0 0 0 0 0 0 0 0 0 3 11 12 17 1 0 0 0 0 0 0 0 0 0 0 0 0 0 0
690 561 532 399 244 71 48 134 19 9 12 0 0 0 0 0 0 0 0 0 0 9 7 0 0 0 0 0 0 0 0 0 0 0 0 0 0 0 0 0 0 0 0
507 160 89 84 11 1 9 6 14 35 90 26 0 0 0 0 0 0 0 0 0 0 0 0 0 0 0 0 0 0 0 0 0 0 0 0 0 0 0 0 0 0 0
98 17 0 37 1 71 114 101 80 91 127 132 59 7 0 0 0 10 2 6 0 0 0 0 0 0 0 0 0 0 0 0 0 0 0 0 0 0 0 0 0 0 0
58 59 0 86 67 60 45 61 95 94 84 95 54 6 0 0 35 6 5 1 8 4 0 0 0 0 0 0 0 0 0 0 0 0 0 0 0 0 0 0 0 0 0
103 76 51 62 68 46 83 129 120 117 119 87 23 4 3 9 12 12 4 3 3 10 1 0 0 0 0 0 0 0 0 0 0 0 0 0 0 0 0 0 0 0 0
100 84 84 102 109 156 111 102 85 43 63 44 9 11 8 3 15 19 6 2 1 7 5 1 0 0 0 0 0 0 0 0 0 0 0 0 0 0 0 0 0 0 0
101 121 84 91 49 73 90 69 74 45 12 7 8 15 15 11 3 7 5 7 2 1 11 2 0 0 0 0 0 0 0 0 0 0 0 0 0 0 0 0 0 0 0
35 23 24 47 54 39 25 29 41 47 26 19 23 11 4 4 1 17 13 5 5 17 10 9 2 0 0 0 0 0 0 0 0 0 0 0 0 0 0 0 0 0 0

GFSGL_con_mlcape_018.txt.gz
CAPE
3227 3127 3196 3213 3225 2564 2948 2154 2190 1416 806 1266 1370 1045 576 405 538 339 121 125 116 143 96 50 8 66 1 0 10 15 5 6 17 3 0 9 16 8 2 4 21 31 35
3119 2886 3159 3296 3313 3326 2610 3105 2601 2120 1818 843 1179 866 625 375 515 291 39 116 111 141 153 84 47 37 85 82 62 38 15 0 13 1 3 5 33 68 55 80 67 49 54
2811 2723 2946 2875 3105 3031 3365 2764 3193 2597 1844 1188 1385 907 523 348 441 171 152 0 18 4 36 39 8 46 111 166 205 112 116 39 66 0 0 0 1 0 0 8 12 56 0
2578 2585 2590 2733 2785 2781 3009 3391 3059 3063 2452 1775 1321 1152 689 498 369 179 205 103 137 79 130 40 48 156 202 253 110 150 157 119 84 57 21 12 19 0 6 0 0 0 10
1917 2241 2452 2662 2795 2826 2850 3177 3243 3298 3078 2438 1448 1386 866 602 447 214 191 134 153 154 183 96 74 296 373 361 323 256 248 124 76 36 65 64 45 33 30 25 15 0 0
1307 1961 2212 2481 2804 2759 3021 2881 3411 3269 3315 2683 1960 1316 1131 669 289 204 154 242 259 199 180 179 106 223 278 190 119 98 60 73 63 7 0 26 44 44 38 36 0 0 0
1411 1812 1940 2229 2630 2907 2921 3110 3063 3323 3368 2870 2082 1445 1204 719 199 50 33 96 359 468 480 248 59 181 312 321 162 78 58 29 5 0 0 7 28 63 40 0 0 0 0
1582 2030 2064 2344 2736 3039 3072 3073 3250 3398 3442 3068 2243 1420 1043 651 109 0 0 2 161 220 140 5 0 42 161 168 63 36 58 47 10 0 27 23 45 48 42 0 0 0 0
2522 2676 2814 3215 3446 3504 3403 3496 3537 3570 3487 2611 1820 1246 928 514 61 0 0 0 0 0 0 0 7 21 169 88 41 78 57 48 106 120 92 67 77 1 0 4 0 0 0
2752 3180 3475 3974 4504 4266 4296 4048 3906 3420 2778 1965 1457 1059 701 445 102 51 0 0 0 0 3 9 37 76 73 152 93 96 102 74 40 90 65 4 4 18 12 26 22 26 12
3248 3977 3864 4016 4088 4368 4416 3817 3052 2426 2048 1646 1223 804 587 389 244 16 0 44 24 77 26 16 108 107 57 83 54 111 77 30 0 12 32 0 0 3 42 77 59 28 16
3691 3783 3851 4003 3908 3913 3673 3003 2425 2139 1712 1305 991 743 534 390 183 35 15 13 145 0 32 119 160 330 124 20 0 1 0 0 0 0 0 0 4 15 1 0 0 0 0
3186 3370 3556 3684 3402 3301 2879 2480 1991 1630 1198 922 681 586 526 739 673 260 40 0 0 5 176 2 1 5 5 0 0 0 0 0 0 0 0 5 0 0 0 0 0 0 0
3431 3632 3267 3018 2699 2330 2117 1869 1485 1192 907 863 801 739 674 774 571 199 7 0 0 0 0 0 1 0 0 0 0 0 0 0 2 5 0 0 0 0 0 0 0 0 0
3062 2649 2311 2076 1924 1162 599 762 1016 577 792 815 777 726 579 438 485 170 77 9 0 2 11 55 2 0 0 5 4 4 3 14 12 21 7 0 0 0 0 0 0 0 0
2203 1830 1539 1175 916 664 474 216 0 17 12 90 145 613 8 116 0 0 0 0 0 5 37 257 203 166 122 139 116 67 42 38 16 11 0 0 0 0 0 0 0 0 0
1308 1475 1207 758 724 552 464 312 86 0 0 0 0 0 0 0 0 0 0 0 0 0 46 102 20 16 28 4 1 7 19 24 0 0 0 0 0 0 0 0 0 0 0
2360 1549 1345 1142 1010 939 702 555 268 2 3 0 0 0 0 0 0 0 0 0 0 0 0 0 0 18 1 0 0 0 0 0 0 0 0 0 0 0 0 0 0 0 0
1028 880 1338 831 765 775 544 356 163 48 10 0 0 0 0 0 0 0 0 0 0 1 9 13 0 0 0 0 0 0 0 0 0 0 0 0 0 0 0 0 0 0 0
583 589 602 464 137 217 164 196 22 60 15 0 0 0 0 0 0 0 0 0 0 0 1 0 0 0 0 0 0 0 0 0 0 0 0 0 0 0 0 0 0 0 0
554 173 43 211 74 27 55 35 27 49 66 22 14 0 0 0 0 0 0 0 0 0 2 0 0 0 0 0 0 0 0 0 0 0 0 0 0 0 0 0 0 0 0
177 159 28 73 54 132 120 92 57 52 97 81 63 2 0 0 0 10 0 3 2 1 2 0 0 0 0 0 0 0 0 0 0 0 0 0 0 0 0 0 0 0 0
79 56 17 45 26 16 39 94 75 60 22 53 11 0 0 0 13 14 10 3 0 0 0 0 0 0 0 0 0 0 0 0 0 0 0 0 0 0 0 0 0 0 0
91 22 16 58 41 76 66 68 25 7 39 35 15 4 4 16 19 17 5 0 0 0 0 0 0 0 0 0 0 0 0 0 0 0 0 0 0 0 0 0 0 0 0
36 37 45 80 59 41 17 48 72 39 19 36 55 39 29 15 5 7 5 7 2 0 1 0 0 0 0 0 0 0 0 0 0 0 0 0 0 0 0 0 0 0 0
21 21 8 9 20 17 40 33 42 46 32 31 36 27 14 13 10 8 9 9 1 6 6 6 0 0 0 0 0 0 0 0 0 0 0 0 0 0 0 0 0 0 0

GFSGL_con_mlcape_021.txt.gz
CAPE
2322 2054 2447 2395 2208 1893 2193 1867 1348 1342 596 803 890 737 487 367 194 294 271 55 124 40 178 38 69 30 29 1 1 0 0 0 0 0 0 0 3 0 0 0 0 0 0
2602 2467 2216 2590 2637 2133 1758 2114 1638 1272 1274 952 882 857 621 292 256 381 276 93 54 245 25 72 29 72 17 0 0 0 3 1 0 0 0 4 9 0 0 0 0 10 0
2797 2776 2678 2428 2690 2443 2006 1910 2282 1652 1458 1212 1093 844 696 495 245 285 265 156 96 159 166 99 3 3 7 16 61 35 124 64 27 5 0 0 2 0 0 1 0 0 5
2912 2832 2714 2691 2585 2623 2766 2165 2158 2690 1906 1386 1106 871 665 497 395 343 299 227 33 113 139 268 129 32 4 91 130 185 70 44 46 47 41 14 3 6 2 0 0 0 0
2702 2843 2639 2697 2802 2840 2830 3046 2445 2472 2578 1915 1351 936 708 447 434 348 272 234 27 0 83 155 60 26 47 157 244 143 124 63 26 25 28 0 0 0 2 0 0 0 0
2507 2611 2701 2574 2731 2708 2819 2813 3142 2618 2717 2370 1746 1327 1006 692 505 421 342 275 151 69 14 108 114 98 108 161 218 36 37 18 10 25 11 0 0 0 8 0 0 0 0
1851 2466 2547 2530 2573 2618 2674 2760 2952 3106 3006 2911 2394 1711 1355 1034 692 462 401 298 238 113 75 138 320 282 95 10 33 48 38 5 6 25 6 0 0 0 46 36 0 0 0
1505 1995 2287 2391 2410 2579 2723 2846 2834 3126 3123 3149 2880 2239 1704 1223 855 484 358 260 202 121 256 494 345 92 8 21 49 37 30 26 29 50 18 0 13 53 63 46 19 10 0
1316 1441 1930 2130 2324 2482 2708 2774 2980 2960 3194 3275 2980 2455 1982 1297 764 422 194 103 41 38 201 223 2 6 0 75 53 12 28 28 82 45 42 91 73 38 89 39 12 11 1
1232 1505 1743 1939 2184 2500 2777 2891 3025 3172 3302 3224 2813 2346 1843 1303 556 264 30 2 0 0 28 8 0 0 0 51 35 9 44 78 74 51 26 31 1 0 0 5 12 9 7
1618 1705 2104 2249 2444 2830 2955 3108 3337 3261 3003 2808 2463 1768 1391 1023 566 284 33 7 3 0 0 0 1 0 11 60 49 43 86 53 12 1 0 0 0 0 0 11 1 0 0
2805 2589 3352 3416 3682 3718 3559 3505 3153 2765 2752 2259 1796 1253 877 665 548 236 103 44 31 1 20 26 59 17 29 72 51 58 9 0 0 0 0 0 0 0 0 0 0 0 0
2925 3490 3884 4090 4221 3878 3705 2960 2348 2621 2067 1625 1389 1111 790 574 447 193 21 0 0 29 23 2 0 12 17 18 17 20 1 0 0 0 0 0 0 0 0 0 0 0 0
3635 3666 3463 3468 3304 3068 2655 2255 2047 1684 1551 1279 1115 889 687 549 475 264 81 1 0 0 0 0 0 0 0 0 0 0 0 0 0 0 9 7 0 0 0 0 0 0 0
3265 3028 2742 2415 2075 1584 850 1038 1399 968 1083 1028 839 714 604 591 545 257 102 8 0 1 0 0 0 0 0 0 0 0 0 0 1 4 19 9 0 0 0 0 0 0 0
2474 1873 1627 1656 1301 984 782 358 0 43 230 498 615 648 217 315 263 53 0 0 0 0 0 0 0 0 0 0 0 0 13 18 19 17 6 0 0 0 0 0 0 0 0
1711 1509 1437 1211 1038 871 690 602 472 0 0 1 15 90 37 0 3 0 0 0 0 0 0 0 81 46 10 7 7 22 31 29 36 2 0 0 0 0 0 0 0 0 0
1457 1293 1188 879 786 732 603 334 43 34 5 0 0 0 0 0 0 0 0 0 0 0 0 0 0 0 0 0 0 0 0 0 0 0 0 0 0 0 0 0 0 0 0
1139 1011 836 690 544 488 457 220 46 1 0 0 0 0 0 0 0 0 0 0 0 0 0 0 0 0 0 0 0 0 0 0 0 0 0 0 0 0 0 0 0 0 0
1204 1275 1072 924 883 761 650 407 2 0 0 0 0 0 0 0 0 0 0 0 0 0 0 0 0 0 0 0 0 0 0 0 0 0 0 0 0 0 0 0 0 0 0
111 131 1014 685 717 543 445 310 120 16 0 0 0 0 0 0 0 0 0 0 0 0 0 0 0 0 0 0 0 0 0 0 0 0 0 0 0 0 0 0 0 0 0
281 66 21 34 42 41 14 8 18 18 12 14 6 0 0 0 0 0 0 0 0 0 0 0 0 0 0 0 0 0 0 0 0 0 0 0 0 0 0 0 0 0 0
35 116 32 26 56 65 83 19 9 38 23 13 0 0 0 0 0 0 0 0 0 0 0 0 0 0 0 0 0 0 0 0 0 0 0 0 0 0 0 0 0 0 0
19 45 46 26 30 4 4 0 0 3 24 22 7 0 0 0 1 0 0 5 0 1 0 0 0 0 0 0 0 0 0 0 0 0 0 0 0 0 0 0 0 0 0
17 21 50 27 0 0 0 11 28 14 16 0 5 4 0 3 0 0 6 0 0 0 0 0 0 0 0 0 0 0 0 0 0 0 0 0 0 0 0 0 0 0 0
9 24 34 11 6 14 14 28 14 14 40 30 12 33 25 5 0 0 0 0 0 0 2 0 0 0 0 0 0 0 0 0 0 0 0 0 0 0 0 0 0 0 0

GFSGL_con_mlcape_024.txt.gz
CAPE
1482 1468 1485 1383 1190 1388 1464 1598 1209 866 615 487 526 405 289 204 83 90 71 148 81 0 72 40 8 1 3 2 2 0 1 2 1 13 0 0 0 0 0 0 0 0 0
1709 1713 1652 1666 1616 1372 1292 1618 1727 1333 671 447 503 585 454 292 183 21 42 129 125 0 0 97 88 14 25 19 4 13 3 0 0 3 19 3 8 7 0 4 2 0 0
1850 1833 2006 2011 1915 1576 1270 1440 1693 1767 1152 861 669 640 583 420 362 195 81 28 77 28 32 17 17 24 17 26 12 9 42 86 43 35 50 20 18 27 9 0 0 0 0
2126 1880 1816 2061 2177 1963 1695 1495 1562 1759 1544 1206 1005 843 659 464 366 428 289 96 109 102 1 80 97 31 10 8 8 43 78 46 37 35 22 23 10 14 10 2 0 0 0
2256 2254 1996 1943 2176 2339 2111 1933 1737 1866 1780 1478 1252 1085 848 623 463 376 357 190 107 159 80 73 132 129 162 57 13 37 27 0 16 18 7 4 0 6 2 1 1 0 0
2345 2325 2348 2296 2225 2255 2370 2325 2083 1849 2097 1723 1484 1311 1031 752 600 491 448 289 177 165 108 38 53 65 120 59 21 74 10 10 46 19 4 1 0 1 0 0 0 0 0
2318 2534 2524 2501 2473 2448 2442 2496 2540 2259 2048 2014 1780 1645 1334 1049 718 541 447 320 286 243 197 23 0 51 135 108 85 13 4 39 49 9 0 0 12 11 0 0 0 0 0
2268 2467 2630 2544 2464 2561 2611 2565 2567 2747 2452 2302 1997 1782 1727 1472 1063 651 517 372 312 310 244 149 0 20 212 141 18 3 15 34 45 24 4 1 11 5 0 26 16 0 0
2050 2274 2486 2508 2431 2517 2497 2517 2591 2733 2821 2699 2577 2184 1952 1764 1432 965 575 426 369 347 320 284 81 97 95 50 8 0 9 45 67 67 61 54 34 28 7 0 5 0 0
1767 1812 2268 2428 2400 2348 2463 2472 2577 2644 2790 2844 2820 2465 2287 2300 1482 1079 856 570 433 316 193 144 92 150 47 0 0 1 25 20 14 35 20 0 1 0 0 0 0 0 0
1540 1732 1896 2350 2335 2332 2396 2541 2575 2621 2745 2813 2687 2359 2207 2105 1495 880 614 496 449 224 56 5 6 3 0 0 0 15 32 42 65 29 1 0 0 0 0 0 0 0 0
1277 1425 1469 1888 2193 2230 2317 2537 2564 2665 2559 2318 2102 1789 1764 1347 941 440 422 326 80 23 0 0 0 0 0 2 8 11 4 9 6 0 0 0 0 0 0 0 0 0 0
1155 1151 1444 1644 1884 2190 2409 2607 2612 2416 2154 1787 1641 1211 1713 1008 670 459 276 127 40 10 10 1 0 0 0 0 6 1 2 0 0 0 0 0 0 0 0 0 0 0 0
1442 1533 2003 2196 2392 2614 2650 2541 2326 2139 1957 1628 1419 1743 1156 813 593 247 81 0 0 0 1 0 0 0 0 0 0 0 0 0 0 0 0 0 0 0 0 0 0 0 0
2411 2708 2975 2755 2555 1851 1049 1299 1525 1119 1427 1433 1401 1034 757 604 356 182 82 25 0 0 0 0 0 0 0 0 0 0 0 0 0 0 0 0 0 0 0 0 0 0 0
2311 2200 1955 1508 1068 613 353 256 2 129 15 762 735 755 337 416 287 249 39 3 1 0 0 0 0 0 0 0 0 0 0 0 0 0 0 0 0 0 0 0 0 0 0
2116 1736 1095 739 834 494 232 201 95 0 1 155 282 279 318 230 133 46 0 0 0 0 0 0 0 0 0 0 0 0 0 0 0 0 0 0 0 0 0 0 0 0 0
1025 1082 703 144 220 41 78 100 245 366 290 38 0 14 0 0 0 0 0 0 0 0 0 0 0 0 0 0 0 0 0 0 0 0 0 0 0 0 0 0 0 0 0
596 561 593 419 364 186 66 43 77 53 13 0 0 0 0 0 0 0 0 0 0 0 0 0 0 0 0 0 0 0 0 0 0 0 0 0 0 0 0 0 0 0 0
658 591 538 462 395 259 211 118 20 9 0 0 0 0 0 0 0 0 0 0 0 0 0 0 0 0 0 0 0 0 0 0 0 0 0 0 0 0 0 0 0 0 0
573 489 339 289 262 222 143 26 0 0 0 0 0 0 0 0 0 0 0 0 0 0 0 0 0 0 0 0 0 0 0 0 0 0 0 0 0 0 0 0 0 0 0
310 695 558 485 346 229 132 9 0 0 0 0 0 0 0 0 0 0 0 0 0 0 0 0 0 0 0 0 0 0 0 0 0 0 0 0 0 0 0 0 0 0 0
13 148 122 142 118 122 188 211 58 27 0 0 0 0 0 0 0 0 0 0 0 0 0 0 0 0 0 0 0 0 0 0 0 0 0 0 0 0 0 0 0 0 0
12 3 0 0 0 2 0 0 34 36 5 0 0 0 0 0 0 0 0 0 0 0 0 0 0 0 0 0 0 0 0 0 0 0 0 0 0 0 0 0 0 0 0
19 15 5 0 2 1 0 2 10 27 22 24 8 0 0 0 0 0 0 0 1 1 0 0 0 0 0 0 0 0 0 0 0 0 0 0 0 0 0 0 0 0 0
60 66 54 23 3 6 6 3 2 0 13 13 3 1 0 0 0 5 1 0 0 0 0 0 0 0 0 0 0 0 0 0 0 0 0 0 0 0 0 0 0 0 0

GFSGL_con_mlcape_030.txt.gz
CAPE
643 647 637 627 677 650 566 610 640 670 745 481 805 920 852 818 493 283 116 54 13 0 0 0 0 0 0 0 0 0 0 0 0 0 0 1 0 4 0 0 0 0 0
638 782 774 704 728 682 617 661 681 714 689 552 654 895 816 808 598 475 325 123 52 0 0 0 0 0 0 0 0 0 0 0 0 0 0 0 4 2 0 0 0 0 0
512 775 866 821 747 731 702 743 744 771 714 621 836 843 877 762 561 521 453 258 113 7 0 0 0 0 0 0 0 0 0 0 0 0 0 2 6 0 0 0 0 0 1
474 637 779 867 831 810 856 854 796 836 760 613 755 870 879 748 574 476 429 375 229 114 28 0 0 0 0 1 0 0 0 0 0 0 2 0 0 7 0 0 0 0 0
538 615 711 795 817 832 897 995 1032 989 901 779 622 905 890 806 653 537 372 363 353 288 197 61 10 5 0 0 0 0 0 0 0 0 2 0 1 0 1 0 0 0 0
620 646 812 937 902 879 871 866 975 1076 1133 943 804 787 967 862 746 573 479 378 335 408 408 226 62 73 28 0 0 1 0 0 1 0 0 0 0 0 0 0 0 2 0
718 780 931 1058 1104 1116 1137 1069 986 1020 1125 1115 1034 854 791 993 745 618 557 509 509 473 501 393 224 101 83 64 2 0 0 1 9 11 19 0 1 17 0 0 0 0 0
858 970 1184 1285 1254 1334 1358 1278 1204 1165 1135 1240 1194 1148 1002 1014 836 766 713 734 696 608 510 466 485 436 234 160 103 6 0 5 15 33 5 4 26 0 0 0 0 0 0
1165 1247 1342 1479 1473 1517 1520 1517 1530 1411 1306 1317 1313 1242 1242 1202 833 806 727 732 700 739 554 452 514 526 341 136 138 23 0 1 5 2 0 0 8 0 1 0 0 0 0
1327 1405 1534 1552 1503 1484 1570 1706 1816 1794 1676 1580 1586 1479 1344 1408 957 753 704 872 831 811 694 573 447 546 220 90 160 1 0 3 12 9 1 17 2 0 0 0 0 0 0
1274 1617 1759 1782 1721 1607 1652 1716 1801 1983 1999 1845 1772 1726 1510 1515 1384 851 657 903 958 1033 1006 869 527 465 278 102 73 1 0 10 1 0 3 0 0 0 0 0 0 0 0
1343 1579 1765 1891 1967 2018 1990 1974 1963 2002 2089 2146 2106 1943 1672 1655 1450 917 866 1137 1095 1269 1158 1020 613 375 156 12 0 6 0 0 0 0 0 0 0 0 0 0 0 0 0
1002 1403 1733 1981 2200 2254 2305 2195 2129 2199 2271 2275 2211 2239 2108 1920 1139 944 684 776 802 977 891 926 489 68 2 0 0 0 0 0 0 0 2 0 0 0 0 0 0 0 0
686 959 1262 1763 2093 2347 2347 2272 2223 2235 1749 2207 2317 2238 2229 1383 893 434 260 164 138 92 201 52 1 0 0 0 0 0 0 0 0 1 0 0 0 0 0 0 0 0 0
999 660 811 1189 1532 2060 2000 1920 2293 2264 2288 2381 2377 2225 1728 870 259 165 15 4 46 3 0 0 0 0 0 0 0 0 0 0 0 0 0 0 0 0 0 0 0 0 0
1066 1047 845 962 1067 1159 1227 978 750 1606 1855 1831 1378 951 376 154 7 0 0 0 25 0 0 0 0 0 0 0 0 0 0 0 0 0 0 0 0 0 0 0 0 0 0
1 835 1114 840 719 792 947 986 935 267 844 691 387 253 29 0 0 0 0 0 0 0 0 0 0 0 0 0 0 0 0 0 0 0 0 0 0 0 0 0 0 0 0
11 61 346 735 747 632 771 856 418 289 133 31 0 0 0 0 0 0 0 0 0 0 0 0 0 0 0 0 0 0 0 0 0 0 0 0 0 0 0 0 0 0 0
0 1 204 389 364 279 193 68 7 3 2 1 0 0 0 0 0 0 0 1 4 1 1 2 0 0 0 0 0 0 0 0 0 0 0 0 0 0 0 0 0 0 0
0 54 54 67 13 12 0 0 0 2 0 0 0 0 3 1 1 0 1 10 4 3 0 0 0 0 0 0 0 0 0 0 0 0 0 0 0 0 0 0 0 0 0
76 39 0 0 0 0 0 0 0 0 0 0 0 0 0 63 4 0 6 0 0 0 0 0 0 0 0 0 0 0 0 0 0 0 0 0 0 0 0 0 0 0 0
56 17 3 1 1 2 0 0 0 0 0 0 0 2 11 5 0 0 0 0 0 0 0 0 0 0 0 0 0 0 0 0 0 0 0 0 0 0 0 0 0 0 0
39 13 30 1 0 1 1 0 0 0 0 4 0 0 0 0 0 0 0 0 0 0 0 0 0 0 0 0 0 0 0 0 0 0 0 0 0 0 0 0 0 0 0
0 17 14 4 13 24 22 17 10 1 0 0 0 0 0 0 7 0 0 0 0 0 0 0 0 0 0 0 0 0 0 0 0 0 0 0 0 0 0 0 0 0 0
0 0 0 11 36 15 10 2 0 0 0 0 9 0 0 0 0 0 0 0 0 0 0 0 0 0 0 0 0 0 0 0 0 0 0 0 0 0 0 0 0 0 0
0 0 0 0 0 0 7 24 21 19 9 2 0 0 0 0 0 0 0 0 0 0 0 0 0 0 0 0 0 0 0 0 0 0 0 0 0 0 0 0 0 0 0

GFSGL_con_mlcape_033.txt.gz
CAPE
700 755 767 796 909 989 1030 1054 1088 1159 1142 1264 1304 1329 1341 1570 1440 1183 924 578 349 220 107 77 53 85 21 0 0 0 0 0 0 0 0 0 0 6 8 37 26 66 59
715 801 802 892 967 998 1031 1075 1162 1129 1193 1341 1367 1437 1444 1546 1368 1276 1152 710 569 410 279 97 40 28 9 21 0 0 0 0 0 21 15 11 0 26 16 36 16 3 31
897 895 968 1002 1080 1118 1179 1227 1234 1224 1271 1317 1403 1368 1356 1516 1435 1241 1353 1028 749 608 425 179 74 53 0 0 0 0 0 0 0 0 0 18 18 20 29 16 11 13 7
909 1003 1067 1121 1187 1247 1350 1321 1249 1295 1299 1287 1338 1386 1337 1382 1468 1319 1337 1247 995 843 630 397 224 153 21 22 22 12 30 7 19 5 0 11 42 69 27 8 3 6 17
896 986 1093 1253 1410 1402 1394 1418 1382 1374 1276 1343 1316 1408 1409 1442 1444 1320 1398 1297 1104 950 784 545 390 294 147 100 64 185 134 50 48 14 18 18 6 15 0 0 0 7 9
804 796 1095 1397 1504 1438 1415 1413 1409 1376 1397 1403 1354 1358 1372 1270 1193 956 1306 1267 1204 1030 892 782 632 273 81 28 0 79 173 45 94 49 8 15 27 51 0 31 15 0 29
781 911 1065 1283 1500 1524 1561 1564 1544 1503 1483 1420 1306 1364 1364 1380 870 736 779 1325 1253 1173 1055 982 905 644 226 219 20 0 0 6 80 251 121 82 76 68 25 27 28 72 99
857 996 1146 1256 1391 1483 1499 1460 1610 1684 1648 1592 1455 1404 1414 1493 967 570 698 1109 1351 1318 1160 1105 1084 853 651 505 501 252 119 123 21 26 288 269 72 115 58 53 73 128 128
944 1042 1124 1089 1175 1452 1486 1501 1587 1596 1675 1765 1835 1698 1533 1577 1023 701 570 977 1323 1311 1238 1159 1180 1011 874 411 482 571 438 429 136 11 41 31 0 0 22 63 55 57 8
1013 1092 1265 1374 1444 1516 1661 1778 1866 1818 1732 1792 1815 1836 1720 1660 1169 712 700 1065 1190 1372 1364 1229 841 1171 847 332 463 682 700 510 152 13 1 0 0 1 0 40 39 0 1
1345 1670 1732 1736 1745 1821 1950 2046 2164 2122 2102 1942 1946 1963 1858 1717 1835 838 653 1248 1395 1301 1328 1266 1235 592 431 298 289 787 794 471 142 139 41 7 1 1 3 3 15 0 0
1435 1690 1908 1936 1935 1999 2137 2225 2260 2321 2418 2326 2248 2168 2213 2104 1499 1011 621 850 1377 1286 1243 1232 961 531 369 140 85 455 240 117 82 0 0 0 0 0 0 0 0 0 0
1394 1624 1870 2154 2275 2293 2212 2093 2142 2365 2488 2512 2478 2221 2046 1942 1919 1264 856 668 777 1178 1196 816 674 359 168 19 29 73 10 70 5 0 0 0 0 0 0 0 0 0 0
1333 1656 2007 2213 2378 2584 2613 2305 2340 2400 2432 2485 2610 2455 2321 2230 1821 762 585 271 175 455 332 238 142 69 0 12 0 0 102 91 8 0 0 0 0 0 0 0 0 0 0
1167 1232 1491 1969 2100 2651 2674 2722 2365 2094 2651 2630 2579 2439 2369 1786 818 489 361 113 1 0 1 2 20 6 40 0 0 0 0 0 0 0 0 0 0 0 0 0 0 0 0
840 828 946 1285 1740 2180 2614 1989 1470 1655 2269 2234 2272 2444 2092 510 49 3 1 0 0 0 0 0 5 19 3 0 0 1 0 0 0 0 0 0 0 0 0 0 0 0 0
214 338 682 843 1223 1260 1355 1448 1597 1341 1040 1387 1695 1360 938 64 15 0 0 0 0 0 0 0 0 0 0 0 0 0 0 0 0 0 0 0 0 0 0 0 0 0 0
30 2 173 421 847 821 782 910 904 1123 1301 469 5 461 203 0 0 0 0 0 0 0 0 0 0 0 1 0 0 0 0 0 0 0 0 0 0 0 0 0 0 0 0
2 20 279 125 125 209 185 204 141 252 422 47 2 1 0 0 0 0 0 1 2 2 1 0 0 0 0 0 0 0 0 0 0 0 0 0 0 0 0 0 0 0 0
103 8 202 7 0 0 0 0 0 0 1 0 0 0 1 0 0 0 2 2 2 2 1 5 0 3 4 0 0 0 0 0 0 0 0 0 0 0 0 0 0 0 0
96 20 1 237 156 16 0 0 0 0 0 0 0 0 6 0 1 3 3 2 3 2 3 15 10 1 0 0 0 0 0 0 0 0 0 0 0 0 0 0 0 0 0
115 67 48 2 0 0 0 2 0 0 1 0 0 0 0 3 3 4 2 4 5 1 5 0 0 0 0 0 0 0 0 0 0 0 0 0 0 0 0 0 0 0 0
338 123 18 17 1 1 3 1 2 3 2 3 3 1 1 4 4 2 0 0 0 0 0 0 0 0 0 0 0 0 0 0 0 0 0 0 0 0 0 0 0 0 0
204 231 47 3 2 7 2 3 2 2 3 4 1 4 3 3 1 0 0 0 0 0 0 0 0 0 0 0 0 0 0 0 0 0 0 0 0 0 0 0 0 0 0
17 13 22 51 24 14 1 0 1 2 0 0 3 3 1 0 0 0 0 0 0 0 0 0 0 0 0 0 0 0 0 0 0 0 0 0 0 0 0 0 0 0 0
0 7 1 0 0 1 1 1 0 1 1 0 0 0 0 7 13 9 0 0 0 0 0 0 0 0 0 0 0 0 0 0 0 0 0 0 0 0 0 0 0 0 0

GFSGL_con_mlcape_036.txt.gz
CAPE
1748 1817 1798 1834 1935 2104 2047 2101 2126 1907 2046 1900 1860 1872 1765 1938 2225 2371 1992 1570 1405 1109 458 147 370 135 17 17 20 1 0 0 0 0 0 36 55 30 0 7 31 31 29
1737 2000 1829 1826 1877 1832 2062 2108 2312 2094 2168 2173 2120 2093 1965 1819 2094 2409 2176 1559 1571 1305 972 525 347 319 259 71 35 21 2 1 0 0 1 2 98 54 146 200 17 17 20
1685 1731 1711 1702 1772 1861 2167 2131 2229 2291 2361 2013 2241 2366 2140 1917 2036 2383 2215 2003 1772 1594 1237 970 631 337 327 29 58 7 44 33 49 0 0 34 0 41 127 180 122 32 14
1338 1562 1751 1885 1826 1937 2137 2232 2312 2383 2396 2261 2358 2520 2374 2134 1945 2022 2214 2042 2044 1821 1629 1259 908 438 388 335 119 188 121 42 56 55 3 0 29 15 38 2 23 118 19
1421 1484 1778 2038 2199 2131 2152 2301 2392 2477 2442 2466 2445 2502 2610 2206 1738 2013 2202 1997 2156 2137 1828 1560 1184 950 481 477 224 293 310 292 50 134 114 24 21 16 25 14 10 18 66
1441 1675 1802 2149 2340 2293 2342 2452 2504 2492 2515 2568 2547 2599 2435 2241 1618 1270 2089 2032 2186 2276 2174 1806 1558 1045 708 412 270 286 445 534 376 90 129 85 117 52 14 19 2 41 26
1371 1783 1944 2254 2419 2514 2564 2592 2576 2545 2573 2565 2556 2614 2509 2521 1696 1114 1189 1837 2118 2350 2412 2051 1794 1506 1066 974 344 126 151 380 360 485 369 210 180 229 148 141 101 51 48
1563 1792 2016 2212 2419 2656 2709 2568 2637 2750 2635 2704 2678 2702 2686 2693 2105 1265 1037 1581 2141 2311 2393 2260 2156 1833 1638 1284 1126 556 217 377 282 204 405 516 545 443 397 224 119 102 120
1592 1753 2068 2174 2217 2433 2764 2794 2722 2628 2693 2727 2653 2899 2847 2721 2089 1543 1172 1479 1554 2248 2464 2345 2359 2232 2044 1132 1246 1243 705 411 265 140 182 163 316 177 305 108 31 31 39
1628 1851 2087 2211 2289 2366 2715 2805 2755 2644 2631 2552 2585 2903 2977 2914 2343 1567 1316 1576 1606 1687 2375 2553 1917 2154 1915 1146 1071 1459 1264 1000 823 447 190 57 41 6 0 8 29 29 32
1683 1770 2107 2348 2479 2534 2773 2787 2675 2598 2396 2652 2785 2884 2984 2965 2953 1647 1187 1655 1795 1909 1758 2016 2156 1415 1210 1010 794 1056 1058 1184 1042 812 346 221 176 107 24 0 38 39 8
1757 1932 2269 2527 2366 2302 2721 2913 2827 2762 2802 2872 2741 2591 2743 2939 2642 1770 1365 1232 1640 1907 2067 1911 2017 1376 877 613 528 644 701 773 781 448 286 142 88 68 51 16 73 22 0
2097 2355 2583 2759 2707 2506 2771 2850 2849 2882 2523 2773 2792 2625 2688 2692 3091 2267 1184 1166 1080 1605 2125 2260 1784 984 682 273 242 243 343 451 345 215 160 142 40 44 35 3 1 0 0
2331 2657 2877 3077 3008 2903 2835 2968 2833 2810 2806 2589 2697 2657 2549 2751 3083 2940 1589 603 420 670 974 1002 672 421 291 105 0 30 141 168 153 157 100 59 47 31 3 0 0 0 0
2668 2739 2847 2809 2852 3120 3028 2881 2859 2820 2658 2808 2759 2916 2576 2779 3014 3011 1718 524 604 413 20 161 103 39 20 4 2 16 97 183 69 94 84 37 15 3 0 0 0 0 0
2300 2165 2109 2145 2529 2676 2822 2995 2332 1999 1627 1591 1535 1714 2552 2198 1961 1835 1215 853 284 7 24 71 11 5 4 5 0 0 12 111 117 114 56 25 8 2 0 1 0 0 5
1498 1763 1942 1378 1448 1674 2161 2438 2618 2168 1755 1413 1398 1665 1916 1500 1321 1100 649 227 16 6 23 3 0 0 0 0 0 0 0 50 82 54 22 3 11 5 0 4 1 2 1
177 4 696 647 1006 1228 1060 1122 1168 1364 1485 1834 230 163 352 617 837 698 273 3 0 0 4 0 0 0 0 0 2 2 1 27 71 26 4 9 6 0 6 0 7 2 0
689 528 252 361 395 322 181 29 28 45 39 2 2 4 9 10 10 9 3 2 3 4 26 26 2 0 2 4 1 2 2 10 26 6 7 2 0 8 5 0 0 0 0
166 30 154 225 264 117 158 29 2 0 0 0 0 0 0 0 0 0 0 0 0 24 32 28 25 22 40 7 1 4 18 0 0 2 0 1 12 0 0 0 0 0 0
305 107 130 395 225 2 7 46 44 1 0 0 0 0 0 0 0 0 0 0 1 1 77 72 63 112 38 32 49 20 6 0 0 0 5 9 0 0 0 0 0 0 0
372 423 209 116 83 12 0 0 1 7 1 3 7 0 0 0 1 0 0 1 2 6 62 104 144 140 96 38 9 4 0 0 0 1 1 0 0 0 0 0 0 0 0
356 347 409 309 98 1 31 9 1 3 3 4 5 7 2 1 2 2 1 2 13 29 54 85 137 106 35 6 1 0 0 0 0 0 0 0 0 0 0 0 0 0 0
426 348 184 39 38 94 21 2 1 2 3 3 2 6 3 1 0 4 0 0 11 15 15 14 2 0 0 0 0 0 0 0 0 0 0 0 0 0 0 0 0 0 0
28 6 27 46 100 104 69 22 20 23 1 2 1 1 2 4 2 2 0 0 0 0 0 0 0 0 0 0 0 0 0 0 0 0 0 0 0 0 0 0 0 0 0
4 3 0 0 0 0 5 36 35 23 26 14 15 34 22 4 3 3 4 0 0 0 0 0 0 0 0 0 0 0 0 0 0 0 0 0 0 0 0 0 0 0 0

GFSGL_con_mlcape_039.txt.gz
CAPE
2914 2882 2839 2950 2870 2989 2545 2556 2454 2440 2719 1924 2258 2016 2344 2446 2433 2487 2103 1882 2183 1720 1202 889 690 331 49 47 39 26 8 0 0 0 0 103 35 22 0 0 14 41 2
2446 2838 2854 2890 2824 2914 2949 2701 2830 2789 2681 2947 2774 2500 2603 2476 2520 2630 2439 1459 2165 2130 1586 975 655 572 420 271 105 124 32 32 7 55 9 201 237 164 129 194 200 0 14
2294 2425 2819 2794 2873 2707 2937 3029 3009 2983 2997 2853 2830 2941 2819 2601 2441 2762 2767 2432 2268 2232 2056 1630 1067 729 894 206 56 101 104 131 155 135 29 80 61 243 186 395 314 162 67
2038 2211 2459 2830 2706 2740 2774 3150 3039 3203 3153 2950 2930 3093 3083 3044 2758 2711 2776 2841 2598 2386 2341 2124 1678 1241 917 1029 552 188 319 276 241 254 96 8 14 92 68 51 167 293 168
1983 2229 2442 2828 3018 2987 2871 2993 3097 3216 3299 3237 3085 3136 3476 3256 2701 2741 2551 2892 2919 2622 2535 2515 2178 1750 1240 1145 725 521 239 406 48 179 270 166 42 42 94 107 95 77 44
1965 2111 2347 2739 3048 3118 3159 3083 3289 3140 3291 3341 3359 3224 3320 3402 2602 2184 2623 2752 3031 2958 2685 2756 2463 1773 1298 798 641 472 545 598 394 221 204 305 546 363 178 100 52 68 42
1752 2388 2334 2673 2984 3256 3366 3389 3302 3399 3440 3371 3415 3426 3342 3471 2691 1957 1826 2544 2781 2890 2895 2867 2781 2130 1587 1352 583 412 258 457 557 739 299 395 610 608 517 306 189 69 57
2239 2088 2591 2623 3059 3265 3438 3506 3592 3599 3517 3551 3558 3550 3543 3566 3122 2092 1656 1974 2413 2797 2858 2899 3078 2574 2073 1755 1651 793 555 405 378 324 669 905 641 739 853 587 270 265 204
2165 2489 2382 2993 3066 3491 3517 3518 3657 3678 3694 3651 3712 3676 3633 3627 3219 2631 1775 1915 2127 2319 2680 2927 3000 3032 2510 1732 1864 1673 1211 772 456 361 281 195 359 431 466 384 141 100 5
2285 2650 2841 2998 3265 3492 3661 3816 3835 3756 3682 3637 3556 3708 3705 3745 3502 2802 2301 2257 2102 2267 2474 2674 2639 2916 2768 1851 1760 1899 1719 1277 804 477 261 72 107 175 186 244 119 32 23
2008 2555 3009 3171 3457 3441 3548 3850 3947 3821 3316 3606 3571 3629 3698 3645 3896 2997 2400 2631 2326 2248 2411 2537 2898 2345 2348 1899 1596 1987 1809 1713 927 644 358 291 216 262 165 131 125 13 30
1756 2385 2659 3142 3191 3094 3595 3805 4051 3885 3700 3596 3656 3620 3727 3770 3506 3264 2436 2363 2562 2347 2361 2371 2604 2456 1926 1613 1484 1769 1673 1480 1109 718 447 367 300 242 254 153 68 40 99
2323 2722 2908 3300 3481 3170 3516 3869 3777 3775 3335 3452 3236 3568 3535 3549 3863 3326 2448 2317 2224 2327 2410 2320 1716 1732 1530 1390 1123 968 1030 1199 965 696 471 322 229 224 172 160 146 178 87
2761 3081 3199 3464 3515 3415 3267 3349 3335 3179 3242 3023 3081 3096 3025 3136 3106 3391 2790 1989 1441 1586 1973 2048 1683 1003 962 1125 352 696 751 714 571 398 265 209 139 173 124 55 42 9 1
3019 3038 3177 3225 3339 3545 3336 3115 3172 3182 2790 3154 3086 2858 2956 3002 3015 2859 2957 3148 2103 1555 1616 1110 605 356 158 265 269 264 310 197 166 66 55 51 83 99 88 38 7 8 0
3033 3072 3032 3003 3368 3322 3471 3407 2542 2490 1703 1492 1304 1978 2487 1850 1634 1648 1839 2339 2210 1045 1010 1115 721 320 552 433 275 152 96 108 64 5 85 46 75 50 44 46 12 0 0
2822 2774 2293 2298 2307 2738 2649 2697 2817 1631 737 863 891 621 488 932 1326 1525 1670 1591 1428 873 1577 1141 635 299 87 86 17 47 53 5 4 8 93 36 42 4 11 9 0 6 12
948 983 1529 1896 2200 2193 2129 2149 2254 2396 2492 2103 306 0 0 0 0 237 523 497 420 762 1179 855 397 105 3 5 18 62 54 25 21 19 3 24 35 25 0 1 3 16 26
1152 740 855 956 952 680 488 414 436 358 134 63 0 0 0 0 0 0 0 30 34 10 3 0 0 0 1 30 20 57 62 25 24 30 30 64 17 6 2 4 16 19 10
163 274 517 697 574 645 332 145 5 2 0 0 0 0 0 0 0 0 4 0 0 0 0 2 0 0 0 1 1 20 19 8 53 49 34 48 58 44 16 16 15 3 0
253 489 545 674 131 126 113 154 36 30 42 15 0 0 0 1 4 3 3 1 0 0 0 0 0 2 10 41 48 43 55 49 56 65 72 78 22 33 8 4 3 1 0
573 278 214 200 151 108 48 39 47 50 11 3 4 2 0 7 8 9 2 3 0 0 0 0 19 34 13 54 58 51 31 23 36 45 10 5 13 6 1 0 0 0 0
99 223 324 265 186 151 183 35 2 1 1 2 2 6 2 8 0 0 0 3 26 38 15 16 33 79 80 38 17 23 23 22 13 10 0 0 2 0 0 0 0 0 0
0 7 36 89 105 101 62 4 0 0 2 2 3 9 4 10 5 0 1 6 2 1 53 6 21 108 80 33 36 29 20 10 1 0 0 0 0 0 0 0 0 0 0
0 0 0 6 19 11 18 0 6 20 11 4 3 0 0 3 2 0 0 0 3 2 23 38 35 37 15 12 11 1 0 0 0 0 0 0 0 0 0 0 0 0 0
0 1 3 0 1 0 0 0 2 1 3 1 1 1 5 4 1 2 9 6 1 7 2 0 0 4 0 0 0 0 0 0 0 0 0 0 0 0 0 0 0 0 0

GFSGL_con_mlcape_042.txt.gz
CAPE
2843 2937 2820 2879 2623 2246 1991 2012 2302 1769 2559 1507 2714 2601 2498 2441 2505 2776 2229 2318 2128 2099 1884 1522 1365 277 19 332 63 48 31 13 0 0 341 149 32 0 0 6 3 15 7
3122 3116 2937 2896 3148 2831 2257 2182 2440 2678 2170 2807 2312 2328 2372 2249 2727 2516 2595 1836 2311 2278 1757 1591 1614 1020 162 298 809 113 66 163 98 61 255 262 191 111 49 187 44 48 177
2963 3271 3253 3132 3148 3180 3005 2509 2557 2466 2946 2383 3055 2790 2372 2583 2547 2883 2645 2401 1496 2661 2486 1810 1285 1308 784 91 367 494 365 387 495 164 231 501 478 618 229 177 318 163 42
2652 3055 3185 3350 3315 3329 3279 3293 2757 2929 2626 2901 2811 2907 3082 2823 2809 2738 2882 2950 2613 1931 2868 2554 1944 1391 988 766 150 90 403 576 268 336 339 137 276 432 448 226 275 396 223
2025 2719 2843 3069 3358 3277 3312 3384 3535 3148 3209 2969 3067 3189 3051 3173 3061 2871 2768 2921 2986 2695 2301 2746 2525 2063 1417 1094 1091 649 256 237 802 334 347 405 255 326 189 143 129 117 188
2373 2410 2692 2857 3014 3339 3236 3251 3326 3601 3443 3537 3347 3111 3240 3253 3157 2819 2819 2883 2996 2928 2761 2575 2721 2421 1977 1427 1145 1125 745 216 91 384 452 312 331 310 420 227 98 95 73
2296 2615 2705 2908 3131 3299 3405 3333 3306 3454 3602 3564 3618 3477 3100 3354 3081 2802 2603 2872 2947 3008 3013 2891 2730 2755 2300 1843 1282 1072 754 605 372 156 126 300 488 573 582 400 290 158 64
2243 2101 2732 3045 3129 3380 3504 3496 3562 3513 3671 3614 3695 3690 3476 3370 3156 2818 2583 2680 2818 2880 3011 3083 2962 2695 2705 2233 1714 1168 939 513 406 579 494 341 434 687 585 596 285 190 155
2042 2501 2232 3021 3039 3381 3612 3606 3660 3753 3702 3882 3780 3771 3736 3650 3311 2968 2632 2613 2622 2671 2953 3029 3036 2969 2784 2260 2061 1565 1076 797 431 304 488 1022 782 474 531 520 339 187 88
1829 1830 2872 2459 3168 3345 3634 3841 3894 3864 3923 3855 3856 3826 3822 3747 3620 3109 2762 2954 2621 2507 2613 2861 2785 2974 2909 2390 2110 1985 1634 1071 823 500 252 220 232 218 327 545 354 177 106
2309 2465 2448 3137 2832 3408 3570 3957 4005 3978 4004 3993 3956 3982 3939 3883 3845 3371 2791 3231 3092 2647 2490 2503 2598 2446 2638 2482 2187 2070 1961 1815 1148 842 444 224 179 159 133 207 274 227 122
624 2458 3051 3250 3277 3252 3739 4026 4128 4146 4054 3981 4018 4030 4118 4061 3944 3758 3017 2903 3337 3181 2819 2498 2372 2390 2199 2139 2114 2325 1806 1860 1704 1080 664 357 205 151 95 94 184 226 140
1835 2443 2819 3407 3691 3380 3700 3937 4165 4234 4163 4100 3966 3995 3983 3904 4146 3669 3285 2897 2903 2991 3242 2979 2243 1935 1973 1985 1896 2073 1802 1897 1763 1167 855 511 272 157 94 189 90 144 98
2524 2960 3324 3393 3738 3850 3589 3925 3950 3964 4177 4115 4077 3950 3711 3893 3936 3627 3344 2671 2573 2598 2822 2833 2654 2182 1730 1405 1168 698 1783 1838 1636 1145 863 647 227 165 115 132 109 92 82
3477 3580 3821 3659 3764 3994 3696 3673 3867 3861 3793 3964 3833 3387 3478 3632 3152 2262 2738 3004 2601 2634 2757 2865 2766 2518 2451 2005 1152 753 883 1376 1255 1044 788 315 266 108 92 44 25 74 53
3558 3578 3526 3369 3626 3636 3995 3343 1083 1590 1546 1375 1291 2161 2094 1404 1170 1384 1752 1884 1853 1569 2217 2644 2764 2639 2162 1473 1049 1019 829 1052 1023 853 420 207 136 51 36 43 22 23 8
3807 3421 3327 3200 3422 3765 3797 3826 3357 571 2 205 218 55 32 55 42 300 472 751 1091 1539 2106 1886 2121 1732 1263 1082 776 717 703 680 693 539 243 104 101 13 49 13 0 5 0
2319 2054 2779 2966 2633 3062 3282 3218 3402 2694 2398 1889 93 0 0 0 0 0 0 10 678 768 1394 1202 1071 970 809 645 506 383 348 532 471 307 84 2 10 36 7 1 0 0 0
1207 1517 1465 1327 1149 1061 1056 1050 1056 1013 902 575 55 0 0 0 0 0 0 0 42 113 162 21 0 6 12 4 1 1 1 1 0 8 6 6 26 6 1 2 0 3 0
865 762 952 842 824 425 380 186 198 95 55 27 2 0 0 0 0 0 0 0 1 0 0 0 0 0 0 0 0 0 0 2 1 0 22 77 9 2 0 1 1 0 0
467 644 593 516 434 481 306 92 43 72 99 138 0 0 0 0 0 0 0 0 1 0 0 0 0 0 0 0 0 0 12 4 0 32 51 83 50 19 21 17 15 0 0
572 639 469 89 144 149 232 288 246 89 14 2 3 0 0 0 2 2 0 0 2 2 4 1 0 0 0 1 14 15 21 10 37 42 43 49 61 27 9 9 13 1 0
218 316 212 97 62 26 1 2 0 0 0 1 1 2 1 6 4 1 3 2 2 6 12 4 0 0 0 6 0 0 1 14 29 35 20 18 11 14 2 0 0 0 0
0 0 2 0 5 18 21 0 0 0 3 6 0 1 6 7 6 0 1 9 8 6 2 8 0 0 0 7 5 0 0 5 1 6 3 4 1 0 0 0 0 0 0
0 0 0 0 0 0 0 0 0 0 0 0 0 0 0 4 5 1 21 21 11 8 0 3 4 0 1 0 1 13 5 2 13 6 1 0 0 0 0 0 0 0 0
0 0 0 0 0 0 0 1 1 0 2 2 0 0 0 0 0 1 0 0 0 8 14 14 7 13 15 8 0 0 0 0 0 0 0 0 0 0 0 0 0 0 0

GFSGL_con_mlcape_045.txt.gz
CAPE
1598 1531 1876 1772 1323 1080 1920 926 513 1222 1622 750 1380 1813 1762 1821 1803 1587 1511 2094 2065 2040 1891 1572 1193 455 20 59 93 14 0 0 0 0 45 22 37 44 6 0 0 60 0
1928 1951 1829 2186 2193 1420 1327 1887 637 1128 1216 1927 1994 1896 2130 1974 1871 1992 1913 2109 1911 1772 2043 1721 1506 1324 669 0 210 50 16 23 0 0 137 234 29 16 7 40 54 17 19
2132 2144 2184 2110 2370 2204 1672 1325 1892 977 1573 1420 1984 2369 2092 2098 2100 2129 1994 1910 1868 2009 1923 1748 1544 1345 902 715 34 410 338 65 169 56 105 153 100 127 106 66 41 56 147
2092 2312 2368 2438 2415 2448 2453 2077 1326 1919 1654 1912 1678 2013 2436 2247 2128 2115 2077 1944 1921 1564 2010 2245 1957 1605 1316 972 608 54 396 505 276 274 89 124 305 437 171 144 139 188 121
2234 2442 2487 2670 2600 2584 2587 2783 2525 1812 2112 2007 2127 2135 2373 2415 2311 2117 2184 2243 2176 1941 1475 1872 2184 2034 1693 1219 906 382 31 347 535 252 232 164 69 171 316 217 149 96 204
1840 2329 2708 2869 2941 2777 2857 2792 2918 2888 2309 2499 2346 2290 2418 2692 2592 2349 2310 2347 2465 2375 2145 1809 2055 2313 2152 1756 1321 913 399 6 6 524 218 166 145 72 180 264 212 126 162
1614 1867 2548 2854 2970 3024 3046 3136 3063 3104 3176 2742 2729 2642 2543 2654 2642 2583 2498 2589 2521 2620 2568 2522 2172 2283 2333 2175 1614 1413 1040 729 179 0 178 190 122 175 158 173 152 61 31
1800 1870 1924 2650 2836 2958 3055 3108 3143 3172 3250 3388 3193 3068 2969 2878 2664 2489 2592 2821 2733 2614 2710 2701 2651 2503 2474 2410 2206 1736 1305 1056 845 404 67 85 240 201 181 221 187 83 31
2320 2355 2283 2449 2694 2915 2946 3093 3170 3184 3182 3255 3455 3396 3315 3224 2928 2621 2536 2738 2858 2801 2802 2877 2909 2858 2728 2389 2480 2161 1758 1439 949 619 498 199 72 324 547 570 286 82 25
2391 2583 2720 2715 2850 2886 3074 3140 3286 3289 3269 3288 3338 3466 3402 3390 3315 2867 2665 2926 2814 2823 2819 2819 2775 3010 2975 2571 2519 2412 2163 1808 1371 734 454 320 376 259 263 222 155 102 67
2046 1995 2348 2555 2767 3011 3081 3354 3430 3471 3480 3506 3489 3511 3622 3569 3562 3184 2815 3109 3100 2994 2846 2725 2678 2492 2519 2609 2515 2655 2389 2105 1566 971 707 467 201 342 369 281 124 85 50
1798 2306 2095 2330 2366 2878 3057 3361 3598 3630 3639 3584 3660 3744 3719 3777 3637 3446 3067 3006 3334 3332 3244 3050 2777 2371 2182 2173 2214 2594 2491 2066 1942 1192 826 639 334 163 98 190 128 133 64
548 1818 2259 2258 2426 2474 2818 3215 3658 3798 3847 3834 3843 3891 3911 3866 3909 3698 3316 3034 3027 3343 3466 3419 3243 2894 2283 1857 1884 1998 2069 2099 2216 1878 1204 977 391 294 42 3 52 76 46
1643 2156 2368 2914 3087 3045 3127 3277 3576 3959 4012 4036 4006 3933 3748 3743 3796 3738 3415 2782 2727 2666 3029 3221 3219 3106 2919 2164 1539 1128 918 1454 1936 2167 1954 1382 671 167 102 44 19 0 16
2396 2940 3102 2763 3315 3482 3120 2852 3717 3837 3937 3969 3923 3752 3675 3680 3308 2181 2620 3254 2824 2370 2288 2375 2815 2913 2824 2642 1841 1582 1169 1012 1220 1536 1658 1570 890 183 58 70 70 6 3
3768 3518 3878 3679 3600 3638 3133 1768 334 1180 1593 2084 2282 3395 1327 988 689 904 962 1309 1392 1324 1445 1846 2077 2456 2849 2847 2647 2536 1557 1263 1075 1087 1264 1569 1093 284 150 2 58 44 2
2894 3737 3435 3470 3446 3633 3817 3378 2307 133 5 8 162 277 214 43 111 183 240 280 318 621 1594 1977 2030 2091 2364 2434 2340 2086 1777 1263 813 628 918 1076 1048 631 122 79 2 2 11
1903 1934 2697 3295 3104 3609 3466 3742 2536 1736 1604 364 0 0 0 0 0 0 0 0 186 78 417 753 974 951 1037 1097 915 833 753 561 461 353 53 6 12 1 1 2 4 23 94
1603 1554 1529 1703 1815 1837 1791 2030 2204 1678 938 273 0 0 0 0 0 0 0 0 0 0 0 5 0 0 5 7 3 3 20 12 0 1 0 0 0 0 0 0 41 60 11
1060 777 772 886 816 660 636 578 441 266 43 1 0 0 0 0 0 0 0 0 0 0 0 0 0 0 0 0 0 0 0 0 0 0 0 0 0 0 0 0 10 21 0
825 662 747 711 309 96 0 0 8 33 25 0 0 0 0 0 0 0 0 0 0 0 0 0 0 0 0 0 1 0 14 13 29 10 17 2 1 1 2 0 0 0 0
470 640 408 148 139 108 19 0 0 0 0 0 0 0 0 0 0 0 0 0 0 0 0 0 0 0 0 0 0 2 4 3 4 14 19 8 1 0 0 0 0 0 0
177 177 73 0 0 0 0 0 0 0 0 0 0 1 2 3 3 0 0 0 0 0 2 0 0 0 0 0 0 0 1 1 0 7 17 15 8 0 0 0 0 0 0
0 0 0 0 0 0 0 0 0 0 0 0 0 0 0 0 0 0 0 0 3 5 0 0 0 0 0 0 0 0 0 1 0 1 12 17 4 0 0 8 1 0 0
0 0 0 0 0 0 0 0 0 0 0 0 0 0 0 0 0 0 0 0 0 0 0 0 0 0 0 0 0 0 0 0 7 14 19 19 16 17 0 0 0 0 0
0 0 0 0 0 0 0 0 1 1 3 4 4 3 3 3 1 0 0 0 0 0 0 0 0 0 0 0 1 0 1 0 4 5 1 0 0 0 0 0 0 0 0

GFSGL_con_mlcape_048.txt.gz
CAPE
661 863 794 640 537 1274 1075 474 354 535 590 734 979 1175 1386 1490 1526 1414 1117 1327 1609 1651 1609 1483 1100 343 44 75 68 20 0 0 0 0 3 16 20 25 9 17 0 0 0
838 936 1085 1060 832 566 1118 1344 810 469 406 834 1023 1267 1486 1604 1624 1555 1256 1280 1443 1695 1817 1736 1608 1362 832 78 34 80 29 0 0 0 0 68 23 30 22 1 0 0 0
1013 1062 1121 1293 1277 1040 681 985 1393 1011 712 606 1275 1547 1312 1426 1732 1672 1483 1374 1329 1448 1804 1769 1739 1679 1431 1013 191 26 63 45 0 0 0 12 48 28 37 7 0 0 0
1285 1321 1228 1386 1642 1594 1384 968 1030 1302 889 757 835 1434 1849 1931 1739 1721 1700 1595 1559 1528 1613 1681 1675 1682 1636 1452 1032 433 31 78 194 52 4 30 44 61 22 17 13 13 8
1563 1620 1592 1530 1597 1930 1887 1670 1334 1143 1329 1137 766 1361 1800 1932 2153 2016 1851 1683 1743 1736 1573 1677 1765 1720 1767 1650 1507 1221 610 289 35 260 138 23 51 54 49 7 0 3 29
1638 1707 1766 1874 1819 1800 1959 2018 1869 1638 1219 1345 1370 1386 1432 1867 2089 2025 2152 2018 1928 1926 1714 1521 1543 1709 1654 1653 1577 1604 1261 1038 542 55 196 228 93 54 97 80 34 6 34
1580 1675 1927 1976 2101 2086 2132 2185 2277 2157 2037 1407 1474 1591 1491 1777 1956 2009 2069 2224 2194 2109 2013 1922 1806 1753 1790 1723 1349 1354 1509 1268 1100 492 172 69 101 102 24 47 61 38 38
1252 1764 1961 2303 2291 2434 2478 2419 2400 2521 2569 2403 2031 1998 2062 1947 1894 1909 2023 2269 2274 2255 2327 2305 2260 2210 2012 1935 1930 1614 1392 1407 1154 790 382 249 51 45 33 31 15 31 19
1234 1278 1908 2180 2480 2582 2715 2780 2724 2818 2801 2845 2898 2703 2448 2546 2328 2058 1953 2244 2419 2537 2476 2430 2529 2548 2470 2091 2167 2139 1971 1643 1284 1141 1066 770 289 44 35 32 51 29 16
1390 1455 1497 1854 2375 2537 2693 2749 2928 2945 2957 2992 3014 3145 3120 2933 2730 2417 2211 2457 2469 2519 2674 2733 2500 2583 2586 2319 2333 2356 2353 2229 1880 1605 940 725 599 353 97 69 76 36 19
1983 1761 1745 1726 1861 2274 2532 2715 2780 2930 2981 2968 2980 2993 3079 3192 3163 2658 2455 2860 2824 2788 2728 2689 2741 2547 2337 2339 2312 2656 2619 2520 2304 1960 1659 1187 733 621 280 124 167 56 3
2119 2164 2364 2396 2257 2382 2501 2585 2779 2853 2998 3030 3037 3109 3105 3114 3113 2801 2661 2683 3064 3131 3093 3013 2920 2652 2294 2143 1990 2284 2466 2341 2518 2510 2076 1659 1218 614 390 294 212 119 4
769 942 2195 2463 2594 2741 2733 2720 2831 3022 3114 3189 3248 3252 3284 3322 3352 3159 2905 2767 2803 3159 3375 3364 3203 3011 2693 2275 1967 1986 1855 1913 2197 2452 2497 2379 1444 1203 580 191 213 239 119
2150 1449 1757 1790 2149 2489 2721 2782 2887 3044 3155 3286 3382 3431 3436 3495 3602 3596 3096 2647 2549 2529 2757 3209 3243 3077 2882 2863 2403 1877 1424 1348 1669 1935 2057 2241 2263 1479 800 155 81 135 101
2823 3107 2307 1880 1988 2170 1985 2110 2910 3071 3076 3213 3439 3570 3601 3614 3519 3406 3391 3155 2906 2783 2700 2451 2772 2918 3053 3039 2898 2271 1759 1520 1468 1362 1531 1667 1648 1581 1199 304 28 19 55
1893 2691 3169 3406 3154 2779 1849 1270 119 673 1538 2862 3510 3661 2363 2290 2345 2017 1892 1819 1894 1856 1964 2409 2551 2369 2392 2422 2522 2567 2068 1786 1547 1202 1056 966 1046 1209 1168 855 96 3 2
917 1972 1974 2887 3710 3446 2457 2297 2240 310 83 535 1307 1966 1687 1332 863 1083 919 582 562 777 1587 1573 1622 1569 1645 1789 2001 2217 2287 1866 1206 598 665 661 511 630 572 562 500 55 31
1034 1462 1722 2288 2926 3442 3453 2441 1569 1634 1593 675 0 33 51 33 59 61 56 110 484 258 358 471 480 435 589 713 668 549 442 294 214 146 22 0 0 0 0 0 0 0 0
1226 1229 1333 1573 1930 2650 3054 2886 1909 1339 756 212 0 0 0 0 0 0 0 0 0 0 0 0 0 0 0 0 0 0 0 0 0 1 0 0 0 0 0 0 0 0 0
1189 874 994 1231 1299 1529 1757 2227 1945 1184 413 20 0 0 0 0 0 0 0 0 0 0 0 0 0 0 0 0 0 0 0 0 0 0 0 0 0 0 0 0 0 0 0
964 739 660 548 656 695 797 767 646 321 17 0 0 0 0 0 0 0 0 0 0 0 0 0 0 0 0 0 0 0 0 0 0 0 0 0 0 1 0 0 0 0 0
973 434 557 339 68 22 14 16 1 0 0 0 0 0 0 0 0 0 0 0 0 0 0 0 0 0 0 0 0 1 0 1 4 1 1 0 0 0 0 0 0 1 0
725 452 150 72 0 0 0 0 0 0 0 0 0 0 0 0 0 0 0 0 0 0 0 0 0 0 0 0 0 0 0 0 0 1 2 0 0 0 0 0 0 0 0
88 5 0 0 0 0 0 0 0 0 0 0 0 0 0 0 0 0 0 0 0 0 0 0 0 0 0 0 0 0 0 0 0 0 0 0 0 0 0 0 0 0 0
0 0 0 0 2 2 1 0 0 1 1 1 1 4 1 0 0 0 0 0 0 0 0 0 0 0 0 0 0 0 0 0 0 0 0 0 1 0 1 3 1 1 0
3 2 4 3 2 3 2 3 4 2 1 1 2 2 1 1 1 1 1 0 0 0 0 0 0 0 0 0 0 0 0 0 0 0 9 22 19 26 30 19 7 4 0

GFSGL_con_mlcape_051.txt.gz
CAPE
317 260 259 311 311 332 300 235 196 100 95 218 294 425 746 817 1074 1304 1386 1261 1060 1280 1382 1132 914 690 447 181 21 34 8 0 0 0 0 4 11 6 3 0 0 0 0
327 352 365 433 500 539 435 334 261 269 303 167 295 530 655 1008 1102 1221 1275 1372 1235 1091 1286 1477 1377 1241 1094 619 116 24 30 11 0 0 0 0 0 0 0 0 0 0 0
288 481 553 479 403 454 810 862 490 359 345 458 486 753 941 1031 1207 1310 1309 1320 1351 1214 1206 1279 1401 1511 1309 1338 1124 448 26 6 5 4 3 0 0 0 0 0 0 0 0
468 467 610 713 680 527 456 664 922 778 604 549 595 499 677 1130 1201 1235 1267 1348 1473 1433 1332 1338 1368 1479 1519 1465 1421 1286 948 275 0 1 5 4 0 0 0 4 2 0 0
634 681 655 795 928 982 873 624 599 898 881 722 782 859 935 884 1341 1528 1433 1385 1433 1431 1397 1378 1456 1427 1430 1468 1345 1180 1035 1016 801 245 6 0 31 56 47 13 0 0 0
822 784 811 853 1008 1151 1167 1106 929 783 981 979 631 657 819 1124 1117 1212 1557 1738 1633 1558 1466 1426 1463 1551 1551 1433 1423 1531 1418 1064 967 828 797 476 176 4 35 22 6 0 0
1057 1044 1089 1138 1126 1260 1469 1557 1429 1194 1107 1066 1176 1007 809 1016 1152 1153 1366 1728 1759 1811 1792 1710 1642 1628 1618 1639 1315 1226 1174 1279 1414 1274 885 750 575 400 73 15 24 8 3
1325 1374 1470 1513 1533 1521 1573 1717 1803 1771 1569 1405 1197 1260 1304 1240 1199 1102 1308 1606 1810 1908 1889 1866 1892 1892 1817 1719 1781 1722 1433 1268 952 926 1186 1291 867 625 165 54 23 11 7
1258 1503 1663 1737 1722 1893 1879 1813 1926 2023 2083 1999 1871 1563 1418 1546 1325 1280 1293 1582 1739 1949 2077 2063 2130 2106 2096 1862 1915 2021 2006 1957 1399 1154 1054 1108 1045 847 338 30 57 9 6
1151 1450 1680 1788 1900 1949 2049 2083 2141 2306 2262 2377 2435 2472 2269 2097 1924 1654 1429 1758 1837 1963 2128 2231 2130 2213 2239 2089 2123 2186 2329 2264 2099 1981 1618 1232 891 857 453 140 117 99 14
988 1103 1327 1767 1879 2166 2253 2355 2436 2496 2556 2632 2664 2695 2822 2768 2678 2121 1918 2245 2290 2356 2375 2414 2441 2333 2176 2130 2108 2469 2444 2438 2417 2318 2294 2079 1749 1226 1063 781 379 208 235
1380 1253 1279 1346 1738 2053 2234 2398 2556 2673 2735 2773 2799 2842 2891 2954 2906 2578 2245 2250 2695 2799 2863 2842 2788 2596 2339 2218 1994 2027 2162 2198 2350 2451 2591 2665 2545 2132 1557 822 646 341 176
1620 1959 1951 1742 1686 1655 2028 2236 2448 2615 2648 2697 2766 2779 2822 2851 2906 2745 2478 2382 2352 2818 3065 3209 3144 2959 2612 2168 1847 1842 1624 1705 1902 2199 2399 2516 2506 2473 2506 1723 668 241 113
2392 2095 1810 1938 2243 2377 2238 2235 2315 2507 2639 2679 2734 2781 2865 2940 3059 3065 2525 2274 2281 2296 2433 2925 2993 2818 2794 2857 2575 2200 1732 1649 1908 2222 2425 2370 2128 2074 2144 1826 1151 551 333
1951 2393 2607 2795 2219 1989 1952 2075 2651 2723 2674 2837 2842 2899 2899 2926 3044 3183 3307 3062 2723 2516 2505 2267 2491 2670 2889 2935 2824 2589 2143 1805 1747 1710 1522 1432 1377 1264 1292 1355 1090 722 389
406 611 1734 2127 2937 2651 1908 1008 15 432 1050 1680 2391 3153 2717 2588 3011 3083 3049 3069 2882 2348 2502 2912 2890 2701 2723 2631 2453 2180 2028 1779 1663 1496 1242 966 675 575 618 638 515 385 316
549 713 976 1763 2087 2767 2388 2130 1878 258 177 822 1705 2656 2965 2996 2204 2147 1820 1559 1538 1617 2480 2313 2118 1824 1706 1575 1538 1572 1602 1402 906 794 537 387 267 21 0 0 0 1 0
922 977 1011 1418 1662 2315 2637 2413 1900 1903 2150 1720 370 878 958 1225 1177 897 791 935 1375 1018 1245 1358 1259 963 776 509 259 75 72 1 0 0 0 0 0 0 0 0 0 0 0
590 938 817 1062 1277 1623 2498 2184 1882 1543 1286 989 382 90 0 0 7 11 13 620 712 408 102 11 0 0 0 0 0 0 0 0 0 0 1 1 0 0 0 0 0 0 0
403 810 794 830 1116 1387 1777 1988 1865 1356 996 792 420 73 0 0 0 0 0 0 0 0 0 0 0 0 0 0 0 0 0 0 0 0 0 0 0 0 0 0 0 0 0
350 500 607 594 672 960 1283 1557 1495 1066 766 193 0 0 0 0 0 0 0 0 0 0 0 0 0 0 0 0 0 0 0 0 0 0 0 0 0 1 0 1 0 1 1
183 395 547 403 341 392 588 744 724 500 43 0 0 0 0 0 0 0 0 0 0 0 0 0 0 0 0 0 0 0 0 0 0 0 0 0 0 0 0 3 0 0 0
25 267 446 255 107 44 62 11 0 0 0 0 0 0 0 0 0 0 0 1 2 0 0 0 0 0 0 0 0 0 0 0 0 1 0 0 1 0 0 0 0 0 0
57 134 208 118 4 0 0 0 0 0 0 0 0 1 0 0 0 0 0 0 0 0 0 0 0 0 0 0 0 0 0 0 0 0 0 0 0 0 0 0 0 0 0
0 0 1 1 1 1 2 1 1 1 1 1 3 1 0 0 0 0 0 0 0 0 0 0 0 0 0 0 0 0 0 0 0 0 0 0 0 0 0 0 0 0 0
5 5 5 5 4 5 5 5 5 5 5 5 5 4 2 1 2 3 3 3 1 0 0 0 0 0 0 0 0 0 0 0 0 0 0 0 3 4 2 6 0 0 3

GFSGL_con_mlcape_054.txt.gz
CAPE
31 56 61 81 38 23 0 5 3 0 0 10 181 256 312 387 528 725 944 1328 1223 1045 937 1007 1023 877 550 392 153 26 0 0 0 0 0 0 0 6 20 21 1 0 0
91 104 131 144 120 59 50 49 20 17 0 0 128 218 285 360 497 659 771 1198 1367 1353 1205 1066 1120 1283 1102 1014 896 619 95 0 0 16 0 0 0 0 0 6 23 0 0
202 211 217 212 192 112 117 133 111 119 108 18 34 171 205 366 549 663 944 999 1198 1349 1427 1285 1143 1122 1193 1232 1188 1077 948 525 57 0 0 0 0 0 6 1 0 1 0
188 301 305 304 273 232 246 255 169 170 236 242 150 177 272 284 605 812 967 1099 1249 1285 1347 1449 1446 1271 1230 1260 1140 1193 1181 1025 851 782 481 106 4 0 2 33 23 0 4
172 331 383 360 337 317 395 517 594 322 261 261 277 283 324 499 568 871 1166 1105 1110 1153 1181 1330 1539 1544 1365 1324 1382 1165 1118 903 880 630 639 575 519 360 155 27 1 5 27
256 305 381 450 431 397 337 351 496 722 673 562 443 445 407 460 495 483 597 906 1320 1329 1123 1202 1369 1420 1401 1305 1246 1355 1480 1263 1077 939 747 766 756 641 474 268 130 113 108
459 409 403 470 614 645 667 630 485 449 646 714 715 664 620 599 583 529 603 811 891 1190 1381 1522 1572 1558 1453 1557 1359 1194 1218 1311 1529 1658 1390 1281 1212 1056 789 610 229 156 217
581 600 647 663 675 808 944 931 915 834 660 672 801 888 793 725 625 510 514 826 983 972 1020 1219 1456 1622 1698 1682 1727 1711 1581 1520 1257 1235 1467 1690 1682 1535 1156 888 685 281 78
761 812 850 881 886 947 1043 1148 1215 1251 1183 1062 1042 1038 1070 1098 781 658 621 903 1135 1212 1447 1514 1572 1540 1673 1505 1673 1723 1777 1901 1628 1226 1133 1285 1268 1192 1081 1173 849 227 249
957 1051 1145 1152 1189 1214 1184 1242 1425 1546 1544 1618 1560 1548 1320 1345 1235 972 840 1116 1153 1285 1514 1712 1658 1813 1821 1640 1829 1999 2084 2132 2169 2138 1923 1420 1079 1074 804 577 871 1010 596
1046 1289 1402 1476 1465 1506 1565 1668 1715 1784 1899 1995 2041 2089 2044 1794 1806 1389 1126 1471 1627 1737 1790 1903 2009 1874 1719 1691 1654 2166 2284 2448 2500 2348 2369 2371 2291 2071 1835 1422 934 826 1037
908 1191 1353 1492 1698 1774 1792 1922 2054 2076 2130 2197 2255 2324 2417 2521 2281 2078 1684 1521 1946 2102 2249 2266 2311 2212 2047 1926 1630 1772 1946 1842 2114 2330 2503 2606 2634 2658 2621 2330 1558 1008 843
902 1043 1147 1457 1670 1871 1926 2011 2167 2323 2402 2443 2520 2531 2622 2664 2748 2371 2187 1964 1834 2224 2514 2664 2686 2595 2402 2024 1789 1690 1522 1484 1701 1890 2249 2456 2472 2514 2456 2396 2310 1651 837
1564 1456 1314 1265 1345 1636 1949 2095 2238 2383 2497 2600 2586 2600 2627 2619 2653 2665 2331 2083 1795 1806 1808 2370 2501 2455 2441 2575 2405 2037 1707 1713 1940 2224 2391 2099 1973 1781 1741 1584 1343 1116 772
2381 2477 2387 2046 1977 1978 1742 1700 2134 2287 2338 2540 2542 2558 2602 2567 2605 2692 2705 2558 2512 2573 2503 2266 2354 2400 2562 2695 2678 2505 2359 2009 1776 1589 1533 1544 1364 1156 966 759 649 433 124
546 840 1586 1956 2721 2209 1592 1189 162 500 875 1150 1450 2136 2695 2443 2637 2622 2643 2738 2750 2395 2500 2817 2737 2480 2629 2674 2676 2529 2113 1688 1545 1250 1288 1110 824 589 411 64 0 0 0
585 633 726 1031 1588 2142 2047 1757 1627 340 82 666 1295 1786 2066 2807 2546 2632 2609 2437 2282 2175 3071 2796 2624 2538 2426 2009 1695 1607 1559 1173 859 641 465 257 141 20 0 0 0 0 0
493 704 741 963 1266 1635 1985 2326 2251 2268 2131 1661 172 768 1211 1841 1910 1760 1625 1737 2036 1520 2172 2308 2005 1488 1288 1175 847 496 177 32 2 0 0 0 0 0 0 0 0 0 0
341 480 702 806 1100 1282 1654 1866 1903 1995 1983 1521 537 189 98 452 509 320 189 1303 1644 1540 1147 965 518 340 174 23 0 0 0 0 0 0 0 1 0 0 0 0 0 0 0
44 370 523 692 734 1095 1373 1631 1638 1616 1370 941 665 316 21 173 593 534 192 103 69 48 4 0 0 0 0 0 0 0 0 0 0 0 0 0 0 0 0 0 0 0 1
0 178 384 570 493 580 780 1150 1154 1043 1019 678 281 0 0 0 0 0 0 0 0 0 0 0 0 0 0 0 0 0 0 1 1 1 1 0 0 0 1 1 0 0 0
0 0 167 316 341 356 507 656 774 644 539 263 0 0 0 0 0 0 0 0 0 0 0 1 0 1 2 2 4 4 2 1 1 1 1 0 1 1 1 3 0 0 0
0 0 0 167 307 195 222 199 229 176 118 0 0 0 0 0 0 0 0 0 0 0 0 0 0 0 0 0 0 0 1 1 1 0 1 1 0 0 0 0 0 0 0
0 0 4 54 131 192 91 2 1 5 4 1 0 1 0 0 1 1 0 0 0 0 0 0 0 0 0 0 0 0 0 0 0 0 0 0 1 0 0 0 0 0 0
1 0 0 0 0 2 2 1 3 0 0 1 2 4 4 2 2 1 0 1 0 0 0 0 0 0 0 0 0 0 0 0 0 0 0 0 1 0 0 0 0 0 0
5 4 3 4 3 3 3 3 5 5 5 5 6 6 6 3 5 1 2 3 5 5 5 2 1 0 0 0 0 0 0 0 0 0 0 0 0 1 1 1 0 1 0

GFSGL_con_mlcape_057.txt.gz
CAPE
136 138 183 266 326 339 293 307 279 243 271 240 225 460 827 1061 1252 1424 1405 1668 1887 1963 1893 1637 1417 1580 1541 1431 936 716 445 240 182 220 390 288 347 424 404 423 387 380 336
202 159 142 266 326 344 315 360 394 301 315 340 378 454 724 883 1055 1194 1069 1228 1533 1772 2067 2076 1757 1722 1816 1911 1657 1397 1086 904 495 292 406 492 447 517 611 534 485 311 271
261 206 200 248 327 361 422 444 463 408 370 374 402 368 376 698 954 1130 1059 1260 1524 1641 1997 2201 2142 2162 1922 1756 1931 1689 1631 1591 1252 894 799 737 629 452 469 463 390 431 400
298 311 345 358 357 451 527 541 565 524 430 467 486 499 489 621 860 1150 1254 1246 1370 1685 1918 2124 2217 2251 2256 2179 2139 2168 2076 1781 1618 1567 1278 1193 1222 1200 811 472 445 504 425
425 464 493 511 539 600 703 694 697 672 577 622 614 603 667 736 624 789 1024 1283 1498 1625 1826 1995 2138 2067 1894 2071 2225 2225 2179 2044 1755 1354 1286 1118 1025 984 938 851 753 678 609
546 613 662 687 698 737 777 821 820 691 633 755 755 759 797 826 452 359 705 1121 1610 1743 1601 1814 1865 1602 1367 1166 1243 1488 1933 2268 2144 2008 1785 1765 1971 1779 1681 1588 1427 1299 1271
572 639 778 841 815 826 875 953 1015 932 956 834 826 839 888 1003 585 269 184 662 1014 1240 1492 1762 1916 1877 1777 1897 1839 1241 1164 1178 1410 1886 2141 2313 2363 2408 2290 2175 2040 1851 1739
567 586 787 900 894 931 949 947 946 1086 1172 1253 1227 1250 1146 1141 796 424 248 470 858 1171 1354 1448 1516 1595 2022 1935 1906 2194 2412 2441 2030 1540 1618 1902 2330 2579 2638 2611 2561 2329 1940
644 686 773 925 1001 1107 1093 1091 1075 1037 1018 1064 1309 1458 1331 1301 902 559 450 850 1020 1161 1440 1612 1701 1630 1739 1514 1551 1480 1826 2210 2188 2014 1851 1713 1572 1450 1407 1672 1639 1639 1565
875 898 984 976 1002 1121 1234 1299 1396 1403 1357 1394 1317 1439 1468 1424 1274 638 470 1017 1205 1286 1616 1800 1541 1630 1793 1566 1632 1772 1981 2349 2678 2864 3029 2208 1553 1663 1253 1002 1343 1462 1455
1258 1256 1269 1271 1295 1327 1414 1587 1754 1799 1857 1986 1936 1957 1867 1715 1740 1126 694 1199 1454 1678 1758 1782 1960 1684 1491 1365 1369 2080 2417 2709 2953 3027 3030 2994 2862 2872 2827 2801 1476 1496 1643
1464 1429 1480 1458 1438 1655 1701 1825 1897 2033 2096 2188 2286 2430 2486 2491 1989 1668 1109 1019 1742 2035 2314 2498 2622 2214 1847 1668 1407 1539 1771 1851 2162 2494 2645 2545 2652 2736 2979 2930 2737 2049 1353
1372 1461 1576 1770 1842 1974 2106 2179 2226 2340 2327 2491 2591 2621 2722 2847 2979 2205 1653 1294 1318 1818 2388 2707 2616 2450 2183 1801 1657 1659 1410 1526 1830 2037 2225 2403 2433 2710 2379 2262 1996 1907 1786
1336 1566 1819 1987 2119 2294 2429 2459 2500 2608 2632 2692 2872 2933 2980 3065 3136 3223 2616 1864 1247 1189 1406 1989 2299 2237 2271 2484 2293 1793 1646 1859 2033 2356 2513 2275 2048 1946 1765 1538 1237 1188 1146
1597 1565 1666 1851 1999 2392 2435 2463 2604 2741 2765 2954 2960 3105 3173 3222 3257 3192 3230 3110 2754 2505 2267 2434 2448 2526 2692 2707 2519 2298 2248 1946 1917 1791 1792 1794 1750 1515 1326 962 827 457 55
1721 2076 1963 2586 1997 2146 2246 1342 490 751 893 1363 1906 2490 3185 2841 2808 2584 2466 2489 2547 2350 2519 2876 2903 2931 2954 2673 2491 2622 2546 2300 2090 1934 1880 1648 1414 1026 748 371 84 5 1
669 453 381 901 2212 2439 1880 1975 1869 711 356 638 927 1262 1580 2371 2253 2237 2256 2088 1728 1698 2789 3005 3127 3056 2836 2637 2550 2398 2256 2137 1749 1497 1432 1102 658 338 177 1 3 2 2
389 108 163 0 1044 2276 2196 2282 2328 2543 2418 2112 319 498 861 1471 1508 1789 1814 1787 2300 1502 2564 3010 2793 2482 2141 1924 1708 1498 1449 1204 861 655 515 190 53 57 1 4 9 4 4
3 541 1051 1268 1567 1857 2246 2304 2443 2681 2771 2513 1244 530 44 225 689 993 1157 2734 2950 2536 2029 1690 1230 986 824 632 618 480 268 157 5 0 0 0 2 4 5 6 5 0 0
0 1 183 922 1239 1661 2086 1906 1826 2013 2164 2091 1862 1568 397 544 1667 1696 1497 1366 1308 1237 925 729 299 59 18 13 1 0 0 0 0 1 1 0 1 8 8 8 6 6 2
0 0 0 526 942 944 1225 1534 1447 1347 1595 1660 1512 601 185 738 671 534 487 326 148 6 0 0 0 0 0 1 0 1 0 0 1 2 1 3 9 5 4 11 10 7 10
0 0 0 43 665 782 773 1183 1124 997 962 962 465 0 0 0 1 0 0 0 0 0 0 2 0 0 0 1 2 2 2 4 2 2 2 4 11 8 8 10 12 11 8
0 0 0 0 130 553 633 892 1011 865 715 573 97 0 0 0 1 2 1 1 0 0 0 0 2 0 0 0 0 0 0 0 0 0 1 4 5 3 1 4 11 10 5
1 2 2 0 73 326 513 660 357 76 192 70 1 0 0 0 1 1 1 0 0 0 0 0 0 0 0 0 0 0 0 0 0 0 0 5 3 1 2 1 8 7 7
4 3 0 0 1 2 2 3 4 3 3 5 2 2 1 2 2 2 1 3 0 0 0 0 0 0 0 0 0 0 0 0 0 0 0 0 10 12 3 6 6 1 2
7 7 7 6 5 9 9 9 8 7 7 7 5 5 5 4 4 2 2 1 2 0 0 0 0 0 0 0 0 0 0 0 0 0 0 0 22 34 37 35 22 7 1

GFSGL_con_mlcape_060.txt.gz
CAPE
658 770 726 716 772 993 853 1016 1165 1025 866 1125 734 653 653 1240 1587 1894 1793 1526 2145 2350 2113 1768 1900 2046 1501 1000 889 687 552 463 376 247 277 490 1163 1351 1158 1065 1005 943 704
730 978 846 894 844 740 984 1021 1192 1279 1164 1254 1136 967 615 820 1320 1826 1782 1272 1663 1902 2088 2076 2113 1809 2043 1979 1452 1198 700 740 674 767 675 618 655 854 1015 1182 1220 762 479
696 706 714 805 820 819 986 1115 1254 1355 1423 1266 1244 1241 1048 828 1234 1624 1755 1637 1540 1610 1835 2047 2176 2313 2362 2002 1860 1464 1380 1716 1807 1716 1478 1188 1058 1178 1296 1510 1459 1113 976
595 636 767 850 833 845 1106 1294 1282 1464 1561 1487 1302 1329 1293 1017 753 1119 1375 1621 1527 1552 1875 2052 2303 2441 2616 2839 2847 2639 2495 2286 1570 1488 1232 1097 976 877 867 954 1074 1032 781
937 736 903 1145 1078 1071 1244 1412 1441 1524 1586 1650 1518 1384 1426 1230 681 779 1001 1121 1455 1642 1760 2151 2303 2459 2592 2767 2592 2610 2647 2391 1782 1418 1187 1043 971 973 1060 1000 1364 1497 1527
1213 1124 1159 1416 1356 1367 1444 1580 1675 1636 1633 1703 1594 1492 1454 1295 689 362 644 737 972 1467 1760 2016 2213 2260 2381 2113 1849 1580 1684 2583 2975 2322 1661 1507 2180 2225 2021 2073 1954 1963 2190
1417 1397 1423 1626 1723 1671 1632 1709 1719 1671 1757 1818 1743 1617 1670 1725 1060 536 336 503 567 1049 1616 1819 1751 1349 1809 2119 1912 1734 1594 1369 1308 1771 2262 2471 2541 2969 3125 3311 2700 2864 2857
1634 1625 1661 1780 1812 1942 1983 1965 1946 1884 1902 1880 1805 1840 1875 1898 1465 985 512 780 941 1127 1376 1570 1930 1752 1705 1637 1908 2065 2214 2409 2482 2119 2003 2147 2306 2489 2806 3038 3163 3049 2903
1678 1739 1800 1931 1883 1910 2003 2060 2054 2033 2060 2028 1943 1989 1989 2015 1432 1063 830 1048 1116 1447 1498 1677 1782 2052 1977 1683 1717 1634 1809 1938 1503 1586 1800 1907 1958 2013 2010 2258 2163 2406 2460
1646 1752 1916 2021 2045 2011 2085 2116 2153 2068 2091 2051 2076 2216 2273 2419 2156 1272 1004 1337 1248 1269 1667 2112 1723 1635 1810 1690 1857 1715 1876 1859 1971 2373 2928 2983 2407 2476 2183 1995 2492 2649 2669
1483 1462 1756 1936 2114 2120 2242 2257 2254 2123 1999 2122 2061 2165 2263 2290 2403 1720 1136 1566 1333 1296 1334 1163 1386 1351 1430 1231 1086 1881 2107 2287 2718 3128 3451 3761 3716 3594 3415 3429 3371 3271 2741
1583 1566 1911 1958 1849 1957 2406 2458 2414 2440 2471 2593 2518 2478 2273 2478 2122 1877 1357 1275 1624 1658 1613 1618 2134 2131 1747 1580 1439 1614 1642 1706 2241 2662 3038 3192 3226 3176 3264 3274 3307 2944 2358
1855 2014 2087 2147 2121 2098 2349 2580 2544 2659 2495 2576 2622 2661 2590 2657 3002 2344 1615 1321 1289 1604 2215 2627 2566 2440 2227 1995 1814 1844 1692 1989 2548 2849 2878 2947 2752 2832 2870 2610 2288 1947 1782
2169 2274 2327 2439 2429 2245 2522 2654 2574 2558 2592 2569 2731 2799 2855 2961 3142 3436 2866 1796 1322 1257 1439 2065 2467 2499 2551 2806 2830 2488 2318 2583 2789 2530 2539 2676 2888 2495 2215 2029 1830 1799 1585
2293 2430 2564 2634 2498 2720 2688 2579 2777 2748 2607 2849 2833 3011 3098 3224 3350 3528 3691 3813 3148 2384 2369 2610 2767 2771 2796 2874 3018 3321 3480 3441 2686 2515 2339 2244 2116 2006 2215 1768 1315 1325 611
2142 2166 2266 2388 2755 2760 2834 2593 1081 1158 1235 1656 2132 2445 3417 3100 3123 3154 3220 3220 2920 2782 2750 3142 3333 2968 2930 3260 3630 3431 3287 2920 2581 2218 2108 2304 2427 2189 1880 1567 906 490 331
1993 2365 2601 2867 2503 2731 2870 2982 2564 1462 1288 1110 1269 1895 2328 2150 2547 2549 2351 1947 1693 2296 3072 3544 3554 3734 3797 3749 3329 3304 3138 2894 2537 2388 2607 2257 1948 1606 1063 722 376 310 196
298 339 368 905 1312 744 914 1361 2199 2643 2434 2349 633 1075 1026 1275 1613 1877 1742 1844 2291 1787 2737 3125 3409 3540 3242 2961 3039 2892 2541 2201 1918 1905 2041 1691 1089 758 559 325 242 202 201
418 396 849 1161 1358 933 393 139 283 245 845 1892 2833 433 49 203 612 846 1059 3077 3666 3477 2820 2877 2602 2343 2154 2078 1866 1675 1537 1615 1796 1656 963 677 453 313 275 161 152 7 0
0 0 177 1057 230 561 1686 1668 1738 1567 1855 2107 2752 2947 934 1051 1658 1582 1412 2010 2843 3561 3071 2393 1842 1501 1574 1070 922 886 926 710 405 227 146 86 95 107 117 141 121 95 0
0 0 0 581 897 1180 1793 1689 2009 2110 2136 2344 2770 2034 1050 2549 2515 1853 1601 1809 1950 1826 1696 1446 1221 764 461 534 601 510 330 220 122 81 61 11 16 39 49 38 2 1 3
0 0 2 148 665 690 509 493 924 1493 1887 2439 2433 587 392 1233 1714 1462 1023 491 5 0 1 37 94 46 1 14 57 36 42 16 22 29 9 6 5 4 1 6 3 3 1
0 0 0 0 49 293 624 427 530 748 879 1178 1208 699 521 671 306 124 8 0 0 0 0 0 0 0 0 0 0 0 1 6 5 11 6 3 7 2 1 4 4 3 1
3 1 0 0 25 72 229 288 529 485 475 766 687 661 437 132 1 0 0 0 0 0 0 0 0 0 0 0 0 0 0 0 0 0 2 4 6 5 3 3 7 2 2
1 3 7 8 3 1 0 0 0 1 1 0 0 0 0 0 1 0 0 0 0 0 0 0 0 0 0 0 0 0 0 0 0 0 0 0 5 12 2 7 8 5 5
4 6 8 10 10 10 10 15 15 12 6 6 2 2 1 1 0 1 0 0 0 0 0 0 0 0 0 0 0 0 0 0 0 0 0 0 3 21 37 29 18 7 13

GFSGL_con_mlcape_063.txt.gz
CAPE
1449 1490 1223 1303 931 953 1475 1510 1411 1296 1446 1234 1194 1079 1062 1223 1284 1979 1798 1731 2105 1969 1977 1482 1753 1729 1537 880 719 626 558 499 434 409 319 421 1178 1645 1607 1611 1427 1411 1163
1267 1461 1339 1505 1041 1015 1210 1358 1719 1814 1754 1723 1708 1489 1301 916 1305 2055 1820 1398 1835 1818 2058 2014 1762 1637 2098 2164 1817 1590 930 924 778 906 871 971 1248 1465 1458 1724 1569 1565 1314
1232 1200 1357 1402 1459 1051 1513 1454 1653 1940 2082 1684 1802 2018 1680 1139 1275 1973 2235 2001 1767 1852 1802 1952 2124 2135 2344 1964 2118 1347 1170 1611 1736 1778 1829 1774 1621 1462 1510 1741 1936 2053 2021
815 898 1103 1409 1424 1237 1392 1674 1725 2003 2181 2122 2164 2147 1985 1651 1261 1271 1756 2113 2082 1729 1823 1878 2087 2302 2549 2888 2673 2804 2587 2320 1769 1703 1581 1508 1487 1486 1328 1239 1338 1398 1538
926 853 1104 1516 1493 1475 1298 1709 1833 2103 2239 2393 2425 2322 2244 1799 1393 1278 1480 1796 2080 1912 1846 1934 2002 2227 2122 2723 2600 2607 2529 2567 2188 1961 1746 1636 1464 1298 1610 1838 1568 2041 2248
1168 956 1007 1504 1648 1606 1523 1715 2006 2147 2310 2502 2449 2520 2330 1657 1116 843 1048 1184 1465 1704 2005 2216 2163 2198 2075 1963 2147 2308 2305 2523 3033 2198 1714 1529 1732 1967 2049 2129 2606 2572 2905
1496 1321 1257 1526 1699 1740 1729 1852 2059 2272 2497 2650 2614 2639 2628 2410 1240 829 517 778 1229 1498 1708 2196 2204 1369 1923 2574 2395 2216 2105 1819 1576 1682 1905 2153 2277 2608 2946 3230 2595 2704 3056
1578 2096 1615 1860 2048 2093 2097 2104 2281 2467 2455 2601 2692 2732 2804 2710 1994 1088 698 842 878 1061 1614 1914 2079 1849 2039 2432 2686 2500 2517 2746 2704 2300 2197 2372 2682 2838 2918 2951 3082 2898 3157
2308 1892 2247 2122 2264 2441 2397 2468 2582 2683 2710 2639 2877 2902 2916 2774 1931 1397 1049 1198 1255 1512 1676 1551 1795 2271 2612 2154 1689 1492 1726 2115 1795 1314 1242 1446 1796 1980 1874 1921 2248 2744 3188
2420 2348 2373 2377 2613 2749 2766 2736 2830 2958 2885 2474 2639 2990 3039 3081 2668 1619 1271 1629 1503 1560 1921 2156 1990 1881 1925 1892 2197 2355 2333 2496 2535 2218 2365 2541 2257 2556 2505 2432 2955 3137 3107
2315 2446 2717 2655 2766 2969 3051 3123 3151 3093 2489 2920 2817 2895 2940 2777 3102 2112 1353 1913 1623 1525 1546 1286 1540 1555 1459 1289 1213 1883 2258 2726 2493 2391 2846 3316 3620 3983 4170 3921 3631 3430 3236
2175 2345 2643 2878 2676 2768 3092 3242 3279 3235 3044 3231 2993 3160 2750 3255 2798 2303 1828 1744 2041 1851 1548 887 1048 912 899 1102 1140 1313 1432 1488 1956 2415 2827 3079 3274 3338 3219 3815 3703 3526 3408
2274 2407 2579 2816 2970 2748 3088 3284 3102 3119 2657 2664 2762 2475 2284 2175 2660 2176 1613 1655 1760 2003 1923 1518 1303 1563 1819 1483 1346 1614 1679 2195 2544 2963 3243 3398 3289 3256 3593 3470 3321 3008 2430
2468 2693 2688 2784 2895 2834 2863 3021 2810 2610 2740 2540 2550 2528 2196 1829 1549 2255 2154 1405 1335 1539 1744 1811 1983 2241 2286 2825 3107 2350 2449 2933 3163 3375 3426 3167 3159 3359 3285 2967 2475 2296 2354
2592 2608 2721 2621 2619 2784 2745 2713 2613 2478 2283 2262 1762 1659 1597 2018 2268 2662 3005 3199 2530 2177 2286 2311 2274 2446 2764 3041 3263 3426 3387 3607 3616 3500 3153 3271 3207 2591 2373 2443 2312 2342 2183
2419 2580 2561 2565 2704 2618 2691 2325 1186 1676 1342 1396 1346 1841 2539 1875 2141 2088 2698 3040 3168 2879 2532 2868 3032 3196 3301 3379 3310 3256 3428 3623 3822 3754 3481 2892 2585 2766 2830 2337 2056 2262 1222
2493 2678 2732 2559 2737 2884 2790 2885 2748 1362 965 1371 1484 1584 1894 1719 1977 2079 1735 2066 2589 2823 3512 3496 3282 3213 3766 3499 3264 3373 3566 3552 3645 3439 3165 2879 2932 2762 2322 1955 1788 1072 748
872 1486 2483 2690 3021 2943 3136 3122 3027 2832 2661 2537 1389 1189 1071 1216 1481 1534 1740 1903 2519 2607 3272 3358 3335 3539 3551 3684 3990 3586 3414 3316 3321 3200 2976 2776 2732 2332 1955 1479 1045 705 649
78 306 588 1106 1996 2847 2689 2280 2435 2954 2637 2061 667 286 337 532 640 618 902 2380 2912 3287 3239 3251 3337 3618 3622 3787 3354 3090 3258 3126 2829 2468 2309 2515 2415 2013 1237 765 563 218 282
0 5 203 1066 1182 810 477 426 737 1132 1010 699 359 385 45 566 291 505 1393 1811 2584 3474 3580 3590 3428 3358 3080 2506 2326 2513 2304 1828 1529 1584 1670 1327 796 500 374 420 382 385 546
0 0 0 189 574 231 162 171 1143 983 1311 1181 632 827 1844 2087 2705 2806 1884 2016 2427 2552 2554 2764 2386 1950 1694 1564 1462 1419 1399 1332 1128 838 626 464 321 242 219 290 299 367 335
0 0 0 0 85 1037 1239 1077 203 137 737 1630 2203 789 1137 1762 1876 2715 2363 1876 1288 900 899 1319 1376 915 469 432 402 564 585 521 405 349 342 292 150 120 147 134 138 88 43
0 0 0 0 0 1 539 518 540 845 856 903 1642 1684 954 1219 733 792 750 469 223 80 77 206 304 43 0 0 0 0 0 4 7 13 18 8 4 15 14 9 11 8 3
0 0 0 0 0 0 0 13 285 36 126 101 319 664 704 388 104 7 0 0 0 0 0 0 0 0 0 0 0 0 0 0 0 0 0 1 6 5 3 3 3 26 7
1 1 4 1 0 0 0 0 0 0 0 0 0 0 0 0 0 0 0 0 0 0 0 0 0 0 0 0 0 0 0 0 0 0 0 0 0 0 6 12 9 15 11
4 5 7 7 10 11 13 11 9 11 13 12 3 0 0 0 0 0 0 0 0 0 0 0 0 0 0 0 0 0 0 0 0 0 0 0 0 2 5 0 4 11 27

GFSGL_con_mlcape_066.txt.gz
CAPE
1649 1363 1278 1056 591 376 650 220 1090 812 1787 870 1504 1498 1908 1545 2027 1901 1423 1844 1768 1494 1813 1982 1379 1262 1217 1750 1276 741 561 720 669 643 828 1061 1225 1400 1349 1297 1437 1422 1350
1849 1634 1470 1650 1116 804 192 1173 1671 1944 1273 2216 1404 1799 1434 1720 1824 1776 1863 1478 1861 1488 1372 1496 2198 2261 1609 1324 1436 1765 1941 1899 1443 1170 1258 1084 850 1460 1720 1862 2016 1805 1581
1879 1821 1687 1567 1637 1245 654 839 1608 1352 1730 1632 2321 1756 1926 1684 1523 1628 2046 2138 1747 2332 2392 2467 1893 2099 1995 2350 2084 1785 1365 1404 1466 1374 1745 2202 2298 2143 1820 1809 2080 2052 1911
1671 1749 1770 1743 1663 1444 1361 632 1427 1989 1688 1858 1837 2231 2147 2035 1717 1540 2388 2352 2300 1995 2447 1994 2195 2358 2454 2464 2353 2082 2207 2418 2140 1945 1711 1770 1963 1993 2073 2137 2072 1939 1921
1134 1446 1704 1816 1717 1741 1381 1504 1218 1325 1845 2191 2178 2285 2377 2349 2130 1571 1495 2190 2334 2435 2264 2111 2238 2309 2283 2674 2786 2968 2855 2770 2817 2760 2695 2485 2219 1813 1662 1934 2201 2763 2833
899 1251 1460 1652 1752 1765 1687 1598 1753 1691 1937 2216 2388 2348 2480 2475 1974 1395 1485 1443 2134 2190 2094 2058 2346 2040 1747 1571 1689 2078 2332 2377 2521 2862 2798 2310 2097 2109 2517 2372 2023 1915 1961
1062 1195 1288 1603 1652 1739 1876 1555 1839 1854 1956 2229 2397 2555 2579 2556 1943 1099 1065 1418 1380 1638 2175 2160 2196 2145 1935 2120 1876 1592 1632 1720 1818 2003 2032 1969 1758 1591 1831 2281 2422 2550 2644
1234 1491 1378 1490 1599 1854 1754 1859 1559 1953 1980 2223 2398 2585 2676 2799 2402 1453 819 1051 1275 1482 1654 1716 1856 2105 1729 1958 2466 2568 2446 2371 2301 2028 1933 2094 2292 2542 2616 2459 2576 2848 2972
1984 1450 1790 1399 1770 1878 1986 1925 1899 1909 2227 2252 2459 2646 2569 2710 2547 2040 1217 921 1045 1079 1106 1230 1934 2312 1996 1466 970 1074 1793 2281 2410 2274 2435 2406 2137 2143 2406 2499 2199 1845 2265
1672 2090 2000 1689 1807 1996 2061 2091 2108 2145 2194 2461 2494 2689 2844 2718 2612 2070 1668 1652 1289 1292 1492 1580 1467 1216 1103 1536 2330 2418 2215 2058 2267 2377 2465 2422 2275 2362 2070 1833 2556 2948 3173
2134 1859 2278 2570 1947 2326 2417 2457 2451 2437 2548 2667 2695 2752 3007 2981 3058 2301 1518 2023 1677 1714 1652 1711 1993 1804 1478 1277 1225 1563 1591 1808 2265 2674 2757 2527 2664 3310 3395 3696 3581 3541 3467
2687 2300 2563 2324 2822 2582 2788 2940 2844 2930 2895 2882 2960 2958 2930 3236 3022 2590 2117 1627 2016 1922 1807 1976 1968 1596 1436 1337 1123 1124 1224 1324 1779 1882 1951 2244 2661 3053 3183 3697 3893 3716 3540
1736 2647 2512 3079 2753 2837 3062 3175 3270 3164 3131 3034 3027 3079 3080 3173 3361 2707 2083 1936 1803 2018 2062 2064 1539 1334 944 555 542 724 818 1118 1468 1947 2554 2899 3260 3497 3812 3676 3722 3308 2979
1354 3021 2708 3098 3134 3002 2978 3231 3328 3247 3253 3197 2978 3179 3133 3051 3097 3393 2389 1822 1672 1789 1983 2220 2018 1741 1673 2164 2507 1631 1498 2072 2641 3067 3234 3480 3648 3695 3342 3501 3226 2838 2622
2897 3020 2924 3012 3025 3203 2823 3244 3292 3246 3223 3214 3050 2765 3080 2924 2611 2538 2816 2195 1916 1805 2013 2083 2177 2101 1767 2023 2726 3216 3135 3067 3131 3171 3327 3344 3445 3537 3285 2933 2594 2638 2469
3120 3092 3045 2838 2978 3001 3007 2670 1623 2405 2234 2627 2514 2831 1534 1208 948 1171 936 2099 1930 1775 1897 2401 2530 2496 2538 2469 2619 3128 3518 3709 3598 3837 4140 4050 3670 3170 2914 2882 2891 2499 2171
1684 2100 2734 2556 2803 2838 2926 2869 2480 1016 458 631 1102 1533 2248 1689 1593 1555 1831 1768 1857 2017 2760 2480 2927 3195 3274 3362 3720 3723 3552 3403 3446 3362 3439 3335 2920 2700 2971 2788 2460 2275 2093
120 691 1564 1918 2571 2979 2890 2800 2777 2188 1945 1549 499 920 1067 1144 1328 1630 1715 2135 2148 2128 2686 3341 3631 3653 3547 3655 3774 3760 3571 3316 3360 3404 3352 3175 3152 3107 2630 2420 2243 1854 1487
4 97 403 829 1431 2320 2953 2702 3107 2924 2681 2667 1028 338 97 266 408 624 784 1858 2545 2292 2028 2304 1763 3103 3552 3254 3106 3455 3397 3327 3495 3142 3003 2816 2379 2418 2275 1988 1233 742 482
0 0 0 181 821 707 793 1626 2105 2258 1517 1600 1002 481 86 162 212 127 80 34 253 1890 2590 1501 2953 3217 3031 2918 3112 3085 2820 2875 2565 2286 1982 1802 1867 1003 557 492 429 513 471
0 0 0 16 103 270 332 206 351 612 375 272 221 695 2 28 165 492 718 695 779 1543 2098 2714 2790 2740 2764 2476 2574 2303 2269 1866 1701 1616 1380 743 571 434 343 283 223 295 345
0 0 0 0 0 0 9 114 226 89 62 286 284 347 652 895 1961 2180 1899 1621 1260 918 704 1349 1597 1349 976 970 760 972 981 745 586 405 339 359 325 269 177 178 206 207 154
0 0 0 0 0 0 0 0 0 0 5 0 112 423 749 131 66 151 171 38 0 0 0 0 0 0 0 0 0 0 0 0 0 0 8 12 10 12 27 30 33 10 1
0 0 2 0 0 0 0 8 8 0 0 0 0 3 0 2 0 0 0 0 0 0 0 0 0 0 0 0 0 0 0 0 0 0 0 0 0 2 1 4 5 5 7
2 1 0 4 1 0 4 11 12 10 1 4 0 0 0 0 0 0 0 0 0 0 0 0 0 0 0 0 0 0 0 0 0 0 0 0 0 0 1 6 12 13 30
4 6 6 9 9 10 4 4 12 10 12 13 5 2 0 0 0 0 0 0 0 0 0 0 0 0 0 0 0 0 0 0 0 0 0 0 0 0 0 0 0 0 0

GFSGL_con_mlcape_069.txt.gz
CAPE
380 510 37 0 431 274 185 116 598 597 776 1024 1398 1464 1910 1885 1390 1390 1206 1226 1273 1072 989 1228 1637 1196 389 701 1450 1297 753 516 394 366 603 982 944 808 666 949 1034 1094 1008
573 622 643 28 78 310 252 21 195 492 622 1616 1455 1465 1404 1247 1542 1870 1495 1199 1528 1454 1156 1307 1595 1717 1120 1092 1055 1180 1392 1661 1381 992 877 645 862 1624 1608 1606 1673 1956 1837
946 603 889 767 30 141 66 120 5 338 432 623 1438 1461 1499 1463 1267 1250 1571 1437 1217 1526 1497 1320 1149 1668 1800 1747 1423 1329 1210 1443 1826 2102 1977 1957 2082 1641 1565 1705 1844 1882 1995
1111 1160 861 911 873 141 66 1 390 229 1059 772 946 1567 1268 1214 1177 1276 1433 1482 1379 1434 1826 1994 1935 2159 1746 1746 1932 1964 1795 1588 1568 1690 1652 1670 2009 2103 2072 1974 1589 1734 1977
1465 1424 1305 1108 1058 1139 555 320 3 853 524 1272 1340 1310 1744 1482 1425 1259 1202 1386 1423 1634 1473 1508 2044 2014 1817 2051 2190 2216 2240 2096 2063 2178 2385 2562 2713 2383 2040 1566 1448 1663 1333
1445 1681 1575 1397 1270 1206 1214 976 401 129 1484 892 858 1310 1436 1787 1730 1493 1253 1185 1947 1998 1791 1774 1836 1977 1936 1863 1861 2105 2561 2598 2597 2687 2604 2313 1885 1621 1307 1206 1453 1527 1729
1014 1548 1615 1582 1496 1349 1327 1131 1072 579 448 1525 1626 1441 1336 1557 1716 1697 1574 1281 949 1292 1828 1889 1824 1793 1852 2002 1882 1630 1385 1342 1564 1741 1666 1592 1582 1476 1655 1887 1953 1793 1932
982 1193 1492 1559 1522 1489 1429 1375 1194 1206 902 732 972 1507 1745 1744 1784 1712 1596 1384 1302 1127 1265 1750 1882 1833 1728 1647 1743 1834 1680 1508 1394 1349 1446 1735 1906 2046 2135 2022 1865 2202 2537
873 1135 1290 1466 1501 1533 1382 1436 1419 1398 1505 1250 1482 1708 1825 1948 1851 1754 1480 1035 1078 1238 1220 1181 1277 1377 1474 1572 1519 1486 1852 2454 2874 2592 2472 2368 2001 1735 1872 2002 2205 2389 2346
719 1444 1276 1293 1467 1364 1496 1415 1587 1399 1313 1664 1511 1715 1939 1955 1979 1809 1622 1574 1017 906 1004 1172 1281 1429 1469 1476 1568 1497 1385 1145 1127 1111 1422 1525 1620 1843 2083 1805 2072 2248 2360
972 1610 1480 1367 1381 1416 1433 1542 1476 1585 1458 1351 1690 1713 1945 2124 2202 1833 1630 2052 1615 1141 983 964 1079 935 717 646 724 1022 1225 1409 1698 1970 1997 2290 2536 2370 2272 2250 2173 2567 2962
624 1779 1936 1777 1482 1650 1527 1665 1679 1644 1658 1625 1594 1854 1934 2122 2132 2110 1763 1507 2031 1749 1313 1223 1091 1074 1035 974 824 843 970 964 1228 1471 1652 1687 1693 1733 2263 2526 2883 3379 3488
291 1267 1969 2224 1878 1752 1840 1772 1859 1880 1849 1818 1911 1924 2049 2240 2461 2250 1968 1715 1649 2012 1868 1550 1458 1486 1305 1057 1016 1077 891 872 1084 1205 1316 1385 1599 2230 2624 3033 3526 3438 3020
252 1182 2128 2218 2531 2063 2298 2112 2143 2136 2177 2118 2149 2228 2329 2361 2527 2719 2184 1752 1686 1511 1923 1747 1373 1388 1353 1481 1517 1016 470 719 938 1120 1361 1762 2489 2879 3273 3424 3171 2875 2554
14 911 2373 2359 2609 2651 2619 2644 2452 2545 2508 2467 2435 2434 2348 2573 2556 2637 2748 2326 2139 1792 1859 1754 1647 1754 1854 1765 1733 1758 1427 1546 1600 1845 2359 2766 2845 3000 3177 3056 2859 2530 2427
3 774 2192 2665 2928 2919 2693 2117 1229 1970 2581 2554 2526 2599 2350 2055 2602 2528 2308 2484 2267 1880 1455 1928 1876 1921 1944 1911 1728 1562 1916 1990 2218 2522 2839 2982 3291 3376 3138 2672 2475 2426 2295
4 4 640 2392 2941 2967 2949 2762 2259 1059 770 1343 1978 2514 2290 2200 1355 1446 1839 1516 1507 1455 1959 1885 1951 2028 2105 2110 2123 2087 2090 2439 2872 3332 3292 2795 2961 2836 2513 2395 2438 2567 2060
0 3 39 1014 1888 2438 2795 2862 2676 1972 2045 2027 726 1102 1427 1238 991 1079 880 412 661 1477 1784 1839 2028 2193 2530 2707 2863 2932 3037 3260 3389 3130 2850 2835 2772 2636 2537 2611 2497 2073 1624
0 0 3 175 1055 1614 2279 2610 2515 2091 1876 1637 521 427 232 366 581 929 1488 1999 1727 1719 1973 2045 1963 2207 2370 2744 2778 2608 2355 2135 2237 2747 2752 2843 2651 2523 2141 1923 1686 1487 748
0 1 3 26 468 870 1324 2091 2629 2385 2078 1272 1150 1133 390 493 1066 1258 842 1088 1640 1890 1994 1659 1226 481 437 317 150 829 1843 2055 1763 2012 2523 2358 2192 1833 1479 425 266 184 162
3 1 1 4 1 3 136 657 1060 1364 1605 1396 1008 472 347 667 287 1 0 48 128 180 22 319 974 806 168 80 328 92 74 1227 1337 1753 1205 1088 1000 878 206 102 87 94 104
1 2 4 5 6 2 1 0 66 189 223 417 451 0 0 11 266 1038 606 205 102 2 9 132 0 0 11 0 0 1 8 5 2 0 1 40 46 24 8 30 29 12 0
0 0 5 6 6 7 8 3 1 0 0 6 23 3 0 0 2 3 3 1 0 0 0 0 0 0 0 0 0 0 0 0 0 0 0 0 1 0 0 6 3 0 0
4 3 3 4 8 8 8 8 5 7 9 6 7 5 5 5 6 8 2 0 0 0 0 0 0 0 0 0 0 0 0 0 0 0 0 0 0 0 0 0 0 0 3
4 6 8 6 8 7 1 8 11 10 4 4 5 8 10 5 0 1 0 0 0 0 0 0 0 0 0 0 0 0 0 0 0 0 0 0 0 0 0 0 0 0 1
3 4 5 4 7 9 9 7 8 9 8 7 13 7 2 0 0 0 0 0 0 0 0 0 0 0 0 0 0 0 0 0 0 0 0 0 0 0 0 0 0 0 0

GFSGL_con_mlcape_072.txt.gz
CAPE
177 87 0 3 74 284 75 81 435 938 842 1027 1120 954 1144 947 859 905 881 834 835 788 691 878 581 1085 528 511 464 1083 1057 560 377 293 326 686 891 666 1239 1456 1267 1266 1268
231 244 84 0 0 184 245 60 78 388 728 1032 935 1138 1207 1072 947 930 788 910 900 1070 906 842 803 1399 1394 1208 878 839 799 1051 1123 930 823 1175 1396 1573 1705 1449 1705 1889 1806
268 266 290 66 0 11 206 231 66 147 562 1240 1001 1087 1328 1121 1362 1263 1087 1023 1085 1127 1257 1200 997 952 1143 1449 1193 1289 1158 1195 1238 1503 1793 1648 1615 1501 1780 1925 2023 1674 1502
427 370 391 440 131 0 30 162 185 92 178 517 1334 1257 1173 1199 1404 1510 1469 1353 1220 1169 1168 1165 1323 1246 916 1140 1411 1473 1456 1598 1589 1402 1229 1181 1427 1998 2097 2153 2015 1730 1169
603 613 392 599 630 235 0 22 18 138 135 278 538 1185 1448 1407 1275 1087 1017 936 916 952 1147 1222 1376 1723 1829 1876 1901 1712 1756 1726 1696 1667 1713 1836 2078 1998 1942 1969 1392 1108 1436
748 773 748 511 747 731 410 44 18 0 72 234 257 594 830 1301 1263 1092 1083 1056 1006 940 721 954 1401 1448 1437 1626 1808 1970 1987 1769 1632 1785 2022 1933 1897 1813 1457 1320 1428 1655 1794
853 1035 1055 1005 786 807 915 593 307 123 0 169 382 617 1121 1236 1273 1201 1127 1063 981 1006 951 1001 1309 1459 1496 1625 1619 1665 1558 1741 1991 2015 1896 1798 1610 1438 1469 1603 1826 1808 1657
221 816 1483 1411 1289 1086 986 1086 889 661 287 104 543 554 613 1120 1307 1289 1251 1237 1108 1003 1070 1202 1307 1268 1299 1435 1425 1241 1323 1324 1224 1143 1234 1363 1378 1480 1632 2015 1981 1774 1922
343 341 564 1661 1598 1422 1290 1195 1167 1051 818 465 353 920 1106 1062 889 835 875 1141 1234 1233 1101 1070 1215 1118 1017 1097 1422 1274 1206 1236 1439 1516 1616 1795 1894 2049 1967 1585 1712 1959 2121
117 282 262 362 1439 1599 1529 1409 1332 1183 1135 993 762 537 653 1104 1370 1181 972 1192 995 1092 1201 1113 1019 1225 1189 1028 1128 1060 1036 1054 1102 978 1005 1035 1103 1235 1439 1379 1995 2147 2076
8 28 141 360 1251 1492 1581 1495 1441 1410 1251 1261 1203 1042 1091 1160 1210 1049 1009 1426 1317 1016 944 874 891 857 798 770 755 993 1048 1060 1069 1127 1260 1409 1594 1777 1959 2119 1706 1656 1987
1 5 51 239 1250 1340 1525 1521 1355 1364 1440 1274 1307 1413 1291 1335 1407 1311 1141 1114 1559 1473 1224 1006 899 679 507 467 510 769 907 704 684 781 938 1091 1203 1344 1534 1517 1609 1895 2058
0 0 25 269 964 1391 1501 1463 1475 1377 1420 1430 1277 1203 1385 1477 1551 1427 1257 1118 1148 1664 1766 1568 1192 919 709 515 479 544 329 373 663 855 1053 1140 1198 1159 1202 1610 2389 2771 3195
2 1 56 333 1020 1650 1412 1423 1416 1440 1383 1374 1467 1388 1319 1420 1668 1755 1374 1105 1118 1021 1565 1680 1578 1250 1053 1047 838 666 467 576 607 657 766 870 927 1085 1734 2355 2781 3211 2943
0 0 44 226 856 1964 1543 1583 1547 1520 1506 1472 1516 1515 1582 1612 1650 1847 1951 1647 1520 1380 1480 1409 1303 1319 1445 1211 1103 1161 989 770 840 822 791 883 1177 1737 2392 2706 2904 2785 2683
0 0 3 69 536 2000 2186 1480 769 1082 1423 1472 1539 1621 1733 1734 1818 1852 1788 1870 1808 1527 1222 1664 1656 1711 1632 1663 1640 1526 1492 1390 1274 1200 1186 1454 1785 2363 2682 2813 2854 2652 2244
2 0 3 5 330 1762 2521 2109 2066 1104 875 1359 1511 1769 1900 2008 1766 1661 1838 1782 1335 1010 2075 1810 1941 1826 1755 1646 1615 1635 1699 1561 1598 1366 1522 1917 2387 2692 2749 2800 2367 2171 2190
0 0 3 5 40 751 2099 2676 2205 2035 2330 2221 1190 1619 1662 1561 2035 1881 1223 830 924 547 1635 1985 2057 1973 1866 1744 1632 1726 1800 1729 1864 2072 2211 2362 2520 2461 2361 2329 2240 2238 2119
3 3 6 4 20 502 1051 2192 2427 2025 1920 1891 1285 1041 762 963 621 827 555 1273 1437 1349 1360 1740 1819 1800 1840 1725 1915 2195 2249 2204 1959 1905 1493 910 926 732 1029 1130 1482 1815 1769
2 1 5 5 4 150 534 1321 1874 1867 1822 1573 1344 1423 761 735 1246 1376 1204 1262 1345 1134 1065 1206 1280 1312 1479 1332 781 495 833 597 475 634 1034 486 41 0 0 285 770 374 103
1 2 4 6 3 5 1 286 1071 1822 1536 1363 1208 861 509 1474 1639 1620 1144 467 452 632 734 1047 1105 854 197 22 25 37 13 38 189 358 219 0 0 0 43 349 71 38 21
1 0 2 6 4 2 6 4 14 670 1357 1228 594 180 152 498 650 268 1 0 1 1 0 0 0 0 0 0 0 35 3 0 0 0 22 2 0 59 53 5 0 0 0
4 0 5 3 6 1 9 10 11 6 7 65 29 5 1 3 6 4 3 11 10 9 4 1 0 0 0 0 0 0 0 0 0 0 0 0 0 1 0 0 0 0 0
6 0 5 7 7 6 1 8 13 6 8 13 10 12 13 13 14 14 10 8 1 0 0 0 0 0 0 0 0 0 0 0 0 0 0 0 0 0 0 0 0 0 0
4 7 6 8 9 5 1 0 0 6 8 6 11 13 13 9 13 8 8 1 0 0 0 0 0 0 0 0 0 0 0 0 0 0 0 0 0 0 0 0 0 0 0
3 4 6 7 9 10 6 8 4 7 6 3 6 9 10 5 7 5 5 4 4 3 1 0 0 0 0 0 0 0 0 0 0 0 0 0 0 0 0 0 0 0 0

GFSGL_con_mlcape_075.txt.gz
CAPE
26 15 31 32 64 16 0 30 53 561 808 762 860 1052 937 1225 1241 930 779 876 803 741 599 736 610 707 641 463 503 547 743 656 525 359 314 673 906 1241 1460 1379 1359 1836 1777
56 28 10 0 0 1 0 0 7 42 267 925 874 922 1056 1101 1188 1021 753 921 901 787 887 844 775 786 974 1314 1164 754 571 731 838 771 738 1025 1435 1418 1293 1307 1826 2076 1657
126 87 21 0 0 0 0 0 0 22 0 232 808 1073 1102 1075 1046 1089 940 794 964 955 972 1283 1244 1039 830 946 1190 1138 1087 1144 1073 1134 1323 1414 1254 1159 1305 1844 1976 1852 1454
148 205 114 38 0 0 0 0 0 0 7 50 388 928 1022 932 1149 1168 1033 1012 988 1020 1126 1118 1103 1080 1316 1134 837 1101 1333 1273 1350 1422 1292 1238 1330 1624 1685 1525 1202 1380 1304
89 184 198 180 66 0 0 0 0 0 0 0 111 699 1140 1180 1139 1167 1131 1261 1292 1228 1260 1246 1187 1141 1125 1471 1495 1353 1628 1634 1570 1463 1391 1401 1401 1282 1266 1682 1550 1332 1392
270 214 230 252 247 75 0 0 0 0 0 0 0 85 410 1182 1274 1109 1084 1245 1253 1193 1042 986 1055 1167 1129 1175 1315 1713 1988 1897 1781 1692 1566 1502 1363 1360 1343 1370 1246 1401 1781
451 379 353 298 362 401 225 0 0 0 0 0 0 0 34 261 738 1086 1114 1224 1082 988 983 943 875 999 913 995 1238 1202 1204 1365 1662 1847 1757 1668 1514 1468 1408 1334 1369 1597 1884
290 503 655 642 452 467 565 410 147 4 0 0 0 0 0 25 75 99 555 1016 1071 1021 1004 977 952 967 996 1008 1287 1249 1235 1295 1166 1055 1217 1347 1506 1568 1386 1567 1658 1747 1539
134 191 383 932 936 733 699 714 653 343 154 70 27 0 29 60 113 123 285 879 1060 1088 1011 958 962 963 1057 932 1067 941 887 1136 1241 1097 1077 1039 980 1013 1148 1211 1455 1448 1505
6 75 164 525 1275 1307 1086 948 887 845 694 526 350 98 172 337 178 158 254 569 782 986 1183 984 678 789 913 933 1046 1082 1011 920 1009 948 818 830 858 882 842 839 1352 1483 1684
3 0 0 5 90 415 916 1259 1241 1067 1044 945 805 583 292 406 717 479 306 505 475 619 741 755 707 394 450 663 757 1119 1046 1101 995 850 819 878 971 1054 1169 1154 1136 1478 1698
1 3 1 0 5 126 716 1175 1384 1309 1200 1159 1049 969 792 558 331 386 476 602 942 909 841 828 679 521 284 244 231 374 604 669 743 795 885 948 827 797 995 1180 1284 1290 1353
1 1 0 0 1 105 511 1136 1383 1401 1441 1311 1196 1134 1109 1023 892 636 438 372 514 924 1120 1225 1117 833 512 290 219 300 238 293 464 473 508 523 710 919 968 1027 1078 1168 1713
0 0 0 0 1 91 428 1249 1351 1392 1462 1415 1363 1259 1107 1162 1219 1183 760 504 475 501 901 1214 1282 1121 911 873 682 472 233 386 487 569 672 874 723 617 705 816 1149 2127 2645
0 0 0 0 1 6 117 1086 1382 1383 1440 1451 1378 1332 1229 1119 1069 1200 1237 1047 970 838 867 926 1123 1047 1293 1199 1026 949 778 579 585 557 565 591 657 696 809 950 1910 2492 2510
0 0 0 0 0 2 65 1082 921 981 1232 1223 1205 1254 1296 1157 977 868 1034 1125 1045 869 796 1213 1194 1189 1179 1242 1326 1185 980 1001 875 713 747 926 1068 1134 1157 1536 2304 2543 2511
0 0 2 0 2 1 3 388 1824 1213 568 752 828 1032 1047 1277 1022 1021 914 947 764 712 1554 1476 1482 1508 1455 1403 1391 1451 1465 1298 1266 1122 1122 1147 1195 1286 1277 1964 2328 2409 1816
0 0 2 4 5 3 3 115 782 1836 1748 1637 955 848 848 966 1093 1086 934 511 627 296 1360 1678 1741 1661 1666 1611 1640 1590 1510 1419 1314 1315 1201 1281 1346 1475 1915 2072 1867 1596 1039
0 0 4 3 4 5 4 40 465 1550 2235 2158 1677 954 658 619 559 431 378 1453 1498 1237 1030 1443 1529 1603 1571 1705 1666 1589 1602 1461 1523 1555 1605 1768 1847 1777 1352 813 437 94 40
0 1 3 3 4 0 5 0 97 702 1803 1969 1851 1797 948 472 1143 1158 667 952 1123 1377 1404 1301 1374 1424 1392 1320 1281 1426 1479 1427 1433 1464 1453 1257 974 545 374 293 34 17 0
1 2 3 1 3 3 3 3 2 26 592 1527 1654 1347 986 1057 1194 1277 930 741 685 630 834 694 576 671 723 784 767 948 1019 890 853 1048 874 400 177 11 1 13 34 12 5
4 4 5 5 5 4 3 4 4 0 0 525 886 548 339 545 568 264 76 8 8 9 10 8 6 7 7 3 0 0 0 0 0 7 126 230 89 0 0 1 18 8 4
4 4 5 7 6 5 4 3 7 9 7 3 2 2 3 1 6 10 17 18 13 13 12 13 13 10 7 2 3 5 1 0 0 0 0 0 0 0 1 51 52 0 1
4 4 5 6 8 7 7 6 2 7 12 12 16 12 14 15 22 22 22 13 13 10 7 2 0 0 0 0 0 0 0 0 0 0 0 0 0 0 0 0 0 0 0
3 5 5 6 7 7 7 6 6 4 7 11 13 10 8 8 8 12 9 9 5 0 0 0 0 0 0 0 0 0 0 0 0 0 0 0 0 0 0 0 0 0 0
2 3 4 5 5 6 6 6 6 6 6 4 4 5 6 7 7 5 5 5 3 1 0 0 2 0 0 0 0 0 0 0 0 0 0 0 0 0 0 0 0 0 0

GFSGL_con_mlcape_078.txt.gz
CAPE
17 34 14 0 0 0 0 9 67 151 354 609 746 916 919 684 600 763 807 689 806 760 750 645 581 753 727 717 587 653 482 369 684 797 541 746 1000 1569 1507 1325 1565 2124 2007
16 15 34 0 0 0 0 0 0 21 126 378 708 850 886 820 848 933 868 959 569 630 662 691 562 715 883 870 1234 1242 1078 730 772 743 901 1071 1368 1328 1409 1501 1800 1929 1740
18 0 0 0 0 12 0 0 0 0 0 41 230 748 912 869 899 1013 1037 1043 856 653 822 844 889 1052 1101 1013 921 983 1263 1166 1171 1149 1137 1529 1533 1456 1510 1713 1488 1619 1607
1 24 0 0 0 0 9 0 0 0 0 0 52 200 538 852 980 972 893 994 951 787 743 825 959 1028 1112 1093 1246 1280 1081 1040 1294 1451 1549 1530 1459 1591 1506 1117 1159 1712 1490
18 32 0 0 0 0 0 0 0 0 0 0 0 55 204 456 834 917 830 936 966 861 880 893 963 1090 1108 1131 1139 1272 1550 1504 1664 1786 1679 1603 1648 1448 1439 1671 1488 1478 1489
35 51 110 52 1 0 0 0 0 0 0 0 0 0 21 272 452 705 957 997 1087 1016 962 1107 1152 1106 1060 901 868 911 1207 1439 1648 1763 1709 1530 1485 1514 1589 1437 1462 1471 1371
143 126 114 167 167 124 6 0 0 0 0 0 0 0 0 6 114 205 513 1034 1091 1036 1029 1109 1024 964 901 1010 901 697 661 889 1150 1447 1337 1506 1457 1490 1535 1388 1403 1293 1312
131 299 216 213 241 250 209 57 0 0 0 0 0 0 0 0 0 2 54 457 803 979 997 990 979 987 945 944 956 976 978 1038 1046 891 1078 1318 1419 1360 1330 1315 1184 1218 1303
21 126 330 442 357 307 345 384 233 46 0 26 10 0 30 44 0 0 0 30 126 345 438 546 747 882 907 713 965 770 970 1011 1066 814 833 953 947 845 793 837 988 1045 1135
0 1 2 64 301 582 513 475 466 424 271 91 46 29 0 140 39 1 0 14 1 0 87 224 239 664 674 618 783 658 578 755 973 1023 958 740 670 732 476 492 842 936 1126
0 0 2 0 7 72 492 828 604 642 615 548 423 312 164 110 173 17 20 176 259 153 89 89 366 98 114 133 297 651 379 779 930 923 1001 976 856 807 831 718 703 861 1088
0 0 0 0 0 0 27 150 534 1003 964 950 894 799 594 433 262 205 72 68 359 386 346 350 351 155 72 83 49 98 167 378 776 852 738 679 705 734 812 782 923 942 1082
0 0 0 0 0 0 0 26 158 598 1141 1072 1023 1049 1031 839 630 273 228 142 153 404 565 616 572 490 408 208 163 222 131 131 291 450 491 527 672 684 572 717 893 959 1023
0 0 0 0 0 0 4 2 30 594 1206 1167 1236 1203 1140 1070 1029 879 339 82 99 94 396 663 724 690 592 702 555 300 180 361 480 548 692 720 592 590 759 857 754 806 1153
0 0 0 0 0 0 0 0 15 151 1056 1340 1393 1357 1246 1157 1205 1139 994 700 474 296 218 370 606 708 848 933 764 760 681 570 559 603 684 791 810 770 831 680 732 950 1694
0 0 0 0 0 0 0 0 0 4 182 664 945 1232 1306 1134 988 826 841 775 673 363 343 736 818 824 900 832 871 914 781 527 542 684 764 874 1002 951 891 841 992 1255 1821
2 1 0 0 0 0 1 2 1 32 93 247 691 702 800 1183 779 780 661 543 424 373 1028 988 936 1046 1072 872 1051 1052 978 815 745 770 862 895 906 946 917 1132 1314 1425 1557
0 0 0 1 1 1 2 1 5 14 189 479 690 612 681 516 555 656 484 200 352 103 920 1106 1304 1212 1199 1200 1196 1294 1338 1337 1213 1220 1179 1167 1059 1067 1099 1168 1360 1436 1628
0 0 1 1 1 0 1 2 1 2 9 211 1137 752 583 256 234 144 123 808 998 1010 703 955 1296 1460 1428 1271 1256 1273 1338 1437 1454 1428 1423 1305 1175 1119 1173 1255 1347 1391 1639
2 3 3 2 1 1 3 0 0 3 1 2 395 1111 769 242 542 417 351 471 943 1317 1249 1037 978 1249 1413 1379 1207 1286 1292 1287 1322 1366 1456 1450 1484 1367 1411 1244 1253 1007 671
3 2 2 4 1 5 4 1 0 4 2 2 1 251 759 900 957 1023 936 618 721 885 1072 1019 912 898 977 1046 1035 1132 1179 1290 1225 1220 1391 1457 1248 1119 896 654 432 319 215
1 1 3 4 4 4 6 6 3 4 4 1 0 2 6 272 532 596 332 64 3 5 5 2 2 3 4 2 3 87 351 540 516 617 863 782 606 595 473 329 61 21 17
2 3 2 2 6 6 6 7 5 4 5 4 4 5 2 2 8 11 16 19 16 14 11 11 10 15 13 11 12 9 3 2 3 0 0 6 54 150 154 66 5 0 0
3 4 3 3 6 6 8 8 7 6 5 6 5 11 10 17 18 21 14 11 10 8 8 7 6 4 2 2 2 0 0 0 0 0 0 0 1 0 1 0 0 8 29
2 3 4 5 5 6 6 6 6 8 7 5 6 7 8 7 12 11 6 5 6 6 5 6 6 3 1 2 2 1 0 0 0 0 0 0 2 1 0 0 0 0 0
1 2 3 3 4 4 5 5 6 5 5 5 5 4 5 6 6 6 5 5 6 5 4 5 5 4 2 1 1 0 0 0 0 0 0 0 0 0 0 1 1 1 0

GFSGL_con_mlcape_081.txt.gz
CAPE
308 352 358 292 247 224 254 392 579 776 885 1102 1353 1551 1614 1452 1493 1369 1293 1447 1290 1387 1584 1596 1536 1712 1238 1224 1353 1173 1018 873 702 605 1436 1510 1702 2303 2239 2338 1885 1839 1510
182 254 252 243 191 207 174 164 340 654 831 831 1219 1466 1643 1699 1688 1387 1238 1335 1430 1296 1432 1461 1349 1333 1403 1692 1656 1870 1676 1802 1370 1200 1285 1438 1981 2336 2414 2495 2135 1506 2227
197 92 125 152 191 162 197 225 189 190 554 767 961 1140 1551 1709 1685 1621 1705 1429 1697 1675 1441 1460 1547 1741 1676 1596 1651 1626 1546 1878 1968 1810 1598 1664 2023 2031 2134 1781 2053 2218 1752
236 230 198 176 131 128 311 370 235 211 159 340 654 753 1036 1564 1687 1662 1792 1834 1826 1817 1717 1536 1535 1665 1691 1847 1561 1828 1966 1965 1672 1814 1587 1651 1732 1928 2229 1473 1348 1238 1723
152 252 268 404 370 198 126 293 461 413 317 326 313 614 872 1042 1294 1615 1709 1724 1669 1666 1784 1695 1552 1500 1313 1495 1582 1593 1873 1907 1816 1690 1544 1504 1463 1330 1309 1361 1198 1317 1494
257 262 350 397 432 409 288 138 292 342 400 353 338 317 432 642 492 632 1222 1596 1586 1521 1584 1734 1662 1255 1012 829 822 896 1155 1575 1610 1311 991 955 1546 1697 1205 1294 1273 1369 990
225 429 380 465 482 439 399 317 282 244 318 331 292 323 214 353 257 211 307 993 1546 1625 1567 1674 1741 1550 1460 1679 1205 709 611 590 726 1193 1338 1423 1376 1507 1801 1892 1492 1538 1477
274 393 605 583 575 625 607 487 367 332 306 338 372 361 338 328 67 0 2 405 1138 1491 1686 1687 1649 1637 1810 1559 1621 1693 1650 1638 1433 923 1008 1355 1579 1841 2091 1886 1954 1748 1700
4 5 13 93 597 691 741 701 575 447 377 347 382 441 429 360 91 0 0 38 383 980 1285 1454 1564 1514 1415 746 797 1170 1355 1459 1231 1106 986 1038 960 752 801 1222 1241 1191 896
0 4 7 4 40 124 686 864 881 912 599 505 373 389 408 479 324 10 0 49 95 136 521 1017 815 898 883 409 280 676 915 835 992 977 1403 1020 698 833 472 634 1171 1162 975
0 0 2 3 3 9 51 250 727 850 959 960 695 537 421 456 462 142 0 49 328 507 440 397 343 161 0 0 29 547 493 763 805 1001 873 1065 1216 1417 1463 1191 1006 1164 1051
0 0 0 2 4 2 0 16 51 218 803 1044 1012 990 963 753 424 292 7 1 241 514 707 698 733 356 122 5 3 68 115 299 832 693 491 606 793 877 1020 1241 1560 1759 1397
0 0 0 0 0 0 0 0 15 40 132 620 1133 1031 1076 1295 1220 464 135 0 0 187 691 916 729 495 209 58 40 64 34 257 519 589 495 399 519 737 1096 1389 1396 1478 1737
0 0 0 0 0 0 4 0 2 16 56 313 815 878 944 946 1404 1401 724 111 8 0 60 466 590 505 429 593 490 122 183 578 737 698 545 529 720 1003 1099 1302 1240 1290 1440
0 0 0 0 0 0 1 1 0 4 10 27 252 860 980 1206 1369 1448 1500 1169 532 320 296 401 658 745 842 959 897 974 1048 803 739 865 926 859 887 1005 1144 1446 1430 1332 1316
2 0 0 0 0 0 0 1 1 0 0 0 0 12 331 907 1321 1171 975 833 505 215 218 836 999 1056 985 979 967 973 1098 1021 1020 824 842 835 818 979 1176 1392 1468 1364 1300
2 1 0 0 0 0 2 1 0 0 1 0 1 22 51 246 607 625 799 371 314 163 742 1096 996 1008 932 905 1058 1006 1006 1251 1362 942 839 866 989 1169 1374 1510 1630 1627 1534
1 0 1 1 1 2 1 1 1 0 0 0 0 30 91 205 295 242 187 68 253 68 849 1026 1374 1147 1245 1302 1120 1207 1210 1100 1309 1524 1327 1231 1398 1519 1664 1685 1704 1749 1743
2 1 0 0 0 1 1 2 0 2 1 0 0 1 94 92 4 3 0 673 864 1020 455 784 1131 1319 1463 1509 1755 1732 1459 1283 1263 1411 1414 1508 1473 1597 1553 1494 1461 1211 1285
0 0 1 0 2 3 3 3 0 3 1 2 2 3 3 1 110 100 1 202 800 1227 1378 1099 881 1328 1533 1598 1562 1669 1761 1479 1267 1288 1449 1375 1565 1492 1427 1495 1430 1391 1259
2 1 1 2 1 2 2 5 5 5 1 5 2 5 0 0 71 370 410 174 230 677 907 1283 1159 1008 1072 1290 1445 1393 1412 1346 1220 1191 1141 1116 1390 1655 1495 1627 1570 1399 1856
2 1 2 3 2 2 4 5 4 6 4 4 5 4 4 1 2 0 0 2 4 4 2 3 3 2 4 3 21 186 674 906 848 643 795 843 982 1189 1291 1223 1090 987 1302
3 3 4 4 4 4 5 6 6 5 5 9 8 8 4 7 10 9 10 15 11 10 11 9 9 9 10 9 9 7 5 3 3 1 1 11 91 326 443 527 549 754 642
2 3 4 4 5 5 6 7 7 7 7 5 8 8 7 7 12 15 15 11 10 9 10 13 11 8 7 7 5 5 3 6 5 6 3 4 4 4 4 47 120 144 165
2 2 3 4 5 6 7 7 7 8 7 7 6 7 8 8 8 8 7 8 7 6 6 6 7 5 7 6 4 5 1 0 0 3 4 1 4 2 3 1 1 2 1
1 1 1 2 3 4 5 6 6 5 4 4 4 4 5 6 5 4 5 5 5 5 5 5 4 2 2 1 0 0 1 1 1 1 1 0 0 0 0 0 0 0 0

GFSGL_con_mlcape_084.txt.gz
CAPE
1049 851 894 966 1056 1194 1013 925 841 890 1070 1411 1770 1769 1424 1670 1894 1958 1491 1475 1336 1267 1430 1640 1849 1695 1184 614 787 805 606 534 490 227 415 674 1743 1981 2215 2537 2296 1631 762
1038 1060 1013 1042 1042 908 993 790 771 950 936 1431 1608 1660 1587 1463 1817 2038 1609 1018 1567 1595 1424 1589 1711 1524 1823 1420 961 927 748 789 854 761 708 665 1097 1508 2047 2568 2037 1373 1472
763 786 903 983 1050 982 734 914 801 889 972 1008 1354 1697 1557 1245 1587 2144 1919 1780 1830 1655 1751 1735 1579 1566 1756 1195 1271 981 1162 1342 1246 1130 880 878 979 1339 1798 1947 1699 1524 934
739 769 701 659 710 745 700 685 869 966 955 749 963 1231 1548 1550 1199 1606 1847 2094 1967 2089 2129 2028 1773 1530 1729 2024 1797 1724 1953 1862 1530 1427 1129 1008 1085 1284 1624 1384 821 706 743
584 729 816 904 827 712 740 575 665 912 1035 1028 801 792 1025 1241 1440 1397 1497 2026 2063 2212 2186 2280 2029 1679 1375 1602 1509 1533 1688 1871 1284 1027 953 933 951 1026 1219 714 684 619 730
528 789 740 880 909 1025 1071 981 795 830 1068 1135 1103 866 620 333 411 793 1399 1809 1646 2001 2035 2161 2171 1761 1599 1188 927 756 1018 1593 1529 862 303 253 811 953 601 606 624 604 606
15 586 717 842 843 961 1017 1109 1143 992 829 1116 1149 1071 1017 861 144 87 494 875 1106 1643 1860 1791 1761 1425 1748 1901 1450 940 753 703 769 1278 1422 1262 1075 1046 1279 1511 1401 1354 1157
0 1 2 110 625 956 985 1065 1045 1083 1050 1046 1086 1176 1138 1169 745 275 26 542 833 1172 1326 1560 1836 1426 1195 1593 1853 1652 1772 1816 1559 1225 1172 1412 1521 1425 1516 1695 1855 1973 1580
0 0 0 3 4 126 879 1112 1206 1078 1115 1075 1062 1132 1253 1248 874 496 230 413 230 609 1082 1437 1659 1765 1772 1322 1432 1090 1193 1278 1056 1113 999 953 1126 1116 932 1024 846 550 292
0 0 0 0 4 3 67 623 917 1220 1107 1108 1036 1129 1160 1241 1192 689 247 514 444 353 293 993 1188 1242 1429 1301 1587 1443 1235 837 506 486 814 947 873 1113 559 767 1119 854 363
0 0 0 0 0 2 1 4 469 953 1160 1194 1401 1300 1262 1249 1222 729 375 573 560 533 468 287 264 329 475 488 885 1427 1060 629 248 450 509 538 469 610 1171 1493 1734 1344 727
0 0 0 0 0 0 2 4 3 148 587 803 973 1237 1694 1532 1171 889 406 218 583 628 681 637 780 599 207 87 88 306 485 407 113 0 2 113 124 75 215 498 1463 1964 1718
0 0 0 0 0 0 0 2 4 7 85 406 235 489 1302 1574 1515 1264 796 299 126 190 841 836 750 599 397 112 1 55 4 210 266 170 77 131 148 24 303 668 1180 1955 2263
0 0 0 0 0 0 0 0 0 3 7 86 295 303 503 1042 1438 1678 1496 678 148 30 26 239 526 703 780 853 732 148 126 467 479 348 272 303 248 52 74 374 616 637 985
0 0 0 0 0 0 0 0 0 0 0 3 40 91 251 511 895 556 692 1323 1745 1144 343 487 777 778 870 1070 956 773 765 727 604 653 653 606 415 167 129 236 409 536 749
5 0 0 0 0 0 0 0 0 0 0 0 0 0 0 1 0 0 10 46 192 534 521 706 1034 1235 1268 1320 1261 1100 841 724 808 802 747 705 559 322 186 199 342 558 869
5 12 0 0 0 0 0 0 0 0 0 0 0 0 0 0 0 0 0 0 0 13 818 1101 1254 1296 1419 1552 1514 1182 1319 1377 1408 1201 941 725 582 454 314 275 302 667 935
17 8 5 0 0 0 0 0 0 0 0 0 0 0 0 0 0 0 0 5 24 22 445 923 1176 1375 1510 1576 1317 1370 1559 1551 1607 1667 1680 1242 891 815 711 768 913 1141 1273
2 3 2 6 0 0 0 0 0 0 0 0 0 0 3 1 0 0 0 0 112 659 394 672 1311 1519 1768 1707 1739 1741 1717 1751 1804 1752 1746 1932 1846 1810 1514 1432 1409 1547 1682
5 2 0 2 1 2 1 2 1 1 2 2 1 2 7 2 0 0 0 0 2 725 1088 1279 1058 1406 1805 1818 1999 1693 1688 1864 1795 1720 1767 1673 1533 1457 1479 1660 1906 2231 2217
0 4 2 1 5 2 3 1 0 1 2 2 2 0 0 4 1 1 2 3 4 43 525 1181 1476 1765 1740 1776 1723 1620 1645 1731 1819 1812 1856 1612 1473 1417 1317 1414 1729 2033 1869
4 1 3 0 1 0 0 0 2 2 2 4 0 1 0 5 7 0 4 4 3 7 4 0 0 2 5 25 20 126 268 422 952 1303 1434 1452 1414 1287 1284 1289 1398 1678 1743
9 8 6 4 2 1 3 1 1 3 3 2 2 4 5 7 8 4 6 11 7 7 11 9 9 7 9 11 7 5 2 3 10 1 2 46 222 468 668 774 871 926 1082
6 4 3 2 2 3 3 4 4 2 4 4 4 6 8 8 9 8 7 7 8 8 8 8 12 13 13 8 10 9 9 6 6 3 4 5 6 4 18 84 136 258 269
3 2 2 1 1 3 4 3 4 4 5 6 7 8 7 5 7 7 5 5 6 5 7 7 8 8 9 8 11 6 2 0 2 2 4 1 0 1 0 0 1 0 1
1 0 0 0 1 1 1 3 4 4 5 5 6 6 6 6 5 6 5 5 5 5 5 6 6 4 3 3 1 0 1 0 0 0 4 5 5 3 4 4 3 3 2

GFSGL_con_mlcape_087.txt.gz
CAPE
1603 1507 1414 1418 1580 1735 1438 1227 1035 984 1140 1223 1838 1763 2004 1820 1840 1789 1863 1877 1842 1566 1455 1414 1591 1674 1328 552 538 489 472 505 466 456 488 647 1535 1471 1813 2202 2429 2280 1579
1428 1569 1426 1307 1378 1400 1602 1454 1343 1278 1047 1135 1402 1692 1506 1775 1984 1929 1712 965 1345 1527 1448 1517 1427 1300 1844 1689 1158 988 752 1124 1053 1145 970 723 855 1222 1596 2362 2512 1844 1552
1146 1360 1505 1480 1419 1315 1322 1524 1401 1288 1286 981 1170 1702 1580 1575 1698 1909 2069 1820 1521 1701 1574 1503 1433 1571 1646 1567 1578 720 684 1292 1441 1414 1161 951 888 1075 1092 1978 2317 1767 1690
691 975 1245 1390 1504 1476 1571 1489 1335 1416 1415 1387 1157 1468 1792 1750 1458 1589 1871 1988 2059 2014 1853 1629 1565 1493 1748 1912 1974 1988 1795 1735 1455 1060 1025 995 907 1000 1171 1383 1190 759 699
617 950 798 1333 1308 1305 1377 1464 1326 1374 1470 1521 1522 1258 1419 1291 1323 1624 1587 1720 1836 1814 2276 2190 1959 1495 1345 1641 1494 1793 1526 1834 1400 1010 787 779 752 1143 1374 1129 697 638 664
4 76 471 839 919 1273 1555 1403 1440 1148 1299 1766 1665 1560 1340 894 376 501 1513 1626 1808 1774 1797 2049 2496 1822 1593 1332 1047 844 1119 1900 1967 1049 495 275 728 611 373 558 780 570 620
0 0 2 46 215 460 959 1270 1611 1724 1515 1584 1796 1728 1753 1704 892 68 273 922 1405 1965 1908 1979 2229 1378 1839 2155 1651 1032 571 414 518 1216 1723 1665 1291 1536 1503 1693 1018 1508 1189
0 0 0 1 4 10 265 1064 1270 1329 1508 1703 1572 1846 1964 1976 1423 810 92 411 898 1266 1558 2120 2029 1938 2022 2308 2149 2024 2166 2045 1569 987 939 1149 1563 1976 1955 1829 1873 2242 1896
0 0 0 0 0 2 4 14 544 1099 1298 1363 1494 1694 1852 1980 1571 1080 678 628 390 673 1151 1344 1643 2199 2245 1572 1567 1951 1972 2106 1401 1600 1637 1657 1546 1365 1155 1145 808 424 240
0 0 0 0 0 0 0 0 2 192 1014 1364 1396 1555 1656 1709 1811 1382 861 1054 907 856 1008 1042 791 927 1551 1818 1763 1720 1850 1890 1962 989 953 1040 920 905 531 554 827 771 463
0 0 0 0 0 0 0 0 0 2 50 668 1310 1512 1488 1532 1630 1240 969 1339 1122 969 939 899 1000 639 250 224 779 1747 1940 2023 1882 1262 1049 769 484 786 1380 1562 1653 1154 802
0 0 0 0 0 0 0 0 0 0 0 113 593 864 1188 1557 1200 1372 885 767 1230 1139 1175 1001 1000 610 187 75 48 302 445 826 1164 790 436 95 15 40 43 311 1195 1885 1822
0 0 0 0 0 0 0 0 0 0 5 32 168 490 896 918 1094 1081 665 646 468 686 1105 1178 741 428 304 103 8 16 44 318 537 701 698 563 289 95 6 197 298 1985 2190
0 0 0 0 0 0 0 0 0 0 0 0 1 28 1 28 807 1021 925 161 183 18 154 433 504 548 533 555 758 313 273 486 597 735 732 652 574 313 116 296 175 106 305
0 0 0 0 0 0 0 0 0 0 0 0 0 0 0 0 0 0 0 0 0 0 0 51 966 1184 878 965 1130 1250 1285 980 787 656 802 794 620 461 374 396 174 99 246
12 0 0 0 0 0 0 0 0 0 0 0 0 0 0 0 0 0 0 0 0 0 0 117 412 1322 1248 1270 1341 1519 1561 1430 1128 1017 951 900 847 782 731 660 375 209 277
11 18 9 0 0 0 0 0 0 0 0 0 0 0 0 0 0 0 0 0 0 0 0 81 422 778 1004 1050 1284 1632 1634 1616 1425 985 918 1082 959 874 739 648 581 464 412
7 0 0 0 9 1 0 0 0 0 0 0 0 0 0 0 0 0 0 0 0 0 0 50 327 938 743 859 986 1338 1555 1899 1742 1612 1731 1670 1537 1229 1062 887 750 708 584
3 5 7 2 0 6 2 0 0 0 0 0 0 0 0 0 0 0 0 0 0 2 15 115 346 960 709 272 524 1079 1388 1538 1660 1580 1608 1571 1634 1397 1395 1316 1183 850 878
0 2 1 4 4 4 5 7 6 3 0 0 0 0 0 0 0 0 0 0 2 3 2 58 971 896 475 625 1069 1011 1227 1358 1682 1569 1708 1727 1734 1722 1639 1535 1380 1192 1548
2 4 6 1 0 3 2 3 5 9 4 0 0 0 0 0 0 0 1 1 1 2 1 1 0 642 896 909 1100 1342 1350 1437 1495 1731 1837 1973 1880 1851 1670 1523 1386 1437 1551
8 3 4 5 2 0 0 3 5 2 7 7 2 0 0 0 0 0 2 2 5 5 6 5 8 3 6 2 37 21 109 244 359 628 1224 1670 1488 1580 1689 1545 1532 1413 1279
5 3 5 5 2 1 1 2 5 6 1 5 4 1 3 2 2 1 4 6 7 7 6 5 6 7 10 11 11 6 0 0 3 5 6 83 262 350 446 599 909 989 976
7 2 3 7 4 2 2 3 2 2 1 3 4 0 1 3 2 3 4 7 7 7 6 6 6 6 7 11 13 11 11 8 6 10 9 5 4 7 29 34 20 46 132
6 3 5 3 4 4 2 2 4 4 4 4 3 3 2 2 3 3 4 5 6 6 5 5 6 5 6 5 4 2 1 1 2 2 3 3 3 1 1 2 1 2 2
5 2 2 1 2 1 1 2 1 1 3 3 3 3 3 3 3 4 5 5 5 5 5 5 5 4 1 1 0 0 0 0 0 0 2 3 5 4 3 3 2 0 1

GFSGL_con_mlcape_090.txt.gz
CAPE
1895 1997 1831 1841 2064 2001 1673 1283 811 1100 898 414 0 0 1141 1544 1626 1687 1168 1060 1222 1121 1635 1362 1252 1439 962 1369 1944 1604 1016 560 724 830 1435 1295 1167 949 862 1351 2098 2247 2226
1921 2015 1982 1906 1906 2050 1888 1693 1486 1192 1175 1192 877 1219 1606 1821 1625 1468 1810 1574 1298 1610 1550 1551 1369 1766 1695 1524 1111 738 992 725 616 673 882 367 720 1043 1470 2064 1557 2161 1875
789 1954 1931 1828 1937 1964 2114 1918 1954 1713 1547 1252 1087 1506 1863 1427 1833 1566 1336 1540 1552 1676 1760 1615 1502 1364 1599 1307 1687 1719 1709 1397 1088 1306 1140 1756 900 814 1042 1317 1729 1955 2267
116 777 974 1774 1638 1750 1905 1793 1891 1901 1698 1437 1590 1608 1925 1508 1816 1875 2061 1573 1316 1640 1844 1936 1949 1944 1713 1759 1557 1474 1622 1474 1548 1510 1271 939 1215 1327 1831 1818 1415 611 612
4 18 187 344 1411 1939 2046 1924 1734 1875 1820 1769 1858 1711 1915 2052 1992 1641 1678 2093 1706 1703 1893 1915 2102 1831 1829 1868 1970 1900 1966 1803 1684 1627 1408 1535 973 880 523 626 807 1240 837
1 1 7 108 251 678 1032 1261 1528 1551 1510 1808 1983 1985 1844 1587 1062 708 1824 1644 1884 1901 1705 1687 1847 2188 2178 1234 1036 991 1100 1431 1467 1755 1838 733 487 870 1187 1106 873 487 232
0 0 0 2 4 37 183 691 1332 1369 1496 1563 1263 2052 1955 2028 1508 788 296 1048 1949 1892 2000 1837 1420 1594 1445 1967 1219 1135 931 362 338 509 629 807 930 781 1047 909 1262 1488 1139
0 0 0 0 0 0 0 26 117 617 1317 1400 1462 1467 1626 1927 1974 1607 985 703 600 1050 1670 2076 2040 1813 1414 2242 2105 2208 1965 1703 1422 892 634 529 513 570 845 1013 1148 1863 2088
0 0 0 0 0 0 0 0 0 3 159 990 1465 1544 1716 1699 1695 1558 1406 1282 1058 800 832 1272 1469 1838 2269 1901 1400 1435 1818 2354 2511 2062 1842 1496 1049 769 881 1271 1182 865 565
0 0 0 0 0 0 0 0 0 0 4 208 583 1271 1463 1347 1431 1254 1131 1481 1439 1392 1211 938 644 895 1055 847 1587 2051 1650 1234 1417 1815 1722 1073 975 1023 1002 1077 1221 946 674
0 0 0 0 0 0 0 0 0 0 0 4 107 461 936 1149 1223 1170 896 1343 1517 1506 1388 1328 1450 1051 668 441 298 549 1085 1877 1813 1663 1695 1660 1421 1149 1241 1020 824 765 598
0 0 0 0 0 0 0 0 0 0 0 0 29 171 581 766 903 902 592 422 884 1035 1251 1362 1442 620 307 270 189 278 199 276 800 1167 1396 1311 1026 687 517 425 685 1028 1095
0 0 0 0 0 0 0 0 0 0 0 0 0 7 31 7 39 60 11 2 10 49 162 592 302 516 555 489 474 286 0 13 90 363 583 792 915 898 698 392 101 174 976
0 0 0 0 0 0 0 0 0 0 0 0 0 0 0 0 0 0 0 0 0 0 0 1 0 0 136 494 476 616 235 255 347 404 475 551 687 763 752 681 352 84 78
0 0 0 0 0 0 0 0 0 0 0 0 0 0 0 0 0 0 0 0 0 0 0 0 0 9 360 1213 1260 1051 1102 696 595 651 706 774 855 885 797 627 405 197 256
4 0 0 0 0 0 0 0 0 0 0 0 0 0 0 0 0 0 0 0 0 0 0 0 0 10 38 236 1150 1573 1434 1262 1242 1024 953 916 834 671 700 803 700 435 404
1 0 0 0 0 0 0 0 0 0 0 0 0 0 0 0 0 0 0 0 0 0 0 0 0 1 16 236 311 519 855 1124 1279 1432 1465 1422 1219 1001 882 696 534 492 676
3 3 0 1 0 3 2 0 0 0 0 0 0 0 0 0 0 0 0 0 0 0 0 0 0 0 40 43 109 650 876 872 856 1084 1479 1163 427 1136 1224 1092 833 700 638
1 0 2 2 2 0 0 7 3 0 0 0 0 0 0 0 0 0 0 0 0 0 0 0 2 7 57 237 601 1033 1070 731 486 386 709 1066 898 957 955 869 932 1053 907
0 0 0 0 1 3 4 0 1 3 1 0 0 2 0 0 1 10 12 0 0 0 3 0 0 0 1 3 154 918 929 816 903 678 693 623 428 739 744 761 907 764 810
0 0 2 2 8 4 0 3 2 0 1 1 0 0 0 0 0 0 0 0 0 0 0 0 1 0 2 5 7 5 769 876 1005 1166 794 574 652 551 808 870 864 835 912
0 0 0 0 0 3 7 6 4 4 3 0 0 0 0 0 5 17 17 4 0 1 2 4 5 5 6 7 8 5 4 61 247 92 49 116 44 8 238 602 584 674 899
0 0 0 1 2 1 0 4 1 3 5 5 4 6 1 0 0 0 0 0 0 1 2 4 5 6 6 7 7 7 5 6 5 2 1 1 3 15 98 175 169 235 634
0 0 0 1 2 3 0 2 3 2 3 2 1 7 7 2 1 2 2 1 1 1 3 4 4 5 5 4 4 2 3 5 4 4 5 6 1 1 1 30 36 35 68
0 0 1 1 1 3 1 1 2 2 4 5 5 4 5 5 3 3 5 1 1 2 3 3 4 4 4 3 3 2 1 1 1 2 4 4 5 5 5 3 1 0 0
0 0 0 1 1 2 1 1 1 1 3 3 4 2 2 4 6 6 3 1 2 3 3 3 2 1 1 0 0 0 0 0 0 0 1 3 4 3 2 1 1 1 0

GFSGL_con_mlcape_093.txt.gz
CAPE
926 1058 1248 1076 1207 893 875 1091 1294 631 561 188 380 729 772 1187 1414 1245 1169 1094 973 920 1067 1552 847 1163 1077 1271 853 904 718 900 680 583 754 653 434 463 683 870 1115 1389 1421
336 731 1381 1591 1460 1081 1058 1575 1110 837 782 651 90 0 342 796 1362 1421 1197 987 1030 712 903 1048 818 856 1119 1791 1394 784 1358 1104 1072 779 447 840 1274 1196 1064 774 1044 1889 1572
92 282 971 1723 1816 1319 1396 1523 1660 1441 949 806 789 651 856 1030 1553 1386 1167 975 1385 1134 1220 1275 1185 1107 915 939 748 778 1135 1157 1324 1396 1250 1276 1386 1007 1036 1036 1290 1315 875
46 102 214 341 820 1488 1929 1829 1811 1778 1666 1445 1329 1280 1542 1568 1394 1564 1499 1132 1118 1118 1414 1810 1651 1461 1258 1198 1234 1088 984 994 1011 972 1002 829 1052 1340 899 1060 712 717 510
6 22 1 146 332 292 408 1412 1688 1658 1967 1788 1366 1156 1709 1754 1410 1261 1463 1637 1418 1297 944 1214 1705 1679 1912 1928 1727 1470 1359 1177 1637 1555 1576 1730 1578 1289 465 993 544 313 130
0 14 19 22 18 0 0 427 1424 1536 1663 1765 1885 1682 1351 1441 1751 1484 1387 1284 1448 1567 1350 1350 1473 1572 1433 1589 1805 1828 1561 1214 790 999 1045 1079 934 724 533 141 144 106 75
0 0 0 0 0 8 20 148 344 597 1216 1318 1284 1259 1601 1840 1545 1124 797 759 1264 1568 1585 1647 1479 1482 1413 1332 1543 1362 1024 742 815 734 222 88 76 86 185 234 206 332 507
0 0 0 0 0 0 0 0 13 32 273 565 978 1353 1370 1341 1452 1347 1297 815 830 878 1208 1822 1797 1651 1472 1188 1472 1556 1649 1361 1226 1033 962 859 593 570 547 546 496 632 1044
0 0 0 0 0 0 0 0 0 0 0 24 238 512 1090 1119 1163 1305 1247 1275 1023 1036 1009 928 1005 1551 1771 1756 1568 1278 1369 1682 1736 1439 1422 1412 1426 1159 752 933 873 866 618
0 0 0 0 0 0 0 0 0 0 0 0 0 58 249 661 758 817 777 939 1055 1091 1272 1191 955 835 604 580 989 1127 1153 1483 1748 1763 1344 1078 1117 1226 987 721 811 601 613
0 0 0 0 0 0 0 0 0 0 0 0 0 2 137 437 273 201 387 608 832 994 1102 1195 1304 1011 698 369 169 400 562 498 554 1106 1428 1411 1319 1232 1109 895 728 615 550
0 0 0 0 0 0 0 0 0 0 0 0 0 0 21 0 0 0 5 5 0 103 487 711 967 529 324 310 383 452 305 267 257 290 469 743 991 1092 1124 989 935 751 687
0 0 0 0 0 0 0 0 0 0 0 0 0 0 0 0 0 0 0 0 0 0 0 0 0 0 4 356 310 356 168 118 129 174 197 312 357 467 648 723 583 374 385
0 0 0 0 0 0 0 0 0 0 0 0 0 0 0 0 0 0 0 0 0 0 0 0 0 0 0 3 65 329 353 479 481 345 348 216 114 197 374 525 584 606 501
0 0 0 0 0 0 0 0 0 0 0 0 0 0 0 0 0 0 0 0 0 0 0 0 0 0 0 0 3 169 675 1046 691 464 349 377 388 387 459 481 543 574 535
0 0 0 0 0 0 0 0 0 0 0 0 0 0 0 0 0 0 0 0 0 0 0 0 0 0 0 0 0 0 39 370 791 732 569 548 621 630 655 700 703 678 573
0 0 0 0 0 0 0 0 0 0 0 0 0 0 0 0 0 0 0 0 0 0 0 0 0 0 0 0 0 0 0 160 420 462 979 956 757 658 674 724 698 604 513
0 0 0 0 0 0 0 0 0 0 0 0 0 0 0 0 0 0 0 0 0 0 0 0 0 0 1 5 9 8 47 43 69 350 586 588 578 635 831 853 667 140 326
0 0 0 0 0 0 0 0 0 1 0 0 0 0 0 0 0 0 0 0 0 0 0 0 4 3 1 3 3 2 0 0 2 229 620 573 540 490 245 320 203 35 68
0 0 0 0 0 0 0 0 0 0 2 1 0 0 0 0 0 0 0 0 0 5 16 0 0 1 4 3 1 1 0 1 2 3 500 592 569 371 301 389 321 396 398
0 0 0 0 0 0 0 0 0 0 0 1 2 1 2 0 0 0 0 0 0 2 0 0 0 1 3 3 3 1 0 1 4 7 5 421 481 453 412 377 390 365 366
0 0 0 0 0 0 0 0 0 0 0 0 0 0 0 2 5 3 0 0 2 0 0 0 0 0 1 2 3 4 5 6 5 6 8 4 6 9 51 25 1 0 0
0 0 0 0 0 0 0 0 1 1 1 2 1 1 2 2 3 3 0 0 7 2 0 0 0 0 2 3 4 5 6 7 6 6 8 8 7 1 4 17 19 6 7
0 0 0 0 0 0 0 0 0 1 1 1 1 3 3 4 8 0 1 10 6 4 0 0 0 0 1 3 4 4 4 5 5 6 5 6 6 6 4 2 2 18 77
0 0 0 0 0 0 0 0 0 0 1 3 2 2 3 9 9 4 3 3 5 7 0 0 0 1 3 3 3 1 1 0 0 0 4 4 5 6 7 4 3 1 0
0 0 0 0 0 0 0 0 1 1 1 2 2 2 2 6 6 7 7 7 4 3 2 2 1 1 0 0 0 0 0 0 0 0 0 2 3 7 6 4 0 0 0

GFSGL_con_mlcape_096.txt.gz
CAPE
526 567 428 550 604 252 328 1011 870 763 761 878 973 873 1053 1339 1425 1055 1022 1042 900 816 754 967 1298 910 1017 1101 1253 741 816 878 599 641 797 618 758 843 1136 965 1003 1108 1373
310 422 518 634 536 757 577 855 821 757 544 766 467 517 680 848 1101 1384 1183 1156 879 757 867 634 787 902 551 835 945 710 733 845 887 692 810 894 763 982 1042 751 865 1035 853
109 216 290 405 605 618 809 872 878 851 565 448 282 137 61 358 746 1135 1406 1227 1113 1287 882 849 927 783 582 468 570 565 577 681 817 725 695 919 722 678 990 953 597 489 254
3 55 44 157 246 422 696 834 824 1071 883 764 638 578 518 443 789 1077 1446 1195 1030 958 1161 1137 1372 1361 1292 1162 1146 1057 1024 982 757 846 964 864 971 1283 1280 950 238 80 15
72 11 12 32 93 0 6 148 608 967 1069 1263 1274 1256 1216 1308 1405 1415 1433 1399 1309 1154 1133 1053 1095 1428 1539 1518 1636 1579 1543 1302 1185 905 714 830 729 583 424 534 321 117 139
0 0 16 22 7 40 9 15 217 420 995 1183 1452 1401 1311 1231 1507 1461 1430 1390 1345 1218 1134 1126 1254 1042 1229 1399 1352 1369 1711 1709 1492 1275 908 722 288 149 124 170 204 332 329
0 0 1 14 1 3 12 7 46 143 243 454 1042 1347 1345 1399 1455 1323 1165 972 1146 1239 1245 1305 1319 1349 1386 1400 1239 1169 958 1106 1408 1389 1145 824 812 675 473 472 428 551 529
0 0 0 0 0 0 0 0 0 1 8 67 198 482 886 1168 1264 1233 1109 956 838 813 875 1014 1121 1374 1509 1463 1369 1260 1119 1120 1046 826 850 882 796 847 690 799 703 646 760
0 0 0 0 0 0 0 0 0 0 0 0 0 32 147 390 520 540 672 1044 1092 1015 971 944 947 1043 996 933 981 1180 1231 1258 1341 1233 1108 1120 1091 923 863 878 1272 1115 816
0 0 0 0 0 0 0 0 0 0 0 0 0 0 0 48 102 85 200 572 745 797 903 902 809 851 895 849 837 859 827 758 777 755 885 812 780 834 813 666 900 833 648
0 0 0 0 0 0 0 0 0 0 0 0 0 1 64 0 0 0 16 152 168 306 532 736 728 150 120 227 119 206 405 288 224 227 372 587 766 768 750 612 602 775 641
0 0 0 0 0 0 0 0 0 0 0 0 0 0 0 0 0 0 0 0 0 0 0 0 0 0 0 0 127 425 350 101 176 335 395 464 503 544 695 854 744 603 698
0 0 0 0 0 0 0 0 0 0 0 0 0 0 0 0 0 0 0 0 0 0 0 0 0 0 0 0 0 2 0 21 275 271 346 384 299 314 365 413 556 643 711
0 0 0 0 0 0 0 0 0 0 0 0 0 0 0 0 0 0 0 0 0 0 0 0 0 0 0 0 0 0 0 0 10 177 336 488 409 200 134 211 278 279 297
0 0 0 0 0 0 0 0 0 0 0 0 0 0 0 0 0 0 0 0 0 0 0 0 0 0 0 0 0 0 0 0 0 39 115 315 500 440 327 108 96 246 355
0 0 0 0 0 0 0 0 0 0 0 0 0 0 0 0 0 0 0 0 0 0 0 0 0 0 0 0 0 0 0 0 0 4 29 122 217 334 468 441 317 378 489
0 0 0 0 0 0 0 0 0 0 0 0 0 0 0 0 0 0 0 0 0 0 0 0 0 0 0 0 0 3 11 12 5 10 12 49 147 266 335 427 516 527 590
0 0 0 0 0 0 0 0 0 0 0 0 0 0 0 0 0 0 0 0 0 0 0 0 0 0 3 1 0 0 1 3 0 1 1 0 0 166 470 573 577 582 536
0 0 0 0 0 0 0 0 0 0 0 0 0 0 0 0 0 0 0 0 0 0 0 0 7 1 0 0 0 0 2 1 2 2 3 2 4 6 234 337 399 401 438
0 0 0 0 0 0 0 0 0 0 0 0 0 0 0 0 0 0 0 0 0 0 0 0 0 1 3 4 2 3 2 2 2 2 2 3 3 3 5 223 211 104 80
0 0 0 0 0 0 0 0 0 0 0 0 0 0 0 0 0 0 0 1 3 10 9 0 0 0 0 0 1 0 0 1 1 2 3 3 4 2 6 5 8 135 351
0 0 0 0 0 0 0 0 0 0 0 0 0 0 0 0 0 0 1 0 1 1 0 5 8 0 0 0 0 2 2 1 0 3 5 5 5 6 8 7 6 6 3
0 0 0 0 0 0 0 0 0 0 0 0 0 0 0 1 2 1 1 2 4 4 4 21 10 2 0 0 2 2 3 2 2 4 6 7 8 8 9 10 8 6 6
0 0 0 0 0 0 0 0 0 0 0 0 0 1 2 2 1 1 1 4 4 6 5 6 7 7 0 1 1 1 3 3 4 4 4 5 7 8 8 9 9 8 6
0 0 0 0 0 0 0 0 0 0 0 0 0 1 3 4 4 3 2 4 5 6 8 15 8 4 2 2 2 1 1 1 1 1 2 3 3 5 6 8 9 9 6
0 0 0 0 0 0 0 0 0 0 0 0 0 1 2 2 2 3 2 5 8 7 4 2 6 6 5 2 1 1 0 0 0 0 0 0 0 3 5 6 6 7 6

GFSGL_con_mlcape_099.txt.gz
CAPE
392 377 304 345 393 414 301 338 673 720 688 818 841 922 1008 1003 1050 1040 1056 1039 905 812 772 774 747 1057 912 1039 1235 904 823 709 627 563 570 676 662 682 799 725 676 623 299
314 489 548 579 519 520 484 298 605 815 702 762 722 735 829 965 1100 1237 1112 1022 1006 896 772 748 686 739 797 564 595 590 703 729 710 432 437 418 421 626 826 802 1044 577 6
82 187 301 334 457 577 679 631 572 724 570 536 572 502 410 458 665 893 1116 1152 1161 1035 864 1049 674 873 973 908 651 850 753 824 865 727 582 731 738 740 917 949 788 169 105
78 31 31 54 7 51 195 362 533 755 650 689 513 371 127 99 119 440 719 1051 1254 1180 1042 859 909 929 1174 1232 1149 1136 1148 1140 1068 984 931 669 672 730 549 243 3 126 120
115 34 8 52 41 17 6 35 199 380 728 774 708 598 519 455 575 664 896 1126 1292 1220 1039 1030 1051 1104 999 1124 1189 1144 1210 1101 1326 1298 1130 1053 896 602 446 320 253 238 256
60 84 52 31 33 14 10 14 11 24 197 344 763 1045 1099 1127 1270 1173 1348 1390 1433 1353 1176 1112 1005 1065 1066 1000 817 860 1169 1117 1078 1183 1218 1103 1061 922 642 616 590 505 458
2 1 0 0 0 4 0 0 0 0 14 80 167 388 641 815 829 687 713 963 1149 1108 1167 1206 1094 1038 1002 1150 1202 1164 1114 902 908 1033 1046 1033 946 889 647 564 483 498 501
0 0 0 1 0 0 0 0 0 0 0 0 1 30 138 307 327 363 467 679 745 729 715 842 885 913 968 1005 1052 1099 1158 1185 1070 785 761 905 891 801 646 747 714 594 524
0 0 0 0 0 0 0 0 0 0 0 0 0 0 0 41 60 44 113 387 619 661 646 572 726 853 895 818 829 854 848 812 853 772 710 742 672 614 546 548 638 706 758
0 0 0 0 0 0 0 0 0 0 0 0 0 15 87 69 1 0 11 158 210 220 352 524 344 203 70 49 290 557 779 794 684 507 390 367 316 369 310 181 483 540 580
0 0 0 0 0 0 0 0 0 0 0 0 0 55 0 0 0 0 0 0 0 0 0 0 0 0 0 0 0 39 242 125 278 365 477 446 407 464 561 384 314 482 573
0 0 0 0 0 0 0 0 0 0 0 0 0 0 0 0 0 0 0 0 0 0 0 0 0 0 0 0 0 0 0 0 0 0 71 317 400 398 344 333 419 357 420
0 0 0 0 0 0 0 0 0 0 0 0 0 0 0 0 0 0 0 0 0 0 0 0 0 0 0 0 0 0 0 0 0 0 0 6 135 229 243 267 226 229 333
0 0 0 0 0 0 0 0 0 0 0 0 0 0 0 0 0 0 0 0 0 0 0 0 0 0 0 0 0 0 0 0 0 0 0 0 67 168 226 263 231 186 125
0 0 0 0 0 0 0 0 0 0 0 0 0 0 0 0 0 0 0 0 0 0 0 0 0 0 0 0 0 0 0 0 0 2 1 1 6 24 73 177 182 91 115
0 0 0 0 0 0 0 0 0 0 0 0 0 0 0 0 0 0 0 0 0 0 0 0 0 0 0 0 0 0 0 1 0 1 2 2 3 3 17 74 175 176 213
0 0 0 0 0 0 0 0 0 0 0 0 0 0 0 0 0 0 0 0 0 0 0 0 0 0 0 0 4 0 0 0 0 0 0 0 0 0 1 6 3 163 252
0 0 0 0 0 0 0 0 0 0 0 0 0 0 0 0 0 0 0 0 0 0 0 0 0 2 1 0 0 0 0 0 0 0 0 2 2 2 1 2 3 6 133
0 0 0 0 0 0 0 0 0 0 0 0 0 0 0 0 0 0 0 0 0 0 0 0 0 0 0 0 0 0 1 2 2 1 1 0 0 2 1 3 4 3 4
0 0 0 0 0 0 0 0 0 0 0 0 0 0 0 0 0 0 0 0 0 0 2 1 1 5 6 4 0 0 0 0 2 1 0 1 1 1 1 3 2 6 4
0 0 0 0 0 0 0 0 0 0 0 0 0 0 0 0 0 0 0 0 1 1 2 3 4 2 0 7 4 2 2 1 1 1 0 1 2 0 0 0 2 3 4
0 0 0 0 0 0 0 0 0 0 0 0 0 0 0 0 0 0 0 0 1 1 0 3 7 9 4 14 5 3 2 4 1 2 0 0 2 1 0 1 1 2 4
0 0 0 0 0 0 0 0 0 0 0 0 0 0 0 0 0 0 0 1 0 2 9 10 4 2 0 3 8 13 10 5 0 2 1 1 1 1 1 1 1 0 3
0 0 0 0 0 0 0 0 0 0 0 0 0 0 0 0 0 1 1 2 2 3 6 5 4 2 2 4 7 11 10 8 5 2 2 3 2 1 1 4 6 4 5
0 0 0 0 0 0 0 0 0 0 0 0 0 0 0 0 0 0 1 1 1 3 3 8 9 3 3 3 5 8 5 2 0 1 1 2 4 5 5 4 6 7 6
0 0 0 0 0 0 0 0 0 0 0 0 0 0 0 0 0 1 1 2 2 2 5 5 7 7 6 7 5 2 0 0 0 0 0 3 4 4 5 5 4 6 6

GFSGL_con_mlcape_102.txt.gz
CAPE
115 105 128 174 250 351 368 259 299 390 495 503 545 680 730 809 934 926 857 888 952 831 733 745 779 822 926 852 1142 871 731 467 250 354 389 491 423 522 585 776 1094 1159 486
206 218 217 232 300 269 292 325 272 344 498 472 569 716 758 807 895 892 948 878 869 814 781 690 719 665 618 708 678 522 558 633 538 410 538 510 477 700 825 917 914 491 208
89 147 225 228 312 203 250 327 464 508 525 393 331 525 636 608 682 684 692 944 828 757 573 527 788 630 809 889 842 589 707 715 768 910 966 828 844 812 720 482 350 373 379
21 8 18 0 0 7 28 87 188 448 569 377 379 374 309 184 122 290 432 589 812 949 800 732 776 687 756 900 1065 1127 1051 1003 1027 958 1093 1136 1011 1096 825 677 872 772 659
65 27 21 27 0 0 0 0 1 79 215 540 587 582 460 297 238 245 266 341 710 899 1041 1067 1025 930 863 975 1020 881 987 934 921 948 894 958 887 834 919 916 858 610 541
93 83 35 8 14 0 0 0 0 0 0 53 223 526 625 737 791 675 723 974 1114 1183 1310 1377 1259 1130 1012 944 808 869 968 1030 1126 1115 1073 851 784 770 796 749 653 572 463
7 3 1 14 1 0 0 0 0 0 0 0 1 68 199 395 224 295 416 647 759 959 1074 1093 1048 1133 1041 1047 933 766 836 836 938 1234 1143 1053 885 845 849 831 657 526 531
0 0 1 3 0 0 0 0 0 0 0 0 0 0 0 59 1 0 53 307 477 526 487 494 536 681 644 611 701 815 918 904 800 559 654 778 875 815 699 630 523 394 395
0 0 0 0 0 0 0 0 0 0 0 0 0 37 61 0 0 0 9 143 92 89 207 284 252 277 0 0 329 607 776 829 769 602 512 469 429 317 225 201 495 494 567
0 0 0 0 0 0 0 0 0 0 0 0 15 1 0 0 0 0 0 0 0 0 0 0 0 0 0 0 0 17 278 400 339 351 468 478 381 457 257 138 466 602 654
0 0 0 0 0 0 0 0 0 0 0 0 0 0 0 0 0 0 0 0 0 0 0 0 0 0 0 0 0 0 0 0 0 0 37 86 128 142 195 211 167 301 450
0 0 0 0 0 0 0 0 0 0 0 0 0 0 0 0 0 0 0 0 0 0 0 0 0 0 0 0 0 0 0 0 0 0 0 0 0 0 41 102 188 142 198
0 0 0 0 0 0 0 0 0 0 0 0 0 0 0 0 0 0 0 0 0 0 0 0 0 0 0 0 0 0 0 0 0 0 0 0 1 2 39 99 142 113 131
0 0 0 0 0 0 0 0 0 0 0 0 0 0 0 0 0 0 0 0 0 0 0 0 0 0 0 0 0 0 0 0 4 5 5 9 10 10 10 40 61 78 67
0 0 0 0 0 0 0 0 0 0 0 0 0 0 0 0 0 0 0 0 0 0 0 0 0 0 0 0 0 0 0 3 0 0 0 0 0 0 0 2 1 0 3
0 0 0 0 0 0 0 0 0 0 0 0 0 0 0 0 0 0 0 0 0 0 0 0 0 0 0 0 0 4 3 0 0 0 0 0 0 0 0 0 4 3 1
0 0 0 0 0 0 0 0 0 0 0 0 0 0 0 0 0 0 0 0 0 0 0 0 0 0 2 5 8 1 0 0 0 0 0 1 0 0 0 0 0 1 0
0 0 0 0 0 0 0 0 0 0 0 0 0 0 0 0 0 0 0 0 0 0 0 0 0 2 1 2 2 3 1 0 0 0 0 3 3 2 0 0 0 0 0
0 0 0 0 0 0 0 0 0 0 0 0 0 0 0 0 0 0 0 0 0 0 0 0 0 0 0 0 0 5 4 4 3 2 1 1 1 2 1 1 3 1 0
0 0 0 0 0 0 0 0 0 0 0 0 0 0 0 0 0 0 0 0 0 0 0 0 0 1 1 0 0 0 1 9 4 3 1 0 1 0 0 2 2 1 3
0 0 0 0 0 0 0 0 0 0 0 0 0 0 0 0 0 0 0 0 0 0 1 2 4 4 4 5 5 7 8 3 8 3 2 5 4 2 2 2 1 1 3
0 0 0 0 0 0 0 0 0 0 0 0 0 0 0 0 0 0 0 0 0 0 1 1 3 2 4 5 5 6 7 2 6 8 4 7 2 3 1 2 2 1 3
0 0 0 0 0 0 0 0 0 0 0 0 0 0 0 0 0 0 0 1 1 1 1 2 3 3 7 8 11 8 4 2 3 4 6 9 8 2 3 3 1 1 1
0 0 0 0 0 0 0 0 0 0 0 0 0 0 0 0 0 0 0 0 0 0 0 3 4 3 4 6 8 7 6 5 10 17 12 15 8 2 4 1 1 1 1
0 0 0 0 0 0 0 0 0 0 0 0 0 0 0 0 0 0 0 0 0 0 0 1 2 3 4 4 3 7 4 0 0 0 2 2 3 4 3 2 3 3 3
0 0 0 0 0 0 0 0 0 0 0 0 0 0 0 0 0 0 0 0 0 1 2 2 1 2 3 3 3 2 0 0 1 0 1 3 3 3 2 3 3 4 4

GFSGL_con_mlcape_105.txt.gz
CAPE
147 403 375 352 621 623 578 411 700 742 769 668 797 793 932 1077 1230 1414 1362 1239 1269 1632 1342 1286 1282 1566 1319 1438 1710 1847 1467 1307 791 550 1130 1067 1351 1671 1507 1646 1234 940 439
174 216 297 330 400 545 609 442 496 390 806 912 983 658 744 1072 1307 1227 1319 1392 1193 1139 1201 1300 1388 1343 1317 1330 1398 1489 1186 1408 1168 1217 1373 1386 1753 1948 1940 1998 1362 1377 1658
275 209 388 247 337 476 664 677 486 642 901 809 727 776 807 610 1025 1076 1045 1153 924 894 1172 860 982 1230 1057 1271 1427 1538 1080 1452 1528 1512 1447 1674 1877 1840 1900 1634 1880 1998 1308
109 94 132 272 357 335 294 350 564 828 963 763 770 745 804 710 620 547 784 750 799 863 819 1080 1032 1114 1022 1147 1286 1172 1059 1067 1209 1285 1429 1327 1435 1668 1692 1337 1209 1224 1141
19 2 3 10 67 74 74 81 166 364 577 833 892 759 738 612 529 630 692 828 746 1218 1186 880 1052 1080 886 968 1177 1166 1117 952 759 744 1005 1048 1101 951 989 1102 1087 899 542
86 21 15 2 39 29 27 0 0 66 147 412 625 783 820 790 207 293 638 1331 1375 1545 1590 1580 1370 1187 1016 667 624 558 724 1064 1127 796 968 1135 1644 1529 1057 1078 1015 831 588
62 78 16 1 0 0 13 0 0 0 52 74 129 282 308 111 0 42 167 1069 1201 1281 1250 1371 1144 1237 1199 1319 1150 827 774 601 582 1182 1278 1660 1659 1597 1516 1418 1086 1183 1063
0 1 1 2 0 0 0 0 0 0 0 45 139 192 0 0 0 0 114 716 823 625 592 536 648 299 1 0 478 1048 1351 1480 1643 1352 1206 1327 1506 1507 1612 1428 1336 1059 1071
0 0 0 0 0 0 0 0 0 0 0 54 71 3 0 0 0 0 0 1 0 0 0 0 0 0 0 0 6 42 313 893 1082 521 255 199 184 118 79 367 855 957 1094
0 0 0 0 0 0 0 0 0 1 2 0 0 0 0 0 0 0 0 0 0 0 0 0 0 0 0 0 0 0 0 0 0 0 154 454 505 867 361 308 720 930 920
0 0 0 0 0 0 0 0 0 0 0 0 0 0 0 0 0 0 0 0 0 0 0 0 0 0 0 0 0 0 0 0 0 0 0 0 0 0 58 311 658 682 675
0 0 0 0 0 0 0 0 0 0 0 0 0 0 0 0 0 0 0 0 0 0 0 0 0 0 0 0 0 0 0 0 0 0 0 0 0 1 7 29 102 240 432
0 0 0 0 0 0 0 0 0 0 0 0 0 0 0 0 0 0 0 0 0 0 0 0 0 0 0 0 0 0 0 0 1 3 3 2 1 0 0 1 5 33 241
0 0 0 0 0 0 0 0 0 0 0 0 0 0 0 0 0 0 0 0 0 0 0 0 0 0 0 0 0 0 0 0 1 0 0 0 0 0 0 0 0 0 0
0 0 0 0 0 0 0 0 0 0 0 0 0 0 0 0 0 0 0 0 0 0 0 0 0 0 0 0 0 0 0 5 1 0 0 0 0 0 0 0 0 0 0
0 0 0 0 0 0 0 0 0 0 0 0 0 0 0 0 0 0 0 0 0 0 0 0 0 0 0 1 2 3 2 6 4 3 0 0 0 0 0 0 0 0 0
0 0 0 0 0 0 0 0 0 0 0 0 0 0 0 0 0 0 0 0 0 0 0 0 0 0 0 0 0 0 1 1 2 3 3 2 2 1 0 0 0 0 0
0 0 0 0 0 0 0 0 0 0 0 0 0 0 0 0 0 0 0 0 0 0 0 0 0 0 0 0 0 0 1 2 4 5 2 7 2 4 3 1 1 1 0
0 0 0 0 0 0 0 0 0 0 0 0 0 0 0 0 0 0 0 0 0 0 0 0 0 0 0 0 0 0 0 0 1 3 4 3 3 1 1 1 2 2 1
0 0 0 0 0 0 0 0 0 0 0 0 0 0 0 0 0 0 0 0 0 0 0 0 0 0 0 0 0 0 0 1 0 0 0 9 3 1 3 4 3 3 3
0 0 0 0 0 0 0 0 0 0 0 0 0 0 0 0 0 0 0 0 0 0 0 0 0 0 0 0 0 0 0 0 1 3 5 10 10 1 2 4 3 2 2
0 0 0 0 0 0 0 0 0 0 0 0 0 0 0 0 0 0 0 0 0 0 0 1 2 2 1 8 5 7 6 5 4 6 10 5 1 1 3 5 3 4 3
0 0 0 0 0 0 0 0 0 0 0 0 0 0 0 0 0 0 0 0 0 0 1 1 4 1 2 3 4 9 10 8 6 8 6 5 6 3 2 1 2 4 4
0 0 0 0 0 0 0 0 0 0 0 0 0 0 0 0 0 0 0 0 0 0 0 1 2 3 5 6 6 3 7 7 7 4 9 5 4 4 4 3 3 4 4
0 0 0 0 0 0 0 0 0 0 0 0 0 0 0 0 0 0 0 0 0 0 0 1 1 2 3 2 5 5 5 0 0 0 3 5 4 4 4 2 2 2 3
0 0 0 0 0 0 0 0 0 0 0 0 0 0 0 0 0 0 0 0 0 0 1 3 2 2 2 3 3 1 0 0 0 0 0 3 3 3 3 3 3 3 2

GFSGL_con_mlcape_108.txt.gz
CAPE
535 511 445 513 399 817 601 533 746 848 1076 951 981 995 819 1109 1430 1552 1290 1112 1267 1296 1208 1378 1260 1390 809 707 856 870 688 652 707 388 535 607 1230 1491 1693 1889 1273 701 492
570 438 750 497 397 333 591 471 716 604 906 765 845 995 1045 1092 1311 1281 1203 1021 1246 1208 1202 1242 1191 1036 1622 1372 971 806 797 1019 793 629 733 666 938 1442 1479 2073 1482 819 770
695 565 613 625 323 400 474 704 585 703 656 821 818 820 743 932 938 912 1172 1157 1192 1001 923 998 1127 1162 1398 1197 1471 1023 816 840 985 954 853 598 683 1067 1095 1084 992 882 496
694 684 706 577 283 493 668 873 686 552 658 690 688 757 664 1056 874 1031 961 902 948 982 1044 985 1047 1053 1132 1306 1264 1404 1263 1233 853 1042 676 565 514 657 945 484 357 349 392
145 388 457 598 638 681 811 837 896 1044 920 957 784 872 904 885 739 1307 1314 1319 1426 1205 1289 1250 1025 1005 808 822 986 1006 1211 1099 880 761 631 503 513 1233 677 553 374 296 345
41 11 12 62 89 231 382 439 555 669 912 1183 1171 1041 1019 827 35 188 504 1515 1405 1320 1252 1299 1194 1137 1137 1045 725 674 764 1157 1240 1103 658 546 830 1048 688 637 921 814 885
98 47 10 5 0 0 2 124 292 368 415 501 840 833 202 49 0 21 118 946 1305 1246 1324 1479 1400 566 488 925 1278 950 882 834 830 1267 1167 1286 1332 1388 1434 1690 1478 1488 1416
11 29 14 12 12 0 0 2 44 176 276 321 166 50 0 0 0 13 301 1113 733 312 237 158 92 2 0 0 318 1056 1349 1383 1315 1609 1750 1726 1760 1437 1420 1360 1261 1444 1400
1 0 1 0 2 6 1 0 0 7 166 52 0 0 0 0 0 0 32 143 101 79 1 0 0 0 0 0 1 94 214 533 755 235 116 112 172 265 299 698 976 954 988
0 0 0 0 0 0 0 0 11 3 1 0 0 0 0 0 0 0 0 0 0 0 0 0 0 0 0 0 0 0 0 0 0 0 0 119 315 637 281 671 976 811 952
0 0 0 0 0 0 1 8 5 1 0 0 0 0 0 0 0 0 0 0 0 0 0 0 0 0 0 0 0 0 0 0 0 0 0 10 26 57 101 203 223 281 264
0 0 0 0 0 0 0 2 0 0 0 0 0 0 0 0 0 0 0 0 0 0 0 0 0 0 0 0 0 0 0 0 0 0 0 1 0 0 0 0 1 14 52
0 0 0 0 0 0 0 0 0 0 0 0 0 0 0 0 0 0 0 0 0 0 0 0 0 0 0 0 0 0 0 0 0 0 0 0 0 0 0 0 0 0 0
0 0 0 0 0 0 0 0 0 0 0 0 0 0 0 0 0 0 0 0 0 0 0 0 0 0 0 0 0 0 0 1 0 0 0 0 0 0 0 0 0 0 0
0 0 0 0 0 0 0 0 0 0 0 0 0 0 0 0 0 0 0 0 0 0 0 0 0 0 0 0 0 0 0 0 0 0 0 0 0 0 0 0 0 0 0
0 0 0 0 0 0 0 0 0 0 0 0 0 0 0 0 0 0 0 0 0 0 0 0 0 0 0 0 0 0 0 0 0 0 0 0 0 0 0 0 0 0 0
0 0 0 0 0 0 0 0 0 0 0 0 0 0 0 0 0 0 0 0 0 0 0 0 0 0 0 0 0 0 0 0 0 0 0 0 0 0 0 0 0 0 0
0 0 0 0 0 0 0 0 0 0 0 0 0 0 0 0 0 0 0 0 0 0 0 0 0 0 0 0 0 0 0 0 0 0 0 0 0 0 0 0 0 0 0
0 0 0 0 0 0 0 0 0 0 0 0 0 0 0 0 0 0 0 0 0 0 0 0 0 0 0 0 0 0 0 0 0 0 0 0 0 1 1 0 0 0 1
0 0 0 0 0 0 0 0 0 0 0 0 0 0 0 0 0 0 0 0 0 0 0 0 0 0 0 0 0 0 0 0 0 0 0 0 0 0 1 4 3 3 2
0 0 0 0 0 0 0 0 0 0 0 0 0 0 0 0 0 0 0 0 0 0 0 0 0 0 0 0 0 0 0 0 0 0 0 0 0 0 2 6 5 1 1
0 0 0 0 0 0 0 0 0 0 0 0 0 0 0 0 0 0 0 0 0 0 0 0 0 0 0 0 0 0 0 0 1 2 4 4 5 4 4 2 3 1 1
0 0 0 0 0 0 0 0 0 0 0 0 0 0 0 0 0 0 0 0 0 0 0 0 0 0 0 1 1 2 4 4 6 10 6 7 7 6 6 4 3 4 2
0 0 0 0 0 0 0 0 0 0 0 0 0 0 0 0 0 0 0 0 0 0 0 0 0 0 1 1 1 2 2 2 4 6 8 5 5 4 4 3 3 1 0
0 0 0 0 0 0 0 0 0 0 0 0 0 0 0 0 0 0 0 0 0 0 0 0 0 0 0 0 0 2 0 0 1 0 2 9 6 5 3 3 2 2 3
0 0 0 0 0 0 0 0 0 0 0 1 0 0 0 0 0 0 0 0 0 0 0 0 0 0 0 0 0 0 0 0 0 0 0 3 3 3 1 2 3 2 2

GFSGL_con_mlcape_111.txt.gz
CAPE
712 695 512 373 377 537 702 727 937 1069 1305 1417 1242 1118 1252 1268 1303 1482 1579 1445 1396 1189 1139 1250 1217 1367 1113 580 684 580 452 358 472 506 392 261 749 1368 1351 1706 1105 1520 539
969 959 836 780 446 294 417 604 749 1034 1088 1147 1298 1366 1128 1252 1296 1440 1256 1057 1159 1234 1126 976 928 669 1288 1445 655 625 507 584 417 546 461 804 712 1046 1213 1770 1066 829 642
1058 1007 842 1044 682 439 303 333 618 1081 1173 1040 1135 1259 1430 1424 1582 1658 1460 1410 1402 1171 1085 1058 988 973 1458 1414 1632 1115 771 1045 1185 958 734 411 618 728 901 1147 1367 775 373
732 730 853 912 964 617 453 333 426 677 978 1011 1130 1050 1070 1165 1386 1290 1206 1296 1215 979 921 929 1036 1047 1139 1402 1377 1378 1318 1134 964 844 758 506 462 1125 1441 474 449 284 314
62 173 616 917 1057 778 901 720 499 461 739 765 881 855 1003 951 816 924 1276 1329 1305 1101 1027 1174 1117 1085 841 726 703 867 1439 962 1130 870 647 483 378 1078 409 593 589 598 910
105 111 248 574 612 879 825 814 677 707 895 805 758 830 971 91 7 47 233 1075 1273 1259 1146 1230 865 1139 1489 772 889 699 717 1046 1366 1205 1081 742 1017 1139 1073 1238 1418 1337 1201
159 119 98 150 98 116 152 456 562 557 681 766 977 634 194 0 0 0 69 530 989 1235 1310 1800 1631 558 273 581 929 669 867 833 691 999 1156 1479 1317 1490 1550 1748 1584 1624 1409
161 96 21 2 0 0 0 0 52 216 337 564 197 14 0 0 0 0 64 1212 745 656 531 435 316 10 0 0 0 695 1038 1056 1245 1240 1559 1430 1351 970 677 1019 1246 1081 1422
1 4 6 36 39 21 3 0 1 60 84 50 12 0 0 0 0 0 113 495 442 163 0 0 0 0 0 0 0 0 17 206 179 0 0 0 0 0 148 523 844 823 783
4 1 0 1 1 29 63 60 62 37 8 0 0 0 0 0 0 0 0 72 129 57 11 0 0 0 0 0 0 0 0 0 0 0 0 60 119 389 182 322 529 611 408
0 0 0 1 1 2 4 22 3 0 0 0 0 0 0 0 0 0 0 0 0 0 0 0 0 0 0 0 0 0 0 0 0 0 0 9 0 4 4 0 0 0 0
0 0 0 0 1 6 2 3 2 0 0 0 0 0 0 0 0 0 0 0 0 0 0 0 0 0 0 0 0 0 0 0 0 0 0 0 0 0 0 0 0 0 0
0 0 0 0 0 5 6 0 0 0 1 3 0 0 0 0 0 0 0 0 0 0 0 0 0 0 0 0 0 0 0 0 0 0 0 0 0 0 0 0 0 0 0
0 0 0 0 0 0 1 1 1 3 1 0 0 0 0 0 0 0 0 0 0 0 0 0 0 0 0 0 0 0 0 0 0 0 0 0 0 0 0 0 0 0 0
0 0 0 0 0 0 0 0 0 0 0 0 0 0 0 0 0 0 0 0 0 0 0 0 0 0 0 0 0 0 0 0 0 0 0 0 0 0 0 0 0 0 0
0 0 0 0 0 0 0 0 0 0 0 0 0 0 0 0 0 0 0 0 0 0 0 0 0 0 0 0 0 0 0 0 0 0 0 0 0 0 0 0 0 0 0
0 0 0 0 0 0 0 0 0 0 0 0 0 0 0 0 0 0 0 0 0 0 0 0 0 0 0 0 0 0 0 0 0 0 0 0 0 0 0 0 0 0 0
0 0 0 0 0 0 0 0 0 0 0 0 0 0 0 0 0 0 0 0 0 0 0 0 0 0 0 0 0 0 0 0 0 0 0 0 0 0 0 0 0 0 0
0 0 0 0 0 0 0 0 0 0 0 0 0 0 0 0 0 0 0 0 0 0 0 0 0 0 0 0 0 0 0 0 0 0 0 0 0 0 0 0 0 0 0
0 0 0 0 0 0 0 0 0 0 0 0 0 0 0 0 0 0 0 0 0 0 0 0 0 0 0 0 0 0 0 0 0 0 0 0 0 0 0 0 0 0 0
0 0 0 0 0 0 0 0 0 0 0 0 0 0 0 0 0 0 0 0 0 0 0 0 0 0 0 0 0 0 0 0 0 0 0 0 0 0 0 0 0 0 0
0 0 0 0 0 0 0 0 0 0 0 0 0 0 0 0 0 0 0 0 0 0 0 0 0 0 0 0 0 0 0 0 0 0 0 0 0 0 0 0 0 0 0
0 0 0 0 0 0 0 0 0 0 0 0 0 0 0 0 0 0 0 0 0 0 0 0 0 0 0 0 0 0 0 0 0 1 1 3 3 3 1 1 1 1 2
0 0 0 0 0 0 0 0 0 0 0 0 0 0 0 0 0 0 0 0 0 0 0 0 0 0 0 0 0 0 0 0 0 1 2 4 4 5 5 1 0 2 3
0 0 0 0 0 0 0 0 0 0 0 0 0 0 0 0 0 0 0 0 0 0 0 0 0 0 0 0 0 1 0 0 0 0 0 5 4 2 1 1 1 2 2
0 0 0 1 1 0 0 0 0 0 0 0 0 2 2 1 2 1 1 0 0 1 3 3 3 1 0 0 0 0 0 0 0 0 0 0 2 1 1 3 2 2 2

GFSGL_con_mlcape_114.txt.gz
CAPE
692 454 460 413 483 821 720 901 1055 245 44 800 1116 1095 1020 1054 844 1089 1067 763 1161 1326 1296 1131 1030 980 992 794 612 330 112 282 265 224 246 253 520 804 1405 1429 1772 1246 1148
439 210 686 250 466 552 483 652 907 799 1128 894 1296 1205 1280 1152 1024 1177 1042 1039 831 868 1179 1246 813 892 1178 1431 1537 1714 1359 876 976 969 1173 539 514 483 1405 1409 1363 1335 827
197 764 783 917 342 380 406 491 582 1047 1093 1153 976 1135 1178 956 1001 803 1212 1196 995 1084 765 813 709 987 1000 1160 1030 1241 1216 1341 946 1396 719 944 912 1409 857 771 416 1103 785
941 897 879 680 766 484 648 500 322 853 733 847 857 981 1062 771 880 894 1381 1034 1263 949 1103 728 596 772 790 885 1084 939 1221 894 725 1143 933 788 822 1138 1080 1284 1246 1836 1394
307 294 540 493 501 737 742 648 501 594 1004 933 776 855 968 504 115 233 415 604 935 862 979 1049 968 782 540 580 624 722 810 960 1056 676 822 769 1276 1032 1006 1636 1226 1337 1580
56 53 92 90 163 224 361 438 546 424 482 578 667 761 235 0 0 0 83 122 532 330 704 733 454 218 483 497 755 836 745 645 512 572 870 857 1016 1370 1324 1363 1293 1239 1096
190 339 303 238 101 112 109 319 121 368 531 542 536 154 0 0 0 0 6 284 568 1042 991 678 598 9 0 7 52 269 948 764 708 846 927 1025 1021 979 1226 810 527 1102 1164
252 188 127 67 15 1 1 4 56 143 258 61 8 0 0 0 0 0 0 622 701 326 164 238 0 0 0 0 0 125 189 331 430 150 23 0 0 0 83 332 662 763 810
177 110 100 59 1 0 0 0 2 2 0 0 0 0 0 0 0 0 152 582 140 0 0 0 0 0 0 0 0 0 0 0 0 0 0 0 0 0 0 0 288 275 281
1 2 3 0 20 10 0 0 0 0 0 0 0 0 0 0 0 0 0 103 176 19 0 0 0 0 0 0 0 0 0 0 0 0 0 34 20 91 0 0 0 0 0
0 0 0 0 0 0 1 3 0 0 0 0 0 0 0 0 0 0 0 0 0 0 0 0 0 0 0 0 0 0 0 0 0 0 0 1 0 0 0 0 0 0 0
0 0 0 0 0 1 0 0 0 0 0 0 0 0 0 0 0 0 0 0 0 0 0 0 0 0 0 0 0 0 0 0 0 0 0 0 0 0 0 0 0 0 0
0 0 0 0 0 0 0 0 0 0 0 0 0 0 0 0 0 0 0 0 0 0 0 0 0 0 0 0 0 0 0 0 0 0 0 0 0 0 0 0 0 0 0
0 0 0 0 0 0 0 0 0 0 0 0 0 0 0 0 0 0 0 0 0 0 0 0 0 0 0 0 0 0 0 0 0 0 0 0 0 0 0 0 0 0 0
0 0 0 0 0 0 0 0 0 0 0 0 0 0 0 0 0 0 0 0 0 0 0 0 0 0 0 0 0 0 0 0 0 0 0 0 0 0 0 0 0 0 0
0 0 0 0 0 0 0 0 0 0 0 0 0 0 0 0 0 0 0 0 0 0 0 0 0 0 0 0 0 0 0 0 0 0 0 0 0 0 0 0 0 0 0
0 0 0 0 0 0 0 0 0 0 0 0 0 0 0 0 0 0 0 0 0 0 0 0 0 0 0 0 0 0 0 0 0 0 0 0 0 0 0 0 0 0 0
0 0 0 0 0 0 0 0 0 0 0 0 0 0 0 0 0 0 0 0 0 0 0 0 0 0 0 0 0 0 0 0 0 0 0 0 0 0 0 0 0 0 0
0 0 0 0 0 0 0 0 0 0 0 0 0 0 0 0 0 0 0 0 0 0 0 0 0 0 0 0 0 0 0 0 0 0 0 0 0 0 0 0 0 0 0
0 0 0 0 0 0 0 0 0 0 0 0 0 0 0 0 0 0 0 0 0 0 0 0 0 0 0 0 0 0 0 0 0 0 0 0 0 0 0 0 0 0 0
0 0 0 0 0 0 0 0 0 0 0 0 0 0 0 0 0 0 0 0 0 0 0 0 0 0 0 0 0 0 0 0 0 0 0 0 0 0 0 0 0 0 0
0 0 0 0 0 0 0 0 0 0 0 0 0 0 0 0 0 0 0 0 0 0 0 0 0 0 0 0 0 0 0 0 0 0 0 0 0 0 0 0 0 0 0
0 0 0 0 0 0 0 0 0 0 0 0 0 0 0 0 0 0 0 0 0 0 0 0 0 0 0 0 0 0 0 0 0 0 0 0 0 0 0 0 0 0 0
0 0 0 0 0 0 0 0 0 0 0 0 0 0 0 0 0 0 0 0 0 0 0 0 0 0 0 0 0 0 0 0 0 0 0 0 0 0 2 0 0 0 1
0 0 0 0 0 0 0 0 0 0 0 0 0 0 0 0 0 0 0 0 0 0 0 0 0 0 0 0 0 0 0 0 0 0 0 0 0 2 0 0 0 0 0
0 0 0 0 0 0 0 0 0 0 0 0 0 0 0 0 1 0 0 0 0 0 0 0 0 1 0 0 0 0 0 0 0 0 0 0 0 0 0 0 0 0 1

GFSGL_con_mlcape_117.txt.gz
CAPE
603 510 462 283 582 514 791 595 695 307 0 0 111 513 596 969 660 956 690 683 766 850 965 1014 1040 820 778 811 1076 1299 1200 888 434 368 633 548 552 852 941 1390 1918 1407 1261
671 511 404 475 523 588 520 657 783 254 2 362 486 908 872 756 1034 957 1194 674 883 811 1073 990 942 1006 825 1413 902 651 971 1099 750 659 634 620 436 788 637 979 1326 1402 1189
761 515 580 316 397 410 577 616 586 637 500 672 657 1036 880 1135 905 757 647 849 974 859 773 589 843 819 932 712 520 499 780 693 632 701 629 603 623 1043 955 829 820 879 1036
265 165 258 329 303 639 635 513 411 750 796 888 998 844 854 588 445 718 649 924 723 816 734 879 774 659 964 803 579 696 803 525 460 408 450 404 547 1092 1029 844 645 862 595
17 18 283 319 207 407 399 325 436 569 619 571 577 565 142 104 23 128 472 400 281 262 178 441 240 315 367 292 376 339 300 207 205 167 144 282 483 506 736 901 608 361 604
51 103 150 192 262 245 279 289 306 148 338 347 360 74 0 0 0 0 20 90 1 4 0 4 24 0 0 8 77 228 345 544 601 722 632 650 574 356 101 241 258 512 541
123 139 118 78 54 23 54 80 169 164 198 60 3 0 0 0 0 0 0 70 175 62 0 128 2 0 0 0 0 85 110 119 248 342 113 4 0 0 0 37 131 270 310
312 205 92 41 8 8 10 16 67 45 0 0 0 0 0 0 0 0 0 185 4 5 0 0 0 0 0 0 0 0 0 0 0 0 0 0 0 0 0 0 0 0 0
255 117 41 2 0 0 0 0 3 1 0 0 0 0 0 0 0 0 139 14 0 0 0 0 0 0 0 0 0 0 0 0 0 0 0 0 0 0 0 0 0 0 0
117 39 48 35 0 0 0 0 1 0 0 0 0 0 0 0 0 0 0 2 0 0 0 0 0 0 0 0 0 0 0 0 0 0 0 0 0 0 0 0 0 0 0
0 3 13 3 1 1 0 0 0 0 0 0 0 0 0 0 0 0 0 0 1 0 0 0 0 0 0 0 0 0 0 0 0 0 0 0 0 0 0 0 0 0 0
0 0 0 0 0 0 0 0 0 0 0 0 0 0 0 0 0 0 0 0 0 0 0 0 0 0 0 0 0 0 0 0 0 0 0 0 0 0 0 0 0 0 0
0 0 0 0 0 0 0 0 0 0 0 0 0 0 0 0 0 0 0 0 0 0 0 0 0 0 0 0 0 0 0 0 0 0 0 0 0 0 0 0 0 0 0
0 0 0 0 0 0 0 0 0 0 0 0 0 0 0 0 0 0 0 0 0 0 0 0 0 0 0 0 0 0 0 0 0 0 0 0 0 0 0 0 0 0 0
0 0 0 0 0 0 0 0 0 0 0 0 0 0 0 0 0 0 0 0 0 0 0 0 0 0 0 0 0 0 0 0 0 0 0 0 0 0 0 0 0 0 0
0 0 0 0 0 0 0 0 0 0 0 0 0 0 0 0 0 0 0 0 0 0 0 0 0 0 0 0 0 0 0 0 0 0 0 0 0 0 0 0 0 0 0
0 0 0 0 0 0 0 0 0 0 0 0 0 0 0 0 0 0 0 0 0 0 0 0 0 0 0 0 0 0 0 0 0 0 0 0 0 0 0 0 0 0 0
0 0 0 0 0 0 0 0 0 0 0 0 0 0 0 0 0 0 0 0 0 0 0 0 0 0 0 0 0 0 0 0 0 0 0 0 0 0 0 0 0 0 0
0 0 0 0 0 0 0 0 0 0 0 0 0 0 0 0 0 0 0 0 0 0 0 0 0 0 0 0 0 0 0 0 0 0 0 0 0 0 0 0 0 0 0
0 0 0 0 0 0 0 0 0 0 0 0 0 0 0 0 0 0 0 0 0 0 0 0 0 0 0 0 0 0 0 0 0 0 0 0 0 0 0 0 0 0 0
0 0 0 0 0 0 0 0 0 0 0 0 0 0 0 0 0 0 0 0 0 0 0 0 0 0 0 0 0 0 0 0 0 0 0 0 0 0 0 0 0 0 0
0 0 0 0 0 0 0 0 0 0 0 0 0 0 0 0 0 0 0 0 0 0 0 0 0 0 0 0 0 0 0 0 0 0 0 0 0 0 0 0 0 0 0
0 0 0 0 0 0 0 0 0 0 0 0 0 0 0 0 0 0 0 0 0 0 0 0 0 0 0 0 0 0 0 0 0 0 0 0 0 0 0 0 0 0 0
0 0 0 0 0 0 0 0 0 0 0 0 0 0 0 0 0 0 0 0 0 0 0 0 0 0 0 0 0 0 0 0 0 0 0 0 0 0 0 0 0 0 0
0 0 0 0 0 0 0 0 0 0 0 0 0 0 0 0 0 0 0 0 0 0 0 0 0 0 0 0 0 0 0 0 0 0 0 0 0 0 0 0 0 0 0
0 0 0 0 0 0 0 0 0 0 0 0 0 0 0 0 0 0 0 0 0 0 0 0 0 0 0 0 0 0 0 0 0 0 0 0 0 0 0 0 0 0 0

GFSGL_con_mlcape_120.txt.gz
CAPE
213 581 431 299 442 667 479 261 45 386 270 295 221 332 676 736 850 992 691 503 654 729 543 751 716 808 706 695 723 823 882 672 420 358 565 717 702 901 995 938 996 896 889
261 424 392 287 555 460 511 739 515 423 233 95 0 300 615 663 715 674 717 786 541 579 591 744 411 663 705 737 623 552 523 689 503 438 518 585 858 1022 865 695 801 743 483
314 369 446 381 247 399 364 496 629 431 208 34 343 648 816 867 844 964 896 844 952 724 537 569 494 637 584 696 466 310 523 367 470 461 278 352 293 696 617 701 482 312 653
330 552 440 327 366 387 434 539 582 484 446 382 593 528 492 673 599 769 780 686 818 647 486 399 468 504 568 471 461 474 519 250 177 47 38 154 352 657 489 309 143 431 623
200 276 505 488 368 301 381 341 529 578 632 630 629 337 115 169 125 149 261 404 465 168 222 123 111 105 93 177 284 323 327 237 329 332 386 444 499 112 15 257 282 367 547
69 174 251 290 253 230 207 275 274 232 265 212 89 0 0 12 0 0 126 115 98 31 45 0 0 0 13 21 86 151 218 248 290 369 337 52 0 0 0 40 110 197 250
4 53 60 116 43 118 98 142 148 124 22 0 0 0 0 0 0 0 0 79 52 0 0 0 0 0 0 3 10 0 0 0 0 0 0 0 0 0 0 0 0 0 4
128 144 149 95 81 60 57 51 50 44 0 0 0 0 0 0 0 0 3 57 38 1 0 0 0 0 0 0 0 0 0 0 0 0 0 0 0 0 0 0 0 0 0
127 186 140 73 23 28 10 0 0 2 1 4 3 0 0 0 0 1 1 1 0 0 0 0 0 0 0 0 0 0 0 0 0 0 0 0 0 0 0 0 0 0 0
125 102 40 16 8 9 0 0 0 0 0 0 0 0 0 0 0 0 0 0 0 0 0 0 0 0 0 0 0 0 0 0 0 0 0 0 0 0 0 0 0 0 0
78 46 22 11 42 6 0 0 0 0 0 0 0 0 0 0 0 0 0 0 0 0 0 0 0 0 0 0 0 0 0 0 0 0 0 0 0 0 0 0 0 0 0
0 0 1 16 23 11 0 0 0 0 0 0 0 0 0 0 0 0 0 0 0 0 0 0 0 0 0 0 0 0 0 0 0 0 0 0 0 0 0 0 0 0 0
0 0 0 0 0 0 0 0 0 0 0 0 0 0 0 0 0 0 0 0 0 0 0 0 0 0 0 0 0 0 0 0 0 0 0 0 0 0 0 0 0 0 0
0 0 0 0 0 0 0 0 0 0 0 0 0 0 0 0 0 0 0 0 0 0 0 0 0 0 0 0 0 0 0 0 0 0 0 0 0 0 0 0 0 0 0
0 0 0 0 0 0 0 0 0 0 0 0 0 0 0 0 0 0 0 0 0 0 0 0 0 0 0 0 0 0 0 0 0 0 0 0 0 0 0 0 0 0 0
0 0 0 0 0 0 0 0 0 0 0 0 0 0 0 0 0 0 0 0 0 0 0 0 0 0 0 0 0 0 0 0 0 0 0 0 0 0 0 0 0 0 0
0 0 0 0 0 0 0 0 0 0 0 0 0 0 0 0 0 0 0 0 0 0 0 0 0 0 0 0 0 0 0 0 0 0 0 0 0 0 0 0 0 0 0
0 0 0 0 0 0 0 0 0 0 0 0 0 0 0 0 0 0 0 0 0 0 0 0 0 0 0 0 0 0 0 0 0 0 0 0 0 0 0 0 0 0 0
0 0 0 0 0 0 0 0 0 0 0 0 0 0 0 0 0 0 0 0 0 0 0 0 0 0 0 0 0 0 0 0 0 0 0 0 0 0 0 0 0 0 0
0 0 0 0 0 0 0 0 0 0 0 0 0 0 0 0 0 0 0 0 0 0 0 0 0 0 0 0 0 0 0 0 0 0 0 0 0 0 0 0 0 0 0
0 0 0 0 0 0 0 0 0 0 0 0 0 0 0 0 0 0 0 0 0 0 0 0 0 0 0 0 0 0 0 0 0 0 0 0 0 0 0 0 0 0 0
0 0 0 0 0 0 0 0 0 0 0 0 0 0 0 0 0 0 0 0 0 0 0 0 0 0 0 0 0 0 0 0 0 0 0 0 0 0 0 0 0 0 0
0 0 0 0 0 0 0 0 0 0 0 0 0 0 0 0 0 0 0 0 0 0 0 0 0 0 0 0 0 0 0 0 0 0 0 0 0 0 0 0 0 0 0
0 0 0 0 0 0 0 0 0 0 0 0 0 0 0 0 0 0 0 0 0 0 0 0 0 0 0 0 0 0 0 0 0 0 0 0 0 0 0 0 0 0 0
0 0 0 0 0 0 0 0 0 0 0 0 0 0 0 0 0 0 0 0 0 0 0 0 0 0 0 0 0 0 0 0 0 0 0 0 0 0 0 0 0 0 0
0 0 0 0 0 0 0 0 0 0 0 0 0 0 0 0 0 0 0 0 0 0 0 0 0 0 0 0 0 0 0 0 0 0 0 0 0 0 0 0 0 0 0